[[{"header":{"parameterUnit":"m.s-1","parameterCategory":1,"la1":30.6,"la2":28.766,"lo1":-90.7593,"lo2":-88.6598,"dy":0.0162,"dx":0.0183,"nx":116,"ny":114,"refTime":"2023-09-06T06:00:00:Z","depth":0,"parameterNumber":2,"parameterNumberName":"U-component_of_WINDS"},"data":[0.0,0.0,0.0,0.0,0.0,0.0,0.0,0.0,0.0,0.0,0.0,0.0,0.0,0.0,0.0,0.0,0.0,0.0,0.0,0.0,0.0,0.0,0.0,0.0,0.0,0.0,0.0,0.0,0.0,0.0,0.0,0.0,0.0,0.0,0.0,0.0,0.0,0.0,0.0,0.0,0.0,0.0,0.0,0.0,0.0,0.0,0.0,0.0,0.0,0.0,0.0,0.0,0.0,0.0,0.0,0.0,0.0,0.0,0.0,0.0,0.0,0.0,0.0,0.0,0.0,0.0,0.0,0.0,0.0,0.0,0.0,0.0,0.0,0.0,0.0,0.0,0.0,0.0,0.0,0.0,0.0,0.0,0.0,0.0,0.0,0.0,0.0,0.0,0.0,0.0,0.0,0.0,0.0,0.0,0.0,0.0,0.0,0.0,0.0,0.0,0.0,0.0,0.0,0.0,0.0,0.0,0.0,0.0,0.0,0.0,0.0,0.0,0.0,0.0,0.0,0.0,0.0,0.0,0.0,0.0,0.0,0.0,0.0,0.0,0.0,0.0,0.0,0.0,0.0,0.0,0.0,0.0,0.0,0.0,0.0,0.0,0.0,0.0,0.0,0.0,0.0,0.0,0.0,0.0,0.0,0.0,0.0,0.0,0.0,0.0,0.0,0.0,0.0,0.0,0.0,0.0,0.0,0.0,0.0,0.0,0.0,0.0,0.0,0.0,0.0,0.0,0.0,0.0,0.0,0.0,0.0,0.0,0.0,0.0,0.0,0.0,0.0,0.0,0.0,0.0,0.0,0.0,0.0,0.0,0.0,0.0,0.0,0.0,0.0,0.0,0.0,0.0,0.0,0.0,0.0,0.0,0.0,0.0,0.0,0.0,0.0,0.0,0.0,0.0,0.0,0.0,0.0,0.0,0.0,0.0,0.0,0.0,0.0,0.0,0.0,0.0,0.0,0.0,0.0,0.0,0.0,0.0,0.0,0.0,0.0,0.0,0.0,0.0,0.0,0.0,0.0,0.0,0.0,0.0,0.0,0.0,0.0,0.0,0.0,0.0,0.0,0.0,0.0,0.0,0.0,0.0,0.0,0.0,0.0,0.0,0.0,0.0,0.0,0.0,0.0,0.0,0.0,0.0,0.0,0.0,0.0,0.0,0.0,0.0,0.0,0.0,0.0,0.0,0.0,0.0,0.0,0.0,0.0,0.0,0.0,0.0,0.0,0.0,0.0,0.0,0.0,0.0,0.0,0.0,0.0,0.0,0.0,0.0,0.0,0.0,0.0,0.0,0.0,0.0,0.0,0.0,0.0,0.0,0.0,0.0,0.0,0.0,0.0,0.0,0.0,0.0,0.0,0.0,0.0,0.0,0.0,0.0,0.0,0.0,0.0,0.0,0.0,0.0,0.0,0.0,0.0,0.0,0.0,0.0,0.0,0.0,0.0,0.0,0.0,0.0,0.0,0.0,0.0,0.0,0.0,0.0,0.0,0.0,0.0,0.0,0.0,0.0,0.0,0.0,0.0,0.0,0.0,0.0,0.0,0.0,0.0,0.0,0.0,0.0,0.0,0.0,0.0,0.0,0.0,0.0,0.0,0.0,0.0,0.0,0.0,0.0,0.0,0.0,0.0,0.0,0.0,0.0,0.0,0.0,0.0,0.0,0.0,0.0,0.0,0.0,0.0,0.0,0.0,0.0,0.0,0.0,0.0,0.0,0.0,0.0,0.0,0.0,0.0,0.0,0.0,0.0,0.0,0.0,0.0,0.0,0.0,0.0,0.0,0.0,0.0,0.0,0.0,0.0,0.0,0.0,0.0,0.0,0.0,0.0,0.0,0.0,0.0,0.0,0.0,0.0,0.0,0.0,0.0,0.0,0.0,0.0,0.0,0.0,0.0,0.0,0.0,0.0,0.0,0.0,0.0,0.0,0.0,0.0,0.0,0.0,0.0,0.0,0.0,0.0,0.0,0.0,0.0,0.0,0.0,0.0,0.0,0.0,0.0,0.0,0.0,0.0,0.0,0.0,0.0,0.0,0.0,0.0,0.0,0.0,0.0,0.0,0.0,0.0,0.0,0.0,0.0,0.0,0.0,0.0,0.0,0.0,0.0,0.0,0.0,0.0,0.0,0.0,0.0,0.0,0.0,0.0,0.0,0.0,0.0,0.0,0.0,0.0,0.0,0.0,0.0,0.0,0.0,0.0,0.0,0.0,0.0,0.0,0.0,0.0,0.0,0.0,0.0,0.0,0.0,0.0,0.0,0.0,0.0,0.0,0.0,0.0,0.0,0.0,0.0,0.0,0.0,0.0,0.0,0.0,0.0,0.0,0.0,0.0,0.0,0.0,0.0,0.0,0.0,0.0,0.0,0.0,0.0,0.0,0.0,0.0,0.0,0.0,0.0,0.0,0.0,0.0,0.0,0.0,0.0,0.0,0.0,0.0,0.0,0.0,0.0,0.0,0.0,0.0,0.0,0.0,0.0,0.0,0.0,0.0,0.0,0.0,0.0,0.0,0.0,0.0,0.0,0.0,0.0,0.0,0.0,0.0,0.0,0.0,0.0,0.0,0.0,0.0,0.0,0.0,0.0,0.0,0.0,0.0,0.0,0.0,0.0,0.0,0.0,0.0,0.0,0.0,0.0,0.0,0.0,0.0,0.0,0.0,0.0,0.0,0.0,0.0,0.0,0.0,0.0,0.0,0.0,0.0,0.0,0.0,0.0,0.0,0.0,0.0,0.0,0.0,0.0,0.0,0.0,0.0,0.0,0.0,0.0,0.0,0.0,0.0,0.0,0.0,0.0,0.0,0.0,0.0,0.0,0.0,0.0,0.0,0.0,0.0,0.0,0.0,0.0,0.0,0.0,0.0,0.0,0.0,0.0,0.0,0.0,0.0,0.0,0.0,0.0,0.0,0.0,0.0,0.0,0.0,0.0,0.0,0.0,0.0,0.0,0.0,0.0,0.0,0.0,0.0,0.0,0.0,0.0,0.0,0.0,0.0,0.0,0.0,0.0,0.0,0.0,0.0,0.0,0.0,0.0,0.0,0.0,0.0,0.0,0.0,0.0,0.0,0.0,0.0,0.0,0.0,0.0,0.0,0.0,0.0,0.0,0.0,0.0,0.0,0.0,0.0,0.0,0.0,0.0,0.0,0.0,0.0,0.0,0.0,0.0,0.0,0.0,0.0,0.0,0.0,0.0,0.0,0.0,0.0,0.0,0.0,0.0,0.0,0.0,0.0,0.0,0.0,0.0,0.0,0.0,0.0,0.0,0.0,0.0,0.0,0.0,0.0,0.0,0.0,0.0,0.0,0.0,0.0,0.0,0.0,0.0,0.0,0.0,0.0,0.0,0.0,0.0,0.0,0.0,0.0,0.0,0.0,0.0,0.0,0.0,0.0,0.0,0.0,0.0,0.0,0.0,0.0,0.0,0.0,0.0,0.0,0.0,0.0,0.0,0.0,0.0,0.0,0.0,0.0,0.0,0.0,0.0,0.0,0.0,0.0,0.0,0.0,0.0,0.0,0.0,0.0,0.0,0.0,0.0,0.0,0.0,0.0,0.0,0.0,0.0,0.0,0.0,0.0,0.0,0.0,0.0,0.0,0.0,0.0,0.0,0.0,0.0,0.0,0.0,0.0,0.0,0.0,0.0,0.0,0.0,0.0,0.0,0.0,0.0,0.0,0.0,0.0,0.0,0.0,0.0,0.0,0.0,0.0,0.0,0.0,0.0,0.0,0.0,0.0,0.0,0.0,0.0,0.0,0.0,0.0,0.0,0.0,0.0,0.0,0.0,0.0,0.0,0.0,0.0,0.0,0.0,0.0,0.0,0.0,0.0,0.0,0.0,0.0,0.0,0.0,0.0,0.0,0.0,0.0,0.0,0.0,0.0,0.0,0.0,0.0,0.0,0.0,0.0,0.0,0.0,0.0,0.0,0.0,0.0,0.0,0.0,0.0,0.0,0.0,0.0,0.0,0.0,0.0,0.0,0.0,0.0,0.0,0.0,0.0,0.0,0.0,0.0,0.0,0.0,0.0,0.0,0.0,0.0,0.0,0.0,0.0,0.0,0.0,0.0,0.0,0.0,0.0,0.0,0.0,0.0,0.0,0.0,0.0,0.0,0.0,0.0,0.0,0.0,0.0,0.0,0.0,0.0,0.0,0.0,0.0,0.0,0.0,0.0,0.0,0.0,0.0,0.0,0.0,0.0,0.0,0.0,0.0,0.0,0.0,0.0,0.0,0.0,0.0,0.0,0.0,0.0,0.0,0.0,0.0,0.0,0.0,0.0,0.0,0.0,0.0,0.0,0.0,0.0,0.0,0.0,0.0,0.0,0.0,0.0,0.0,0.0,0.0,0.0,0.0,0.0,0.0,0.0,0.0,0.0,0.0,0.0,0.0,0.0,0.0,0.0,0.0,0.0,0.0,0.0,0.0,0.0,0.0,0.0,0.0,0.0,0.0,0.0,0.0,0.0,0.0,0.0,0.0,0.0,0.0,0.0,0.0,0.0,0.0,0.0,0.0,0.0,0.0,0.0,0.0,0.0,0.0,0.0,0.0,0.0,0.0,0.0,0.0,0.0,0.0,0.0,0.0,0.0,0.0,0.0,0.0,0.0,0.0,0.0,0.0,0.0,0.0,0.0,0.0,0.0,0.0,0.0,0.0,0.0,0.0,0.0,0.0,0.0,0.0,0.0,0.0,0.0,0.0,0.0,0.0,0.0,0.0,0.0,0.0,0.0,0.0,0.0,0.0,0.0,0.0,0.0,0.0,0.0,0.0,0.0,0.0,0.0,0.0,0.0,0.0,0.0,0.0,0.0,0.0,0.0,0.0,0.0,0.0,0.0,0.0,0.0,0.0,0.0,0.0,0.0,0.0,0.0,0.0,0.0,0.0,0.0,0.0,0.0,0.0,0.0,0.0,0.0,0.0,0.0,0.0,0.0,0.0,0.0,0.0,0.0,0.0,0.0,0.0,0.0,0.0,0.0,0.0,0.0,0.0,0.0,0.0,0.0,0.0,0.0,0.0,0.0,0.0,0.0,0.0,0.0,0.0,0.0,0.0,0.0,0.0,0.0,0.0,0.0,0.0,0.0,0.0,0.0,0.0,0.0,0.0,0.0,0.0,0.0,0.0,0.0,0.0,0.0,0.0,0.0,0.0,0.0,0.0,0.0,0.0,0.0,0.0,0.0,0.0,0.0,0.0,0.0,0.0,0.0,0.0,0.0,0.0,0.0,0.0,0.0,0.0,0.0,0.0,0.0,0.0,0.0,0.0,0.0,0.0,0.0,0.0,0.0,0.0,0.0,0.0,0.0,0.0,0.0,0.0,0.0,0.0,0.0,0.0,0.0,0.0,0.0,0.0,0.0,0.0,0.0,0.0,0.0,0.0,0.0,0.0,0.0,0.0,0.0,0.0,0.0,0.0,0.0,0.0,0.0,0.0,0.0,0.0,0.0,0.0,0.0,0.0,0.0,0.0,0.0,0.0,0.0,0.0,0.0,0.0,0.0,0.0,0.0,0.0,0.0,0.0,0.0,0.0,0.0,0.0,0.0,0.0,0.0,0.0,0.0,0.0,0.0,0.0,0.0,0.0,0.0,0.0,0.0,0.0,0.0,0.0,0.0,0.0,0.0,0.0,0.0,0.0,0.0,0.0,0.0,0.0,0.0,0.0,0.0,0.0,0.0,0.0,0.0,0.0,0.0,0.0,0.0,0.0,0.0,0.0,0.0,0.0,0.0,0.0,0.0,0.0,0.0,0.0,0.0,0.0,0.0,0.0,0.0,0.0,0.0,0.0,0.0,0.0,0.0,0.0,0.0,0.0,0.0,0.0,0.0,0.0,0.0,0.0,0.0,0.0,0.0,0.0,0.0,0.0,0.0,0.0,0.0,0.0,0.0,0.0,0.0,0.0,0.0,0.0,0.0,0.0,0.0,0.0,0.0,0.0,0.0,0.0,0.0,0.0,0.0,0.0,0.0,0.0,0.0,0.0,0.0,0.0,0.0,0.0,0.0,0.0,0.0,0.0,0.0,0.0,0.0,0.0,0.0,0.0,0.0,0.0,0.0,0.0,0.0,0.0,0.0,0.0,0.0,0.0,0.0,0.0,0.3322,0.3772,0.0,0.0,0.0,0.0,0.0,0.0,0.0,0.0,0.0,0.0,0.0,0.0,0.0,0.0,0.0,0.0,0.0,0.0,0.0,0.0,0.0,0.0,0.0,0.0,0.0,0.0,0.0,0.0,0.0,0.0,0.0,0.0,0.0,0.0,0.0,0.0,0.0,0.0,0.6013,0.6136,0.6441,0.6414,0.6533,0.682,0.0,0.0,0.0,0.0,0.0,0.0,0.0,0.0,0.0,0.0,0.0,0.0,0.0,0.0,0.0,0.0,0.0,0.0,0.0,0.0,0.0,0.0,0.0,0.0,0.0,0.0,0.0,0.0,0.0,0.0,0.0,0.0,0.0,0.0,0.0,0.0,0.0,0.0,0.0,0.0,0.0,0.0,0.0,0.0,0.0,0.0,0.0,0.0,0.0,0.0,0.0,0.0,0.0,0.0,0.0,0.0,0.0,0.0,0.0,0.0,0.0,0.0,0.0,0.0,0.0,0.0,0.0,0.0,0.0,0.0,0.3253,0.3396,0.0,0.0,0.0,0.0,0.0,0.0,0.0,0.0,0.0,0.0,0.0,0.0,0.0,0.0,0.0,0.0,0.0,0.0,0.0,0.0,0.0,0.0,0.0,0.5583,0.5793,0.5836,0.605,0.6184,0.0,0.0,0.0,0.0,0.0,0.0,0.0,0.6227,0.6139,0.5991,0.6034,0.6159,0.6441,0.6329,0.6466,0.6834,0.6989,0.0,0.0,0.0,0.0,0.0,0.0,0.0,0.0,0.0,0.0,0.0,0.0,0.0,0.0,0.0,0.0,0.0,0.0,0.0,0.0,0.0,0.0,0.0,0.0,0.0,0.0,0.0,0.0,0.0,0.0,0.0,0.0,0.0,0.0,0.0,0.0,0.0,0.0,0.0,0.0,0.0,0.0,0.0,0.0,0.0,0.0,0.0,0.0,0.0,0.0,0.0,0.0,0.0,0.0,0.0,0.0,0.0,0.0,0.0,0.0,0.0,0.0,0.0,0.3826,0.3714,0.369,0.371,0.3813,0.3946,0.3266,0.3193,0.3517,0.405,0.0,0.0,0.0,0.0,0.0,0.0,0.0,0.0,0.0,0.0,0.0,0.0,0.0,0.0,0.0,0.0,0.0,0.0,0.0,0.0,0.0,0.5583,0.5836,0.5976,0.6019,0.6105,0.6367,0.0,0.0,0.0,0.0,0.0,0.6367,0.627,0.6139,0.5991,0.5843,0.5894,0.6169,0.6499,0.7045,0.7706,0.7631,0.7657,0.7776,0.0,0.0,0.0,0.0,0.0,0.0,0.0,0.0,0.0,0.0,0.0,0.0,0.0,0.0,0.0,0.0,0.0,0.0,0.0,0.0,0.0,0.0,0.0,0.0,0.0,0.0,0.0,0.0,0.0,0.0,0.0,0.0,0.0,0.0,0.0,0.0,0.0,0.0,0.0,0.0,0.0,0.7084,0.6419,0.0,0.0,0.0,0.0,0.0,0.0,0.0,0.0,0.0,0.0,0.0,0.0,0.0,0.5566,0.5435,0.533,0.5075,0.4532,0.4484,0.4203,0.3686,0.3705,0.3913,0.4257,0.4147,0.0,0.4279,0.4644,0.0,0.0,0.0,0.0,0.0,0.0,0.0,0.0,0.0,0.0,0.0,0.0,0.0,0.0,0.0,0.0,0.0,0.0,0.0,0.0,0.0,0.5539,0.5836,0.5884,0.6139,0.6337,0.6282,0.6457,0.0,0.0,0.0,0.6227,0.6276,0.6227,0.6264,0.6349,0.6507,0.6626,0.6752,0.7475,0.8015,0.8438,0.873,0.8791,0.8633,0.8341,0.0,0.0,0.0,0.0,0.0,0.0,0.0,0.0,0.0,0.0,0.0,0.0,0.0,0.0,0.0,0.0,0.0,0.0,0.0,0.0,0.0,0.0,0.0,0.0,0.0,0.0,0.0,0.0,0.0,0.0,0.0,0.0,0.0,0.0,0.0,0.0,0.0,0.0,0.0,0.7455,0.7194,0.6746,0.6675,0.6612,0.0,0.0,0.0,0.0,0.0,0.0,0.0,0.0,0.0,0.5538,0.5596,0.5467,0.5287,0.5142,0.4996,0.4705,0.4805,0.4751,0.4499,0.4543,0.4692,0.485,0.485,0.4857,0.4832,0.4992,0.5314,0.5658,0.0,0.0,0.0,0.0,0.643,0.6631,0.0,0.0,0.0,0.0,0.0,0.0,0.0,0.0,0.0,0.0,0.0,0.0,0.499,0.5505,0.5886,0.5886,0.6276,0.6439,0.6296,0.6496,0.6522,0.6282,0.627,0.627,0.627,0.6289,0.6466,0.6854,0.7252,0.7525,0.7713,0.8483,0.8956,0.9213,0.9683,0.9699,0.9399,0.9064,0.8662,0.8327,0.0,0.0,0.0,0.0,0.0,0.0,0.0,0.0,0.0,0.0,0.0,0.0,0.0,0.0,0.0,0.0,0.0,0.0,0.0,0.0,0.0,0.0,0.0,0.0,0.0,0.0,0.0,0.0,0.0,0.0,0.0,0.0,0.0,0.0,0.0,0.0,0.0,0.7492,0.756,0.7156,0.6908,0.6814,0.0,0.0,0.0,0.0,0.0,0.0,0.6239,0.6342,0.6244,0.6058,0.6023,0.5724,0.5153,0.5154,0.5059,0.4946,0.5084,0.5149,0.5153,0.5237,0.5297,0.5297,0.5297,0.5221,0.5137,0.5162,0.5318,0.5513,0.5611,0.598,0.6421,0.6314,0.6546,0.6841,0.0,0.0,0.0,0.0,0.0,0.0,0.0,0.0,0.0,0.0,0.0,0.499,0.499,0.5605,0.6048,0.6151,0.6213,0.6304,0.6469,0.6337,0.6288,0.6367,0.6373,0.6373,0.6373,0.6517,0.688,0.7568,0.7766,0.8305,0.9114,0.9136,0.9577,1.032,1.0084,0.9967,0.9972,0.9794,0.9412,0.8936,0.8603,0.0,0.0,0.0,0.0,0.0,0.0,0.0,0.0,0.0,0.0,0.0,0.0,0.0,0.0,0.0,0.0,0.0,0.0,0.0,0.0,0.0,0.0,0.0,0.0,0.0,0.0,0.0,0.0,0.0,0.0,0.0,0.0,0.0,0.0,0.0,0.0,0.0,0.0,0.7522,0.6844,0.0,0.0,0.0,0.0,0.6174,0.6912,0.7205,0.6972,0.717,0.7211,0.6943,0.7054,0.6569,0.5477,0.5894,0.5851,0.5273,0.5281,0.5285,0.5285,0.5293,0.5297,0.5297,0.5297,0.5293,0.5273,0.5141,0.528,0.5474,0.5277,0.5672,0.6294,0.6012,0.6514,0.7294,0.0,0.0,0.0,0.0,0.0,0.0,0.0,0.0,0.5313,0.5356,0.527,0.5198,0.521,0.5565,0.595,0.6298,0.6404,0.6426,0.6453,0.6439,0.6449,0.6422,0.6416,0.6416,0.6416,0.6678,0.7134,0.7645,0.8524,0.9042,0.9298,0.9951,1.0226,1.0123,1.036,1.0478,1.0438,1.006,0.9628,0.9149,0.8905,0.799,0.0,0.0,0.0,0.0,0.0,0.0,0.0,0.0,0.0,0.0,0.0,0.0,0.0,0.0,0.0,0.0,0.0,0.0,0.0,0.0,0.0,0.0,0.0,0.0,0.0,0.0,0.0,0.0,0.0,0.0,0.0,0.0,0.0,0.0,0.0,0.0,0.0,0.7889,0.7669,0.0,0.7654,0.7034,0.6613,0.666,0.6368,0.6341,0.6795,0.711,0.7541,0.8156,0.7633,0.7058,0.6519,0.6039,0.5626,0.5297,0.5297,0.5242,0.5183,0.5567,0.5732,0.5786,0.6159,0.6376,0.6431,0.6406,0.6002,0.5346,0.5315,0.5718,0.6236,0.6483,0.7007,0.7629,0.0,0.0,0.0,0.0,0.0,0.0,0.0,0.0,0.575,0.5873,0.5772,0.5663,0.5682,0.6112,0.6518,0.6832,0.6915,0.6931,0.6852,0.6666,0.6536,0.6496,0.6489,0.6575,0.6751,0.7042,0.743,0.8055,0.8967,0.9542,0.9715,1.0511,1.0673,1.024,1.0553,1.0722,1.0584,1.0066,0.993,0.996,0.9847,0.8504,0.6603,0.0,0.0,0.0,0.0,0.0,0.0,0.0,0.0,0.0,0.0,0.0,0.0,0.0,0.0,0.0,0.0,0.0,0.0,0.0,0.0,0.0,0.0,0.0,0.0,0.0,0.0,0.0,0.0,0.0,0.0,0.0,0.0,0.0,0.0,0.8373,0.8387,0.8328,0.813,0.8021,0.8111,0.7516,0.712,0.7022,0.6812,0.6917,0.743,0.7764,0.8331,0.9269,0.8461,0.7827,0.7497,0.6567,0.5965,0.5622,0.5622,0.5508,0.5403,0.6179,0.6483,0.6483,0.6918,0.7138,0.7253,0.7253,0.6718,0.5937,0.5956,0.625,0.6681,0.7007,0.7471,0.8109,0.0,0.0,0.0,0.0,0.0,0.0,0.0,0.6349,0.6221,0.6227,0.6313,0.6384,0.6401,0.7218,0.7778,0.7785,0.7736,0.7665,0.7659,0.695,0.6568,0.6738,0.6696,0.6914,0.7405,0.7466,0.7888,0.8702,0.9123,0.9757,1.0522,1.0775,1.0825,1.0763,1.077,1.0672,1.0415,0.9888,1.0316,1.1309,1.1334,0.9394,0.6425,0.0,0.0,0.0,0.0,0.0,0.0,0.0,0.0,0.0,0.0,0.0,0.0,0.0,0.0,0.0,0.0,0.0,0.0,0.0,0.0,0.0,0.0,0.0,0.0,0.0,0.0,0.0,0.0,0.0,0.0,0.0,0.0,0.0,0.8791,0.8557,0.849,0.8758,0.8184,0.7721,0.7721,0.7727,0.7568,0.7257,0.8339,0.8998,0.8997,0.9252,0.9624,1.0177,0.9545,0.8869,0.8217,0.7494,0.6836,0.6282,0.6218,0.6168,0.6078,0.7053,0.7429,0.7373,0.7497,0.7553,0.7542,0.7542,0.7411,0.7149,0.7149,0.7257,0.7526,0.7521,0.8002,0.8738,0.0,0.0,0.0,0.0,0.0,0.0,0.0,0.6702,0.6611,0.6295,0.6318,0.6425,0.6666,0.6923,0.7229,0.7571,0.7486,0.7339,0.7197,0.6937,0.6914,0.7247,0.6988,0.7039,0.7386,0.7702,0.797,0.8193,0.946,1.0444,1.1057,1.0895,1.1129,1.1638,1.0477,0.9916,0.9916,1.0709,1.1238,1.1573,1.2511,1.0517,0.7125,0.0,0.0,0.0,0.0,0.0,0.0,0.0,0.0,0.0,0.0,0.0,0.0,0.0,0.0,0.0,0.0,0.0,0.0,0.0,0.0,0.0,0.0,0.0,0.0,0.0,0.0,0.0,0.0,0.0,0.0,0.0,0.845,0.8243,0.8464,0.8604,0.8644,0.851,0.8501,0.8476,0.8476,0.7973,0.7749,0.8051,0.8309,0.8552,0.8837,0.9147,0.9603,1.012,0.9688,0.9278,0.9016,0.8283,0.7752,0.7475,0.7244,0.7192,0.7228,0.7762,0.8097,0.8265,0.8747,0.8865,0.8732,0.8732,0.8688,0.8563,0.7728,0.7561,0.7816,0.789,0.8536,0.948,0.0,0.0,0.0,0.0,0.0,0.0,0.0,0.6836,0.6823,0.6634,0.6735,0.6887,0.708,0.7222,0.7448,0.7708,0.7605,0.7511,0.743,0.7358,0.7426,0.7678,0.7582,0.7682,0.8038,0.8174,0.8352,0.8665,0.9577,1.044,1.1207,1.0937,1.1069,1.1417,1.0742,1.0444,1.0485,1.1247,1.1903,1.2422,1.2918,1.1371,0.8864,0.9268,0.8837,0.7919,0.777,0.8201,0.879,0.8155,0.0,0.0,0.0,0.0,0.0,0.0,0.0,0.0,0.0,0.0,0.0,0.0,0.0,0.0,0.0,0.0,0.0,0.0,0.0,0.0,0.0,0.0,0.0,0.0,0.8517,0.8404,0.8697,0.8671,0.8611,0.8564,0.8704,0.8851,0.8978,0.8551,0.8459,0.889,0.9112,0.9369,0.9774,0.994,1.0275,1.0656,1.0086,0.9718,0.9614,0.8817,0.8389,0.831,0.8161,0.8051,0.8128,0.8743,0.9051,0.9135,0.9441,0.9601,0.9528,0.9283,0.9183,0.0,0.0,0.0,0.0,0.0,0.9369,1.0185,0.0,0.0,0.0,0.0,0.0,0.0,0.0,0.6836,0.695,0.6979,0.7255,0.7473,0.7506,0.7774,0.7976,0.801,0.792,0.7886,0.7951,0.7966,0.7957,0.8058,0.8243,0.85,0.8954,0.8743,0.8936,0.9568,0.97,1.0215,1.1197,1.1136,1.1038,1.0947,1.1396,1.1514,1.14,1.1485,1.2171,1.3126,1.2626,1.1803,1.0786,0.9479,0.8875,0.8694,0.8519,0.8685,0.8878,0.8336,0.0,0.0,0.0,0.0,0.0,0.0,0.0,0.0,0.0,0.0,0.0,0.0,0.0,0.0,0.0,0.0,0.0,0.0,0.0,0.0,0.0,0.0,0.0,0.0,0.901,0.9059,0.9301,0.8944,0.8707,0.8871,0.8891,0.8991,0.9321,0.9424,0.9608,0.9938,1.0574,1.1084,1.1285,1.124,0.0,0.0,0.0,1.0214,1.0214,0.943,0.8989,0.8989,0.8958,0.8899,0.8883,0.9706,1.008,0.9977,0.984,0.9907,1.0074,0.9519,0.9236,0.9236,0.9236,0.9509,0.9809,0.9876,1.0328,1.0897,0.0,0.0,0.0,0.0,0.0,0.0,0.0,0.6872,0.6979,0.6979,0.7074,0.7201,0.7486,0.7345,0.7338,0.758,0.7426,0.7487,0.7811,0.8017,0.8292,0.8546,0.8384,0.8477,0.881,0.9058,0.9248,0.9535,1.063,1.139,1.185,1.2079,1.2432,1.2917,1.2028,1.1076,1.027,1.1071,1.1378,1.1404,1.1537,1.1191,1.0627,1.0739,0.9907,0.8606,0.8374,0.8425,0.8618,0.804,0.8706,0.9728,0.9435,0.9463,0.0,0.0,0.0,0.0,0.0,0.0,0.0,0.0,0.0,0.0,0.0,0.0,0.0,0.0,0.0,0.0,0.0,0.0,0.0,0.9118,0.9575,1.0057,1.0342,1.0316,1.0014,0.9359,0.9312,0.9602,1.0322,1.0862,1.1252,1.16,1.2338,1.272,1.2712,1.2165,1.1992,1.2373,1.1362,1.0828,1.0828,1.0465,1.0256,1.0256,0.9958,0.0,1.0194,1.0133,1.0247,1.0474,1.0414,1.0287,1.0087,0.974,0.9599,0.9599,0.9599,0.9978,1.0545,1.0991,1.1428,1.1889,0.0,0.0,0.0,0.0,0.0,0.0,0.0,0.6907,0.6979,0.6979,0.6985,0.7045,0.7228,0.7072,0.7009,0.7198,0.7121,0.729,0.7678,0.8025,0.8367,0.8679,0.8751,0.8851,0.9093,0.9451,0.9743,1.0073,1.1105,1.1747,1.1996,1.2043,1.2362,1.2983,1.269,1.1801,1.0645,1.1109,1.1405,1.1505,1.1717,1.1358,1.0892,1.0893,1.005,0.8871,0.8816,0.8771,0.8714,0.8334,0.893,0.9761,0.9475,0.9677,1.0058,0.0,0.0,0.0,0.0,0.0,0.0,0.0,0.0,0.0,0.0,0.0,0.0,0.0,0.0,0.9133,0.9564,0.0,0.9563,1.0428,1.0505,1.0681,1.1299,1.1561,1.1406,1.0594,1.0386,1.0615,1.1322,1.1643,1.2055,1.2557,1.3277,1.3468,1.3108,1.2739,1.2417,1.2086,1.1383,1.0922,1.0775,1.0775,1.0701,1.0624,1.0408,1.0414,1.0618,1.0408,1.0421,1.0618,1.0401,1.0341,1.0307,0.9866,1.0,1.0411,1.0263,1.0566,1.1114,1.1428,1.205,1.2829,0.0,0.0,0.0,0.0,0.0,0.0,0.0,0.6943,0.6979,0.6979,0.695,0.695,0.6985,0.6897,0.6787,0.6787,0.7005,0.7285,0.7639,0.8172,0.8532,0.8726,0.9086,0.9358,0.9453,0.9888,1.035,1.0777,1.1494,1.197,1.2167,1.1874,1.2111,1.2683,1.2934,1.2408,1.1318,1.137,1.1566,1.1885,1.2149,1.1864,1.1224,1.1031,1.0189,0.9118,0.9271,0.9134,0.892,0.8771,0.9211,0.9713,0.9596,0.9955,1.0444,1.0294,1.0661,0.0,0.0,0.0,0.0,0.0,0.0,0.0,0.0,1.0123,0.9881,1.0275,1.0029,1.0002,1.0808,1.0544,1.0567,1.1752,1.1532,1.153,1.2392,1.2882,1.3003,1.2464,1.1887,1.1858,1.2627,1.2633,1.2842,1.3556,1.4107,1.4141,1.351,1.3518,1.2995,1.1831,1.15,1.1159,1.0728,1.0848,1.0822,1.0705,1.0708,1.0681,1.0624,1.087,1.0807,1.0611,1.0424,1.0486,1.0691,1.02,1.054,1.1286,1.0975,1.1279,1.1919,1.1919,1.265,1.3692,0.0,0.0,0.0,0.0,0.0,0.0,0.0,0.0,0.6979,0.6979,0.6985,0.6979,0.6979,0.6678,0.6447,0.6447,0.7128,0.7646,0.7862,0.8641,0.9023,0.8803,0.9452,0.9791,0.9686,1.0523,1.1174,1.1512,1.2387,1.2862,1.2906,1.2527,1.2781,1.3306,1.2139,1.1438,1.133,1.1601,1.1505,1.1233,1.2261,1.2187,1.1541,1.2103,1.0992,0.9136,0.9005,0.8896,0.8833,0.9162,0.9861,1.0696,1.0944,1.1329,1.1623,1.1272,1.0947,1.082,1.1023,1.1477,1.198,1.2529,1.2617,1.2654,0.0,1.2728,1.2378,1.1543,1.1506,1.1603,1.1231,1.1527,1.1881,1.2057,1.2687,1.3329,1.3817,1.4506,1.5086,1.5196,1.3566,1.3026,1.4774,1.4571,1.4599,1.5349,1.5487,1.5382,1.5002,1.4951,1.4307,1.288,1.2577,1.2027,1.1329,1.0848,1.0722,1.0942,1.1249,1.1115,1.0624,1.1779,1.1655,1.0618,1.1142,1.1232,1.1083,1.1232,1.1594,1.1968,1.1585,1.215,1.326,1.326,1.3761,1.4437,0.0,0.0,0.0,0.0,0.0,0.0,0.0,0.0,0.0,0.6979,0.6985,0.6943,0.6979,0.6796,0.6689,0.6765,0.7437,0.8112,0.8663,0.9517,1.0001,0.9909,1.0172,1.0336,1.0212,1.0826,1.1333,1.1838,1.2628,1.2914,1.2745,1.3381,1.3487,1.307,1.1834,1.1606,1.2063,1.1701,1.1809,1.2391,1.2519,1.2308,1.2135,1.2374,1.144,0.987,0.9831,0.9526,0.0,0.9451,0.9912,1.055,1.0923,1.1314,1.164,1.1249,1.1347,1.1502,1.1331,1.1852,1.2378,1.2154,1.2628,1.316,1.3243,1.3017,1.2753,1.2748,1.2634,1.2707,1.2984,1.2967,1.3162,1.3868,1.3933,1.4149,1.4769,1.5141,1.5378,1.5359,1.4584,1.4446,1.5433,1.5359,1.5456,1.6037,1.6056,1.5855,1.5265,1.5274,1.4588,1.3099,1.3398,1.3134,1.2424,1.2342,1.2275,1.2216,1.2132,1.2072,1.2078,1.2641,1.2687,1.2412,1.2416,1.249,1.2569,1.205,1.2429,1.3189,1.2631,1.327,1.4373,1.3709,1.4172,1.5079,0.0,0.0,0.0,0.0,0.0,0.0,0.0,0.0,0.0,0.0,0.6943,0.6992,0.7105,0.7112,0.7154,0.7314,0.7932,0.858,0.9293,1.0179,1.0714,1.0778,1.1057,1.1086,1.0959,1.1367,1.179,1.2166,1.28,1.2997,1.2873,1.3809,1.3952,1.3468,1.2337,1.2275,1.2826,1.2198,1.2519,1.3398,1.3052,1.2832,1.2635,1.2634,1.1853,1.0679,1.0501,1.0002,0.953,0.9607,0.991,1.0279,1.066,1.1068,1.1391,1.1083,1.1445,1.1809,1.1535,1.2011,1.2508,1.2122,1.2905,1.3768,1.3804,1.3604,1.3559,1.405,1.3924,1.39,1.4467,1.4304,1.4304,1.518,1.4759,1.453,1.5236,1.5384,1.5396,1.5232,1.5349,1.5583,1.5825,1.5758,1.5948,1.6459,1.6477,1.6129,1.5489,1.5626,1.5052,1.3419,1.4258,1.4283,1.3411,1.3659,1.3659,1.3403,1.3226,1.3131,1.326,1.326,1.3526,1.395,1.3696,1.3729,1.3909,1.3124,1.3479,1.4477,1.3813,1.4249,1.523,1.4603,1.4898,1.5645,0.0,0.0,0.0,0.0,0.0,0.0,0.0,0.0,0.0,0.0,0.0,0.0,0.0,0.7599,0.7807,0.8136,0.8547,0.8944,0.939,1.0308,1.0947,1.0979,1.194,1.2251,1.1787,1.2561,1.2855,1.2692,1.3244,1.3557,1.3636,1.3536,1.4186,1.5271,1.3935,1.3347,1.3357,1.3597,1.3547,1.3476,1.399,1.3709,1.2989,1.2999,1.2371,1.1486,1.0686,0.9995,0.9466,0.9694,0.9932,1.017,1.0499,1.0823,1.1099,1.105,1.1036,1.1229,1.1511,1.1888,1.2428,1.3389,1.414,1.4726,1.5069,1.5437,1.5617,1.547,1.5519,1.5521,1.5168,1.5236,1.531,1.5106,1.4806,1.47,1.5136,1.5375,1.5486,1.5477,1.5924,1.6245,1.6303,1.6007,1.6088,1.6821,1.689,1.6533,1.5816,1.6464,1.606,1.4207,1.5244,1.5331,1.4199,1.4259,1.4259,1.4191,1.4446,1.4279,1.3677,1.3677,1.4024,1.4641,1.4632,1.4632,1.4641,1.4607,1.4997,1.5606,1.4932,1.5062,1.5735,1.6417,1.6396,1.6136,0.0,0.0,0.0,0.0,0.0,0.0,0.0,0.0,0.0,0.0,0.0,0.0,0.0,0.0,0.0,0.0,0.8929,0.9508,0.9914,1.1049,1.161,1.1489,1.2322,1.2658,1.2413,1.2493,1.2736,1.3134,1.2969,1.2977,1.3135,1.3099,1.3178,1.3389,1.3287,1.3231,1.3095,1.2605,1.3023,1.3905,1.3267,1.3169,1.3167,1.2367,1.1575,1.0831,0.0,0.9909,0.9845,0.9841,0.9828,0.9833,1.0053,1.0119,1.0202,1.0591,1.0854,1.1184,1.1692,1.2246,1.2857,1.3728,1.4289,1.4857,1.5743,1.5874,1.584,1.6093,1.5566,1.5191,1.5124,1.4903,1.4744,1.4736,1.4778,1.4901,1.5163,1.5078,1.5097,1.5232,1.5652,1.59,1.59,1.6066,1.6342,1.6881,1.6908,1.676,1.6542,1.7015,1.6772,1.5639,1.6517,1.6544,1.5622,1.5868,1.5859,1.5622,1.5699,1.5628,1.5437,1.6007,1.6182,1.6156,1.6156,1.6156,1.6111,1.5581,1.5658,1.6074,1.5539,1.5658,1.6233,1.7432,1.7521,1.7094,0.0,0.0,0.0,0.0,0.0,0.0,0.0,0.0,0.0,0.0,0.0,0.0,0.0,0.0,0.0,0.0,0.0,0.9784,1.0215,1.1121,1.1674,1.1617,1.2244,1.2526,1.2264,1.2202,1.2282,1.2653,1.2446,1.2407,1.2381,1.243,1.2417,1.2397,1.2645,1.2749,1.2759,1.2356,1.2824,1.374,1.2736,1.2528,1.2763,1.1646,1.0723,0.0,0.9914,0.9863,0.9828,0.9678,0.9506,0.935,0.9567,0.9735,0.9955,1.0379,1.0905,1.1488,1.2058,1.2677,1.3314,1.4082,1.4547,1.5052,1.5884,1.5968,1.5831,1.5925,1.5385,1.4867,1.4728,1.4469,1.4277,1.4268,1.4356,1.4479,1.4746,1.4666,1.4744,1.5022,1.545,1.5744,1.59,1.6156,1.6422,1.6679,1.6697,1.6697,1.6697,1.7073,1.711,1.6752,1.7376,1.7403,1.6743,1.6991,1.6917,1.6532,1.667,1.6674,1.6633,1.735,1.7432,1.6979,1.7049,1.6967,1.6793,1.634,1.6218,1.636,1.623,1.6294,1.6726,1.8077,1.8338,1.8081,0.0,0.0,0.0,0.0,0.0,0.0,0.0,0.0,0.0,0.0,0.0,0.0,0.0,0.0,0.0,0.0,0.0,0.0,1.0257,1.0652,1.1048,1.1407,1.1868,1.1921,1.1525,1.1676,1.1647,1.1326,1.1879,1.1924,1.1524,1.1518,1.1738,1.2191,1.2066,1.2123,1.23,1.2592,1.2809,1.2853,1.2303,1.1956,1.1744,1.0909,1.0003,0.9268,0.9888,0.9822,0.943,0.9261,0.908,0.8904,0.9193,0.9816,1.0422,1.0437,1.1167,1.2043,1.2431,1.3043,1.3723,1.4411,1.4919,1.5355,1.5752,1.5797,1.5738,1.5292,1.4996,1.4711,1.4227,1.4031,1.3948,1.3837,1.3623,1.3651,1.4076,1.4276,1.456,1.496,1.5496,1.5983,1.6407,1.6462,1.6462,1.6511,1.6444,1.6376,1.6376,1.6771,1.7156,1.7486,1.7908,1.7917,1.7495,1.7477,1.7293,1.6972,1.733,1.7432,1.7234,1.7788,1.7742,1.7189,1.7423,1.7106,1.6576,1.6821,1.6733,1.6549,1.6881,1.6959,1.7079,1.8499,1.9023,1.9086,0.0,0.0,0.0,0.0,0.0,0.0,0.0,0.0,0.0,0.0,0.0,0.0,0.0,0.0,0.0,0.0,0.0,0.0,0.983,1.0271,1.0548,1.0625,1.1343,1.181,1.1962,1.1498,1.1494,1.1872,1.1623,1.1499,1.1593,1.1466,1.1305,1.1049,1.0968,1.122,1.1579,1.2173,1.2306,1.2062,1.1578,1.1327,1.1195,1.0398,1.0036,0.9872,0.9612,0.966,0.9815,0.9709,0.9573,0.9564,1.0126,1.0431,1.0581,1.0821,1.1403,1.2043,1.2431,1.3005,1.3678,1.4201,1.4919,1.5618,1.6445,1.6272,1.5949,1.5842,1.4818,1.4019,1.4185,1.3789,1.3784,1.4853,1.4869,1.4926,1.5487,1.6038,1.6357,1.6181,1.6871,1.761,1.8045,1.8373,1.8623,1.8978,1.7875,1.7193,1.7193,1.7871,1.8018,1.7513,1.7908,1.7917,1.7495,1.7202,1.7312,1.7816,1.7596,1.7495,1.7442,1.777,1.7497,1.6783,1.7018,1.6749,1.6197,1.6555,1.6397,1.6056,1.7254,1.7514,1.7473,1.9183,1.9544,1.9295,0.0,0.0,0.0,0.0,0.0,0.0,0.0,0.0,0.0,0.0,0.0,0.0,0.0,0.0,0.0,0.0,0.0,0.0,0.0,1.0229,1.0393,1.0168,1.0818,1.1126,1.1103,1.0722,1.0705,1.1054,1.0864,1.0818,1.0897,1.0881,1.0787,1.0558,1.0048,1.0494,1.1678,1.202,1.2123,0.0,0.0,1.0797,1.0868,1.0196,1.0008,1.0128,1.0412,1.049,1.0471,1.0712,1.0564,1.0367,1.0826,1.1103,1.1346,1.1934,1.2603,1.3241,1.3776,1.4474,1.5014,1.5144,1.5542,1.593,1.6321,1.6021,1.5643,1.5524,1.4634,1.4053,1.441,1.3967,1.3863,1.4765,1.4934,1.5113,1.5546,1.6115,1.6691,1.7289,1.7841,1.8529,1.9434,1.9666,2.0002,2.0459,1.9304,1.8523,1.8523,1.881,1.8826,1.8524,1.8397,1.81,1.7504,1.7275,1.7303,1.7587,1.7715,1.7606,1.7216,1.7622,1.7387,1.6741,1.6902,1.6625,1.6044,1.626,1.6156,1.5935,1.7235,1.7723,1.7816,1.9243,1.9552,1.9291,0.0,0.0,0.0,0.0,0.0,0.0,0.0,0.0,0.0,0.0,0.0,0.0,0.0,0.0,0.0,0.0,0.0,0.0,0.0,0.0,1.0361,1.0019,1.0361,1.0342,0.9897,0.9851,0.9811,0.9836,1.0187,1.0263,1.0088,1.0276,1.0484,1.0639,0.9489,1.0113,1.1992,1.1824,1.1877,1.1956,1.0799,1.0466,1.0608,0.0,1.0241,1.0446,1.1615,1.1609,1.1197,1.1944,1.1809,1.1399,1.1643,1.205,1.2562,1.3441,1.4122,1.483,1.5517,1.6225,1.6641,1.6378,1.6278,1.6165,1.5901,1.5498,1.5121,1.4864,1.4535,1.4419,1.4779,1.441,1.4195,1.4388,1.4646,1.4924,1.5196,1.5711,1.6591,1.8229,1.8595,1.9201,2.0526,2.0768,2.102,2.1523,2.0938,2.036,2.0101,1.9675,1.9561,1.9713,1.9099,1.8406,1.7639,1.7521,1.7337,1.726,1.7842,1.777,1.7135,1.7706,1.7569,1.6973,1.692,1.6621,1.6202,1.6202,1.6175,1.627,1.7295,1.7849,1.8221,1.9126,1.946,1.9438,0.0,0.0,0.0,0.0,0.0,0.0,0.0,0.0,0.0,0.0,0.9124,0.931,0.0,0.0,0.0,0.0,0.0,0.0,0.0,0.0,0.0,1.0029,1.0127,1.0291,1.0473,1.016,1.0111,1.0441,1.0516,1.055,1.0583,1.0903,1.1031,1.1058,1.0364,1.0507,1.1315,1.0466,1.0527,1.11,1.111,1.0836,1.0531,1.123,0.0,0.0,1.1649,1.1501,1.1504,1.231,1.2756,1.3067,1.3425,1.3817,1.4212,1.4832,1.5053,1.5214,1.559,1.5769,1.6016,1.6354,1.6239,1.5947,1.5985,1.5428,1.4924,1.5005,1.4651,1.4409,1.4816,1.4807,1.4945,1.5491,1.5545,1.578,1.6561,1.7252,1.7868,1.833,1.9501,2.0536,2.1274,2.2053,2.2856,2.3604,2.3519,2.2734,2.1094,2.0532,1.9889,1.8935,1.9106,1.8914,1.8421,1.7455,1.7748,1.9111,1.8733,1.8347,1.8048,1.8469,1.8126,1.7292,1.7167,1.7125,1.7146,1.702,1.6947,1.7022,1.8448,1.8805,1.8682,1.9834,2.0216,2.0159,0.0,0.0,0.0,0.0,0.0,0.0,0.0,0.909,0.9335,0.9152,0.9513,0.9858,1.003,1.0049,1.0049,0.0,0.0,0.0,0.0,0.0,0.0,0.0,1.039,1.044,1.0335,1.0154,1.0115,1.0274,0.0,1.0264,1.0345,1.0395,1.051,1.0733,1.0431,1.0469,1.0679,1.0127,1.031,1.1069,1.113,1.1185,1.1343,0.0,0.0,0.0,1.092,1.0724,1.1076,1.1742,1.2529,1.3331,1.4047,1.4372,1.4663,1.5486,1.5788,1.5945,1.6693,1.7027,1.7204,1.7034,1.6963,1.677,1.5782,1.5044,1.4616,1.4945,1.4824,1.4848,1.5393,1.5392,1.5395,1.567,1.5741,1.5983,1.6701,1.7322,1.8054,1.8963,1.9946,2.0828,2.1666,2.2405,2.2973,2.3408,2.3408,2.3239,2.2776,2.2179,2.0877,1.8801,1.9473,1.9583,1.8893,1.8525,1.8635,1.9297,1.9191,1.8904,1.8537,1.8743,1.8554,1.8123,1.7622,1.751,1.7523,1.7094,1.694,1.7095,1.8218,1.8643,1.8715,1.9383,1.9803,1.9904,0.0,0.0,0.0,0.0,0.0,0.0,0.0,0.9543,0.9753,0.933,0.9863,1.0312,1.0273,1.0235,1.0196,0.0,0.0,0.0,0.0,0.0,0.0,0.0,0.0,0.0,1.0273,0.0,0.0,1.0205,1.0235,0.0,0.0,0.0,0.0,0.0,1.0351,1.0312,1.0283,1.0087,1.0347,0.0,0.0,1.1387,1.21,0.0,0.0,0.0,0.0,1.0288,1.0603,1.1109,1.1899,1.2867,1.3785,1.4317,1.4835,1.5762,1.6132,1.6477,1.7436,1.8066,1.8262,1.739,1.7425,1.7233,1.5391,1.4509,1.4193,1.4759,1.4852,1.506,1.5691,1.5648,1.5489,1.5277,1.553,1.5953,1.6439,1.7019,1.7855,1.9195,1.9975,2.0722,2.1525,2.226,2.2685,2.2685,2.2685,2.3006,2.3754,2.3463,2.2062,1.9449,2.0244,2.0318,1.9693,1.9573,1.9505,1.9589,1.9813,1.9708,1.9313,1.9354,1.9312,1.9147,1.8448,1.8196,1.8224,1.7392,1.7273,1.7535,1.7988,1.8361,1.8707,1.8862,1.916,1.94,0.0,0.0,0.0,0.0,0.0,0.0,0.0,0.9855,0.9842,1.0384,1.0417,1.0467,1.0708,1.0621,1.0544,0.0,0.0,0.0,0.0,0.0,0.0,0.0,0.0,0.0,0.0,0.0,0.0,1.0812,1.118,0.0,0.0,0.0,0.0,0.0,0.0,1.0283,1.0283,1.0079,0.0,0.0,0.0,0.0,0.0,0.0,0.0,0.0,0.0,1.0993,1.0658,1.1076,1.1273,1.1517,1.2471,1.385,1.5164,1.539,1.603,1.667,1.6772,1.7431,1.7805,1.6651,1.6639,1.6364,1.466,1.3851,1.3662,1.4223,1.4366,1.4437,1.475,1.4999,1.5012,1.4573,1.5108,1.5788,1.6237,1.6819,1.7463,1.8162,1.9539,2.0446,2.0538,2.1847,2.2685,2.2685,2.2685,2.2627,2.2424,2.3492,2.3338,2.1552,2.1506,2.1398,2.1269,1.9813,1.9895,2.1649,2.1074,2.0866,2.1075,2.1151,2.0896,2.0428,1.9907,1.9862,2.008,1.9113,1.8999,1.9386,1.8965,1.8862,1.8897,1.8908,1.8919,1.8965,0.0,0.0,0.0,0.0,0.0,0.0,1.0661,1.0355,1.0293,1.083,1.0474,1.0403,1.1035,1.0899,1.0756,1.0697,0.0,0.0,0.0,0.0,0.0,0.0,0.0,0.0,0.0,0.0,1.1483,1.1121,1.1627,0.0,0.0,0.0,0.0,0.0,0.0,1.0515,1.0408,1.0293,0.0,0.0,0.0,0.0,0.0,0.0,0.0,0.0,0.0,0.0,1.0577,1.051,1.0685,1.1031,1.1345,1.2347,1.3601,1.4767,1.5484,1.6056,1.6607,1.7076,1.7286,1.6497,1.6884,1.6929,1.4728,1.3869,1.3649,1.421,1.4304,1.4364,1.4673,1.4772,1.4903,1.4948,1.522,1.5704,1.6516,1.6871,1.7279,1.792,1.8803,1.9518,1.9918,2.0527,2.0997,2.1284,2.2157,2.2491,2.2026,2.3083,2.2855,2.1011,2.1804,2.2045,2.149,2.1017,2.133,2.2375,2.2094,2.2049,2.2149,2.1811,2.1574,2.1319,2.0522,2.0118,1.9918,1.9195,1.8839,1.8736,1.8517,1.8437,1.8437,1.8437,1.8632,1.885,0.0,0.0,0.0,0.0,0.0,1.0534,1.1179,1.0725,1.058,1.1318,1.0905,1.0782,1.1472,1.1266,1.1099,1.1191,1.1282,0.0,0.0,0.0,0.0,0.0,0.0,0.0,0.0,0.0,1.1947,1.1519,1.2066,1.2173,0.0,0.0,1.1945,1.156,0.0,0.0,0.0,0.0,0.0,0.0,0.0,0.0,0.0,0.0,0.0,0.0,0.0,0.0,0.0,0.0,0.0,1.0835,1.0789,1.1445,1.252,1.3926,1.4779,1.5396,1.5997,1.6598,1.6827,1.6197,1.6371,1.6211,1.4438,1.3803,1.3714,1.4035,1.4156,1.4303,1.4558,1.4752,1.5004,1.5324,1.5579,1.5981,1.6797,1.7008,1.726,1.7795,1.8319,1.8893,1.9537,1.9866,2.0222,2.0595,2.1629,2.2145,2.1939,2.2742,2.261,2.1311,2.2181,2.2468,2.2059,2.198,2.226,2.2903,2.2903,2.2983,2.311,2.2444,2.2157,2.2099,2.1078,2.0446,2.0079,1.9401,1.8919,1.8519,1.8199,1.8084,1.8084,1.8084,1.8368,1.8621,0.0,0.0,0.0,0.0,0.0,0.0,1.1714,1.0877,1.0576,1.1928,1.192,1.1847,1.2077,1.1737,1.1664,1.2029,1.1737,0.0,0.0,0.0,0.0,0.0,0.0,0.0,0.0,0.0,1.2614,1.2081,1.2614,1.2896,1.2908,1.2889,1.2651,1.227,0.0,0.0,0.0,0.0,0.0,0.0,0.0,0.0,0.0,0.0,0.0,0.0,0.0,0.0,0.0,0.0,0.0,0.0,0.0,1.1576,1.2485,1.282,1.3936,1.4958,1.4774,1.5676,1.649,1.5606,1.4532,1.3658,1.3599,1.3573,1.3621,1.3621,1.3831,1.4067,1.4337,1.4869,1.5355,1.5546,1.6194,1.6741,1.6888,1.719,1.7447,1.7664,1.8117,1.8653,1.9242,2.0292,2.1026,2.1175,2.1233,2.1399,2.1904,2.2409,2.2914,2.3349,2.2949,2.2926,2.3361,2.2432,2.2432,2.3361,2.3361,2.3695,2.4143,2.3133,2.2673,2.2616,2.1659,2.1221,2.1141,2.009,1.9677,1.9574,1.8485,1.8084,1.8084,1.8084,1.8084,1.8096,0.0,0.0,0.0,0.0,0.0,0.0,0.0,1.1643,1.1645,1.2706,1.206,1.1722,1.239,1.2102,1.2066,1.2425,1.2102,0.0,0.0,0.0,0.0,0.0,0.0,0.0,0.0,0.0,1.3057,1.2995,1.316,1.3254,1.3254,1.3025,1.2815,1.2615,1.1982,1.1354,0.0,0.0,0.0,0.0,0.0,0.0,1.2131,0.0,0.0,0.0,0.0,0.0,0.0,0.0,0.0,0.0,0.0,0.0,0.0,1.2985,1.3593,1.4214,1.4665,1.601,1.6991,1.573,1.4345,1.3488,1.4023,1.3822,1.364,1.4064,1.4057,1.4197,1.4915,1.5175,1.5534,1.6238,1.6539,1.6774,1.7093,1.7552,1.7926,1.8091,1.9018,1.9576,1.938,2.0702,2.1272,2.0605,2.1592,2.2145,2.1916,2.3071,2.3524,2.2926,2.311,2.3282,2.3372,2.3052,2.3305,2.3959,2.3959,2.3856,2.3661,2.2983,2.249,2.2122,2.1456,2.0779,2.0136,1.9826,1.9275,1.8542,1.821,1.8084,1.8084,1.8084,1.8084,1.8084,0.0,0.0,0.0,0.0,0.0,0.0,0.0,1.1888,1.2053,1.2877,1.2479,1.2311,1.2881,1.2638,1.2555,1.2918,1.2579,0.0,0.0,0.0,0.0,0.0,0.0,0.0,0.0,1.3369,1.3357,1.3408,1.3506,1.3531,1.3544,1.3288,1.3138,1.3094,1.252,1.2057,0.0,0.0,0.0,0.0,0.0,0.0,1.1707,0.0,0.0,0.0,0.0,0.0,0.0,0.0,0.0,0.0,0.0,0.0,0.0,0.0,1.3447,1.3703,1.4076,1.5356,1.6287,1.5114,1.4181,1.3759,1.4413,1.4325,1.4171,1.4664,1.4731,1.4858,1.54,1.5656,1.6081,1.686,1.7127,1.739,1.777,1.8166,1.8442,1.8536,1.9421,2.001,1.9927,2.1033,2.1592,2.1198,2.1954,2.2261,2.1952,2.3011,2.3396,2.2733,2.3351,2.3723,2.3723,2.3513,2.3603,2.3913,2.4108,2.3936,2.3349,2.2914,2.2398,2.1893,2.1388,2.071,0.0,1.9769,1.9298,1.8611,1.8437,1.8464,1.8572,1.8572,1.8518,1.8356,0.0,0.0,0.0,0.0,0.0,0.0,0.0,1.1708,1.1979,1.252,1.3081,1.3425,1.348,1.3182,1.3101,1.3446,0.0,0.0,0.0,0.0,0.0,0.0,0.0,0.0,1.3514,1.3539,1.3539,1.3421,1.3659,1.3812,1.3799,1.3692,1.3633,1.362,1.3148,1.2975,0.0,0.0,0.0,0.0,0.0,0.0,0.0,0.0,0.0,0.0,0.0,0.0,0.0,0.0,0.0,0.0,0.0,0.0,0.0,0.0,0.0,0.0,0.0,1.4011,1.465,1.4157,1.4134,1.4369,1.4904,1.4987,0.0,1.5377,1.5656,1.5832,1.5876,1.6355,1.6901,1.746,1.7898,1.8328,1.8832,1.8937,1.8963,1.8963,1.9499,2.0135,2.0714,2.1323,2.1927,2.2529,2.2188,2.2002,2.2047,2.2476,2.2827,2.2946,2.3855,2.43,2.4267,2.3723,2.3372,2.3383,2.3879,2.3821,2.3246,2.2846,2.2352,2.1847,2.1376,2.0922,2.0381,1.9932,1.9633,1.944,1.903,1.9052,1.942,1.942,1.9158,1.8798,0.0,0.0,0.0,0.0,0.0,0.0,0.0,0.0,0.0,0.0,1.3101,1.3493,1.348,1.3412,1.3378,0.0,0.0,0.0,0.0,0.0,0.0,0.0,0.0,0.0,1.3581,1.356,1.3594,1.3708,1.3674,1.3741,1.396,1.3808,1.3808,1.3881,1.3568,1.3126,0.0,0.0,0.0,0.0,0.0,0.0,0.0,0.0,0.0,0.0,1.1372,1.1568,0.0,0.0,0.0,0.0,0.0,0.0,0.0,0.0,1.3661,1.3767,1.3681,0.0,1.4201,1.5958,1.5472,1.4892,0.0,1.5811,1.5393,1.612,1.602,1.6008,1.66,1.6824,1.72,1.8057,1.8422,1.8709,1.8878,1.9303,1.959,1.959,2.01,2.0557,2.0731,2.1601,2.2304,2.248,2.2426,2.2724,2.3643,2.3393,2.3792,2.5028,2.4928,2.4669,2.4198,2.3653,2.3372,2.3372,2.3167,2.2765,2.2283,2.2157,2.1824,2.1342,2.1279,2.0888,2.0323,2.0217,1.9853,1.9434,1.9312,1.9316,1.942,1.942,1.9158,1.8798,0.0,0.0,0.0,0.0,0.0,0.0,0.0,0.0,0.0,0.0,0.0,1.3641,1.3641,1.3641,0.0,0.0,0.0,0.0,0.0,0.0,0.0,0.0,0.0,1.3607,1.3695,1.3674,1.3708,1.3788,1.3741,1.3782,1.4,1.3914,1.398,1.4144,1.398,1.3635,1.3113,0.0,0.0,0.0,1.2138,0.0,0.0,0.0,0.0,0.0,1.1737,1.1902,0.0,1.3047,1.3226,1.3188,0.0,0.0,0.0,0.0,1.3934,1.4053,1.384,1.4031,1.4639,1.6292,1.6323,1.6106,1.6795,1.657,1.6383,1.687,1.6837,1.6879,1.7173,1.7214,1.7615,1.8749,1.8896,1.8963,1.9284,1.9462,1.964,1.9773,2.0394,2.1009,2.1446,2.223,2.289,2.3232,2.3141,2.3289,2.3842,2.3815,2.4146,2.4847,2.4972,2.4659,2.3875,2.3768,2.336,2.2742,2.3147,2.2987,2.2255,2.2504,2.2337,2.1815,2.1815,2.1547,2.1015,2.0716,2.0416,2.007,1.9756,1.9823,1.999,1.999,1.972,1.9344,0.0,0.0,0.0,0.0,0.0,0.0,0.0,0.0,0.0,0.0,0.0,0.0,0.0,0.0,0.0,0.0,0.0,0.0,0.0,0.0,0.0,0.0,1.3708,1.3788,1.3788,1.3788,1.3821,1.3841,1.3729,1.3762,1.3931,1.3931,1.4049,1.4319,1.4332,1.4176,1.3934,1.3934,1.3656,1.3216,1.3,0.0,0.0,0.0,0.0,0.0,0.0,0.0,0.0,1.3474,1.3382,1.2904,1.37,0.0,0.0,0.0,0.0,0.0,1.3959,1.4721,1.5737,1.6313,1.6909,1.731,1.7199,1.7303,1.7449,1.7557,1.7747,1.7828,1.7611,1.7611,1.7987,1.9249,1.9354,1.9548,2.0294,2.0106,1.9994,2.0118,2.0868,2.1648,2.2364,2.2981,2.3572,2.4176,2.3981,2.382,2.3803,2.4092,2.4226,2.4106,2.4662,2.4572,2.3629,2.3897,2.3417,2.2178,2.3345,2.3555,2.2771,2.3203,2.3121,2.2652,2.2592,0.0,2.1956,2.1366,2.1087,2.1027,2.0527,2.05,2.0775,2.0946,2.0577,1.9991,0.0,0.0,0.0,0.0,0.0,0.0,0.0,0.0,0.0,0.0,0.0,0.0,0.0,0.0,0.0,0.0,0.0,0.0,0.0,0.0,0.0,1.3788,1.3695,1.3695,1.3788,1.3788,1.3874,1.3967,1.3443,1.336,1.3662,1.354,1.3829,1.4483,1.4401,1.4287,1.4052,1.4032,1.3756,1.3374,1.3306,0.0,0.0,0.0,0.0,0.0,0.0,0.0,0.0,1.3756,1.4308,1.4301,1.3563,0.0,0.0,0.0,0.0,0.0,1.4224,1.5569,1.7178,1.795,1.756,1.7147,1.7862,1.7921,1.7868,1.8029,1.8003,1.7882,1.7842,1.8003,1.8248,1.875,2.0043,2.1483,2.2912,2.2842,2.2434,2.1725,2.245,2.292,2.2764,2.346,2.423,2.4794,2.4336,2.4485,2.5464,2.4662,2.4568,2.5536,2.5229,2.4727,2.4178,2.395,2.3753,2.3478,2.3343,2.318,2.3032,2.3092,2.3115,2.3027,0.0,2.2548,2.2362,2.2018,2.1794,2.1744,2.1971,2.1586,2.1067,2.21,2.1446,1.994,0.0,0.0,0.0,0.0,0.0,0.0,0.0,0.0,0.0,0.0,0.0,0.0,0.0,0.0,0.0,0.0,0.0,0.0,0.0,0.0,1.3788,1.3788,1.3828,1.3703,1.3433,1.3419,1.3324,1.3145,1.3212,1.3198,1.3118,1.3522,1.4084,1.4718,1.4718,1.4672,1.4596,1.4564,1.4374,1.4098,0.0,0.0,0.0,0.0,0.0,0.0,0.0,0.0,0.0,0.0,1.3775,1.2959,1.3794,0.0,0.0,0.0,0.0,0.0,1.6589,1.6428,1.6269,1.7627,1.7866,1.7855,1.8291,1.8282,1.8242,1.8202,1.8202,1.8202,1.8083,1.8384,1.9003,2.0075,2.1503,2.2617,2.2949,2.2942,2.2699,2.2268,2.2964,2.3455,2.3487,2.4163,2.4693,2.4991,2.4914,2.501,2.5385,2.5218,2.5287,2.5641,2.5549,2.5384,2.5147,2.4847,2.438,2.3634,2.3988,2.3989,2.3754,2.38,2.3859,2.3859,0.0,2.3403,2.3283,2.2519,2.2217,2.2141,2.18,2.1385,2.1063,2.1632,2.1182,2.0334,0.0,0.0,0.0,0.0,0.0,0.0,0.0,0.0,0.0,0.0,0.0,0.0,0.0,0.0,0.0,0.0,0.0,0.0,0.0,0.0,1.3841,1.3841,1.3847,1.3618,1.3103,1.3164,1.2931,1.2454,1.2821,1.295,1.2817,1.3488,1.4196,1.4918,1.4996,1.5013,1.5013,1.5043,1.4935,1.4763,0.0,0.0,0.0,0.0,0.0,0.0,0.0,0.0,0.0,0.0,0.0,0.0,0.0,0.0,0.0,1.4527,1.5301,1.6235,1.8078,1.6992,1.5648,1.6937,1.7735,1.824,1.8293,1.8419,1.8478,1.8321,1.84,1.8439,1.8242,1.8686,1.9651,2.1362,2.2676,2.3405,2.322,2.3371,2.3342,2.3146,2.373,2.4238,2.4558,2.4942,2.5216,2.5328,2.5522,2.5481,2.523,2.5674,2.5798,2.5592,2.5798,2.5893,2.5893,2.5563,2.4912,2.3962,2.4765,2.4892,2.4478,2.458,2.458,2.4509,2.4261,2.4092,2.3825,2.2971,2.247,2.222,2.1555,2.1376,2.1356,2.104,2.0891,2.0882,0.0,0.0,0.0,0.0,0.0,0.0,0.0,0.0,0.0,0.0,0.0,0.0,0.0,0.0,0.0,0.0,0.0,0.0,0.0,0.0,1.4,1.4,1.3633,1.3354,1.3103,1.327,1.3149,1.2691,1.2183,1.2303,1.3077,1.3133,1.3828,1.5013,1.5133,1.5133,1.5013,1.5133,1.5102,1.4982,1.4937,0.0,0.0,0.0,0.0,0.0,0.0,0.0,0.0,0.0,0.0,0.0,0.0,0.0,1.4706,1.4762,1.507,1.5587,1.6756,1.6934,1.6777,1.6532,1.6955,1.7437,1.7609,1.811,1.8517,1.8478,1.8478,1.8439,1.8242,1.8686,1.978,2.1829,2.3008,2.4118,2.5444,2.5948,2.6001,2.5342,2.5535,2.5767,2.5943,2.5906,2.5988,2.6351,2.6042,2.5839,2.5839,2.5893,2.5893,2.5839,2.5893,2.5893,2.5893,2.5331,2.5131,2.5369,2.5439,2.5257,2.4948,2.4948,2.4821,2.4509,2.4465,2.3989,2.3237,2.3192,2.2667,2.1965,2.2204,2.245,2.2525,2.1193,2.104,2.1368,0.0,0.0,0.0,0.0,0.0,0.0,0.0,0.0,0.0,0.0,0.0,0.0,0.0,0.0,0.0,0.0,0.0,0.0,0.0,1.4046,1.4065,1.4176,1.3748,1.3495,1.3421,1.2743,1.2196,1.1777,1.1956,1.2625,1.3714,1.3756,1.427,1.5133,1.5208,1.5268,1.5255,1.5299,1.5254,1.5208,1.5208,1.5102,0.0,0.0,0.0,0.0,0.0,0.0,0.0,0.0,1.3408,1.281,1.4548,1.5117,1.5117,1.5102,1.5453,1.6031,1.6862,1.7331,1.7437,1.6909,1.7245,1.77,1.7885,1.7945,1.8054,1.8433,1.8517,1.859,1.8889,2.0089,2.1482,2.2879,2.4355,2.5579,2.6509,2.7049,2.71,2.6563,2.6563,2.6654,2.6707,2.6654,2.6547,2.6258,2.628,2.6087,2.5688,2.5791,2.5725,2.5331,2.5331,2.5331,2.5331,2.4713,2.4675,2.5185,2.5185,2.5009,2.4682,2.5135,2.4927,2.4296,2.466,2.4227,2.3219,2.319,2.2782,2.2113,2.1862,2.1749,2.1645,2.1106,2.072,2.0414,0.0,0.0,0.0,0.0,0.0,0.0,0.0,0.0,0.0,0.0,0.0,0.0,0.0,0.0,0.0,0.0,0.0,0.0,1.4401,1.442,1.442,1.4497,1.4114,1.3783,1.3471,1.2534,1.1865,1.1476,1.195,1.287,1.4141,1.417,1.4573,1.5238,1.5298,1.5344,1.5389,1.5418,1.5403,1.5358,1.5358,1.5284,0.0,0.0,0.0,0.0,0.0,0.0,0.0,0.0,1.3908,1.2796,1.4906,1.5699,1.5817,1.5654,1.6129,1.6833,1.7304,1.7777,1.8038,1.7651,1.7837,1.8173,1.8425,1.8078,1.7908,1.8391,1.8517,1.8661,1.9277,2.0867,2.2466,2.3515,2.5198,2.6535,2.7034,2.7509,2.7625,2.7174,2.7122,2.7174,2.7291,2.7174,2.6996,2.6653,2.6389,2.6035,2.5537,2.5388,2.5121,2.4699,2.4699,2.4699,2.4699,2.4118,2.3969,2.439,2.439,2.4281,2.4106,2.4531,2.445,2.3852,2.4259,2.3919,2.307,2.307,2.2614,2.1816,2.1224,2.097,2.0871,2.0686,2.0285,1.9799,0.0,0.0,0.0,0.0,0.0,0.0,0.0,0.0,0.0,0.0,0.0,0.0,0.0,0.0,0.0,0.0,0.0,0.0,1.4596,1.5043,1.5165,1.4907,1.4717,1.4158,1.3265,1.2829,1.2444,1.2113,1.2188,1.2908,1.4198,1.4198,1.4616,1.5313,1.5374,1.5389,1.5418,1.5477,1.5507,1.5507,1.5507,1.5448,1.5389,0.0,0.0,0.0,0.0,0.0,0.0,0.0,1.555,1.5417,1.6019,1.6632,1.6976,1.6366,1.6996,1.7874,1.7919,1.8302,1.872,1.872,1.8661,1.8715,1.9183,1.8691,1.818,1.8454,1.8531,1.8675,1.9291,2.0769,2.2323,2.3522,2.5438,2.6864,2.707,2.7509,2.7625,2.7174,2.7122,2.7291,2.774,2.7393,2.7291,2.7775,2.6446,2.5611,2.5611,2.4631,2.4103,2.4103,2.4103,2.4103,2.4103,2.3407,2.3083,2.3097,2.3083,2.3109,2.3187,2.3187,2.3239,2.3291,2.3239,2.3077,2.2783,2.2727,2.2051,2.093,2.0407,2.0382,2.0633,2.0022,1.9799,1.9786,0.0,0.0,0.0,0.0,0.0,0.0,0.0,0.0,0.0,0.0,0.0,0.0,0.0,0.0,0.0,0.0,0.0,0.0,1.5225,1.5285,1.5344,1.5448,1.5013,1.4857,1.5096,1.46,1.3705,1.2386,1.3157,1.3804,1.4298,1.4761,1.5094,1.5313,1.5328,1.5125,1.4802,1.5286,1.5285,1.4957,1.5388,1.5551,1.5477,0.0,0.0,0.0,0.0,0.0,0.0,0.0,0.0,0.0,1.6784,1.696,1.7019,1.6557,1.6866,1.7393,1.7669,1.8378,1.9042,1.9042,1.9324,1.9528,1.9324,1.8778,1.8381,1.8608,1.926,1.9837,1.9812,2.1255,2.2774,2.3703,2.5092,2.6393,2.7185,2.7847,2.8152,2.8039,2.8024,2.8088,2.8201,2.8088,2.789,2.7529,2.6998,2.6329,2.5516,2.4956,2.431,2.3554,2.3442,2.3393,2.3393,2.276,2.2676,2.3083,2.2662,2.2595,2.2857,2.3539,2.3599,2.3244,2.3928,2.3652,2.269,2.2437,2.1911,2.1264,2.1137,2.0633,2.0087,2.0358,1.9643,1.8662,0.0,0.0,0.0,0.0,0.0,0.0,0.0,0.0,0.0,0.0,0.0,0.0,0.0,0.0,0.0,0.0,0.0,0.0,0.0,1.5458,1.5499,1.5824,1.5601,1.5541,1.5772,1.5346,1.4638,1.3645,1.424,1.4699,1.5058,1.5474,1.5668,1.5697,1.5726,1.5587,1.5321,1.5758,1.5573,1.508,1.5722,1.5801,1.5533,0.0,0.0,0.0,0.0,0.0,0.0,0.0,0.0,0.0,1.7104,1.7146,1.7136,1.714,1.7502,1.8054,1.8591,1.938,2.003,2.003,2.0293,2.0415,1.9986,1.9406,1.9028,1.9409,2.0023,2.0643,2.1002,2.2217,2.3422,2.4143,2.5272,2.626,2.6934,2.7349,2.7611,2.7611,2.7611,2.7611,2.7611,2.7937,2.7953,2.7551,2.7057,2.6427,2.574,2.4643,2.3721,2.3065,2.2875,2.2732,2.2732,2.2367,2.2367,2.2732,2.2353,2.2286,2.2533,2.2993,2.3049,2.2861,2.3414,2.3086,2.211,2.1928,2.1527,2.0996,2.0671,2.0226,1.9786,1.9682,1.8989,1.814,0.0,0.0,0.0,0.0,0.0,0.0,0.0,0.0,0.0,0.0,1.4255,0.0,0.0,0.0,0.0,0.0,0.0,0.0,0.0,0.0,1.5635,1.6148,1.6371,1.6234,1.574,1.5428,1.5366,1.554,1.5345,1.5577,1.6203,1.6203,1.6231,1.6301,1.6355,1.6405,1.6407,1.6538,1.616,1.5578,1.6312,1.6202,1.5663,1.6292,0.0,0.0,0.0,0.0,0.0,0.0,0.0,0.0,1.7156,1.7297,1.7402,1.8032,1.8653,1.9378,2.0094,2.0742,2.1213,2.1261,2.1246,2.1151,2.0827,2.0273,1.9948,2.0519,2.064,2.1075,2.2299,2.3209,2.3988,2.4549,2.5603,2.6348,2.6287,2.6394,2.6425,2.638,2.6425,2.6425,2.638,2.7191,2.767,2.7625,2.6701,2.6121,2.6136,2.3954,2.274,2.2694,2.2346,2.2114,2.2184,2.2128,2.2128,2.2184,2.2184,2.2156,2.21,2.1921,2.1988,2.2246,2.2134,2.1758,2.1262,2.1189,2.0876,2.0346,1.9592,1.9456,1.9525,1.8545,1.8114,1.8022,0.0,0.0,0.0,0.0,0.0,0.0,0.0,0.0,0.0,0.0,0.0,0.0,0.0,0.0,0.0,0.0,0.0,0.0,0.0,0.0,1.5877,1.6617,1.6847,1.6901,1.6765,1.6719,1.6702,1.674,1.6056,1.5899,1.6203,1.6203,1.6231,1.6301,1.6328,1.6097,1.5757,1.6292,1.617,1.5636,1.6323,1.6502,1.6375,1.6533,1.6712,0.0,0.0,0.0,0.0,0.0,0.0,0.0,1.7792,1.7945,1.8048,1.8762,1.9086,1.9378,2.0094,2.0418,2.0631,2.1022,2.0893,2.0628,2.0441,2.0494,2.0457,2.0076,2.0199,2.057,2.1121,2.2199,2.3156,2.3539,2.4863,2.5796,2.5549,2.6158,2.6543,2.6349,2.666,2.6764,2.6425,2.702,2.7273,2.6938,2.6063,2.5531,2.549,2.3911,2.2979,2.2844,2.1979,2.1738,2.2184,2.1752,2.1752,2.2184,2.1996,2.1666,2.1282,2.1834,2.2041,2.1887,2.1382,2.1108,2.0954,2.0483,2.0089,1.975,1.9431,1.8967,1.8493,1.8662,1.8166,1.746,0.0,0.0,0.0,0.0,0.0,0.0,0.0,0.0,0.0,0.0,0.0,0.0,0.0,0.0,0.0,0.0,0.0,0.0,0.0,0.0,1.5662,1.6818,1.7041,1.7158,1.7183,1.7158,1.7158,1.7183,1.6694,1.6522,1.6623,1.6649,1.6701,1.6795,1.6821,1.669,1.6492,1.6822,1.6589,1.6038,1.6759,1.6815,1.654,1.6896,1.7125,1.7248,1.7199,0.0,0.0,0.0,0.0,0.0,0.0,0.0,1.834,1.9427,1.9548,1.9584,2.0678,2.077,2.073,2.1254,2.1246,2.1023,2.0728,2.0728,2.0712,2.0431,2.0711,2.117,2.1692,2.2202,2.272,2.32,2.4064,2.4735,2.4837,2.5472,2.59,2.5675,2.5858,2.59,2.5706,2.6215,2.6376,2.6004,2.5574,2.5213,2.4967,2.3689,2.2744,2.2395,2.1695,2.133,2.1327,2.1004,2.1004,2.1327,2.1087,2.074,2.0419,2.0889,2.1131,2.1098,2.0637,2.0268,2.002,1.9712,1.9371,1.8993,1.8786,1.8482,1.81,1.8087,1.7708,1.7238,0.0,0.0,0.0,0.0,0.0,0.0,0.0,0.0,0.0,0.0,0.0,0.0,0.0,0.0,0.0,0.0,0.0,0.0,0.0,0.0,0.0,1.6894,1.7117,1.7248,1.7306,1.7248,1.7248,1.7306,1.7183,1.7133,1.7133,1.7174,1.7248,1.7306,1.7371,1.746,1.7515,1.7515,1.715,1.6636,1.7249,1.7133,1.6652,1.7283,1.7515,1.7474,1.746,1.7443,1.7491,1.746,0.0,0.0,0.0,0.0,1.8654,1.9929,2.0013,1.992,2.1019,2.1097,2.095,2.1391,2.1595,2.1554,2.1101,2.0959,2.0958,2.1071,2.1388,2.1821,2.2512,2.2467,2.2474,2.3033,2.3373,2.3732,2.4058,2.4626,2.4875,2.4571,2.465,2.4642,2.4398,2.4961,2.5155,2.4652,2.4658,2.4485,2.4116,2.2965,2.2103,2.1657,2.121,2.0765,2.04,2.0245,2.0288,2.0429,2.0045,1.9716,1.9497,1.9562,1.9749,2.0104,1.9721,1.9317,1.8893,1.8907,1.8671,1.8233,1.803,1.7944,1.7878,1.7382,1.7199,1.7199,0.0,0.0,0.0,0.0,0.0,0.0,0.0,0.0,0.0,0.0,1.4092,1.4224,0.0,0.0,0.0,0.0,0.0,0.0,1.4766,0.0,0.0,1.7158,1.7232,1.7281,1.7306,1.7281,1.7281,1.7306,1.7281,1.7281,1.7281,1.7224,1.7265,1.7387,1.7411,1.746,1.7515,1.7515,1.7448,1.7365,1.7465,1.7448,1.7365,1.7465,1.7515,1.7515,1.7491,1.7491,1.7515,1.7491,1.7443,0.0,0.0,0.0,1.9332,2.0134,2.0368,2.027,1.9904,2.0207,2.0659,2.073,2.1138,2.133,2.0665,2.1005,2.1491,2.1538,2.1231,2.1051,2.144,2.1923,2.234,2.2437,2.3104,2.3541,2.3446,2.3919,2.3968,2.3159,2.3654,2.3591,2.24,2.3313,2.3491,2.2239,2.2393,2.2384,2.2104,2.1223,2.0784,2.0994,2.0145,1.9908,2.04,1.967,1.974,2.0656,1.9684,1.9014,1.8572,1.808,1.8259,1.8986,1.8413,1.8126,1.8031,1.78,1.7677,1.7595,1.74,1.7316,1.7303,1.7225,1.7199,1.7199,0.0,0.0,0.0,0.0,0.0,0.0,0.0,0.0,0.0,0.0,0.0,1.365,0.0,0.0,0.0,1.2794,1.2815,1.329,1.4332,1.5413,1.6226,1.6675,1.7109,1.7371,1.7403,1.7371,1.7371,1.7403,1.733,1.733,1.7403,1.7346,1.7346,1.7411,1.7443,1.7467,1.7515,1.7515,1.7515,1.7515,1.7515,1.7723,1.8021,1.7623,1.7723,1.8021,1.7623,1.7515,1.7515,1.7515,1.7443,1.7576,1.8572,0.0,0.0,0.0,2.0299,2.0144,2.0035,2.0568,2.1126,2.0958,2.1155,2.1166,2.0582,2.0718,2.1121,2.1622,2.1524,2.1386,2.1401,2.1582,2.1811,2.1981,2.2437,2.274,2.2749,2.3085,2.3201,2.2682,2.2736,2.2593,2.201,2.2254,2.2103,2.1315,2.1359,2.1347,2.1178,2.0837,2.0595,2.0571,2.0135,1.9843,1.9746,1.9327,1.9341,1.9627,1.9143,1.8782,1.8567,1.8284,1.8233,1.8303,1.8004,1.7828,1.7652,1.7557,1.7434,1.7323,1.724,1.7199,1.7199,1.7115,1.7157,1.7199,0.0,0.0,0.0,0.0,0.0,0.0,0.0,0.0,0.0,0.0,0.0,0.0,0.0,0.0,0.0,0.0,1.3004,1.3219,1.3956,1.4894,1.5671,1.6275,1.6858,1.7269,1.7569,1.7538,1.7545,1.7652,1.7505,1.7482,1.7569,1.7467,1.7436,1.7419,1.7491,1.7515,1.7515,1.7515,1.7515,1.7498,1.7545,1.7937,1.8468,1.8107,1.8358,1.8826,1.8198,1.793,1.7843,1.7659,1.7498,1.7551,1.8202,1.8759,0.0,0.0,0.0,1.9838,2.0119,2.0621,2.1056,2.0994,2.1003,2.09,2.0555,2.0445,2.0661,2.1511,2.1603,2.1486,2.1351,2.1379,2.1486,2.1643,2.1807,2.1915,2.1926,2.2202,2.2254,2.19,2.1675,2.15,2.122,2.1089,2.0805,2.0321,2.0505,2.0561,2.0306,2.0388,2.0331,2.0068,2.0053,1.978,1.9207,1.9207,1.9072,1.8707,1.8822,1.8877,1.8878,1.8727,1.8467,1.814,1.7976,1.7772,1.7434,1.7434,1.7365,1.7199,1.7199,1.7199,1.7199,1.7073,1.7073,1.7157,0.0,0.0,0.0,0.0,0.0,0.0,0.0,0.0,0.0,0.0,0.0,0.0,1.4005,1.4028,1.3995,1.3956,1.3317,1.3219,1.3956,1.5392,1.6275,1.6308,1.6408,0.0,1.7772,1.7789,1.7866,1.8069,1.7866,1.7789,1.7789,1.7592,1.7474,1.7474,1.7515,1.7515,1.7515,1.7515,1.7515,1.7515,1.7715,1.8064,1.8552,1.9024,1.9532,1.9941,1.9396,1.9093,1.8822,1.8048,1.7646,1.7607,1.8278,1.8475,1.8656,0.0,0.0,0.0,1.9504,1.9578,1.9725,2.0297,2.0422,2.0439,2.0398,2.0326,2.0432,2.125,2.1065,2.0787,2.0827,2.1363,2.1678,2.1388,2.1325,2.123,2.0909,2.1174,2.1029,2.0137,2.0288,2.0097,1.9156,1.9613,1.9609,1.8683,1.943,1.966,1.9027,1.9278,1.9465,1.9472,1.9472,1.9354,1.9207,1.9325,1.9101,1.85,1.8898,1.919,1.9319,1.877,1.8613,1.8725,1.8296,1.7764,1.724,1.724,1.7199,1.7199,1.7199,1.7199,1.7199,1.7199,1.7115,1.7044,0.0,0.0,0.0,0.0,0.0,0.0,0.0,0.0,0.0,0.0,0.0,0.0,0.0,1.4918,1.4914,1.502,1.4685,1.4552,1.4817,1.535,1.5863,1.6342,1.6519,1.6985,1.7794,1.7932,1.8023,1.809,1.8023,1.798,1.798,1.7789,1.7692,1.7692,1.7569,1.7515,1.7515,1.7515,1.7515,1.7572,1.8266,1.8954,1.9563,1.9934,2.0487,2.1,2.0304,1.9694,1.9133,1.8699,1.8251,1.7895,1.7852,1.8268,1.8909,1.984,1.975,1.9473,2.0043,1.9883,1.959,1.9665,1.9757,1.9779,1.9665,1.942,1.9453,2.0161,2.0373,2.0358,2.018,2.0868,2.1224,2.0462,2.0336,2.0289,2.02,1.9728,1.9379,1.9266,1.9199,1.9041,1.8687,1.8871,1.8938,1.8774,1.9051,1.9333,1.9479,1.9588,1.9747,1.999,1.999,1.9904,1.9767,1.969,1.9545,1.9347,1.9472,1.961,1.9709,1.9495,1.9324,1.9086,1.8934,1.8231,1.7199,1.7199,1.7199,1.7199,1.7199,1.7199,1.7199,1.7115,1.7115,1.7115,0.0,0.0,0.0,0.0,0.0,0.0,0.0,0.0,0.0,1.4585,0.0,0.0,0.0,0.0,1.5748,1.5697,1.5758,1.5687,1.5415,1.5587,1.5954,1.648,1.6631,1.7118,1.8023,1.8166,1.8273,1.8373,1.8273,1.8232,1.8232,1.7997,1.7905,1.7888,1.7749,1.7652,1.7616,1.7616,1.7646,1.7788,1.8813,1.9435,1.9901,2.0779,2.1173,2.127,2.119,2.0555,1.9777,1.9665,1.9125,1.8444,1.8114,1.842,1.9002,1.9358,1.9379,1.945,2.0082,1.9926,1.9664,2.0112,1.9998,1.9745,1.9625,1.9121,1.8785,1.9192,1.9367,1.9447,1.9432,2.0083,2.0401,1.9736,1.9829,1.982,1.9371,1.9045,1.8876,1.8893,1.8721,1.8659,1.8774,1.8697,1.876,1.9064,1.9161,1.9369,1.9788,1.9909,2.0065,2.0304,2.027,2.0185,2.01,1.994,1.9884,1.9884,1.9797,1.9945,2.0196,1.9938,1.9734,1.9577,1.9324,1.8641,1.7639,1.7639,1.7639,1.7639,1.7639,1.7639,1.7639,1.7557,1.7516,1.7557,0.0,0.0,0.0,0.0,0.0,0.0,0.0,0.0,1.5387,1.5346,0.0,0.0,0.0,0.0,0.0,1.6006,1.6493,1.6492,1.5702,1.6177,1.6574,1.6733,1.6737,1.7271,1.8475,1.8506,1.8638,1.8896,1.8638,1.8505,1.8505,1.8232,1.8111,1.8111,1.8111,1.8001,1.7833,1.7811,1.791,1.8201,1.9195,1.9464,1.948,2.1529,2.1671,2.093,2.2054,2.174,2.0872,2.0915,2.0215,1.9263,1.9058,1.8965,1.8852,1.8222,1.8606,1.9312,0.0,0.0,0.0,2.1499,2.1097,2.0312,2.0336,1.9435,1.8543,1.8392,1.807,1.7984,1.8564,1.9046,1.9317,1.9302,1.9857,1.9821,1.8549,1.9191,1.9543,1.8945,1.8898,1.9026,1.9376,1.9101,1.9064,1.9376,1.966,1.9788,1.9823,2.0115,2.0304,2.0304,2.0185,2.01,2.01,2.0025,1.999,2.0005,1.9884,2.0143,2.0745,2.001,1.9849,2.0065,1.94,1.8898,1.8539,1.85,1.85,1.85,1.85,1.85,1.85,1.85,1.8422,1.8305,0.0,0.0,0.0,0.0,0.0,1.555,1.5404,1.5391,1.5595,0.0,0.0,0.0,1.7693,1.7876,1.785,1.7527,1.7505,1.7427,1.7202,1.6902,1.6974,1.7538,1.7379,1.7661,1.8475,1.8678,1.8788,1.8842,1.8751,1.8714,1.8714,1.8487,1.8391,1.8395,1.8194,1.8194,1.8371,1.8128,1.8065,1.8201,1.9195,1.9886,2.0499,2.1807,2.2517,2.283,2.3151,2.2726,2.2007,2.183,2.0923,1.9702,1.8672,1.8283,1.8297,1.8683,1.8663,1.8658,1.9381,0.0,0.0,0.0,0.0,0.0,1.943,1.8768,1.8114,1.7458,1.7852,1.8296,1.8346,1.9258,1.9857,1.9379,1.9456,1.9201,1.8137,1.8602,1.8937,1.8563,1.8973,1.9302,1.9376,1.9339,1.9398,1.966,1.9752,1.9909,2.015,2.027,2.0304,2.0304,2.0185,2.015,2.0235,2.0115,2.008,2.008,2.003,2.0081,2.0192,1.9924,1.9831,1.9886,1.9619,1.9457,1.931,1.8731,1.85,1.85,1.85,1.85,1.85,1.85,1.8461,1.8461,0.0,0.0,0.0,0.0,0.0,1.6015,1.6135,1.6447,1.6925,0.0,0.0,0.0,1.8798,1.87,1.8582,1.845,1.8565,1.8629,1.859,1.8487,1.865,1.9169,1.8698,1.8659,1.9197,1.9326,1.9237,1.8878,1.9201,1.9182,1.8824,1.8733,1.8715,1.8698,1.8587,1.868,1.8877,1.8681,1.855,1.8538,1.9729,2.0321,2.0643,2.2206,2.2722,2.2694,2.3378,2.2916,2.2037,2.2571,2.1939,2.0628,1.9129,1.8569,1.8511,1.8608,1.8426,1.8423,1.9453,1.9956,2.023,2.0331,0.0,0.0,1.9579,1.8956,1.8292,1.7049,1.7523,1.8202,1.8315,1.8917,1.9333,1.9028,1.8902,1.8604,1.7887,1.8498,1.8887,1.8614,1.9144,1.9617,1.9762,1.9654,1.9675,1.9995,2.003,2.01,2.0304,2.0304,2.0304,2.0304,2.022,2.022,2.0304,2.022,2.0185,2.0185,2.015,2.008,2.0025,1.9869,1.9797,1.9797,1.9726,1.969,1.9639,1.9184,1.8997,1.8997,1.8997,1.8997,1.8997,1.8997,1.8997,1.8997,0.0,0.0,1.7502,1.7079,1.6973,1.7036,1.7406,1.8004,1.8703,0.0,2.028,2.0486,1.9879,1.9285,1.8949,1.9022,1.9498,1.9788,1.982,2.0402,2.0811,2.0986,2.0218,1.989,2.0192,2.0047,1.9651,1.8984,1.9669,1.9632,1.8932,1.9019,1.9052,1.9052,1.9168,1.9261,1.932,1.932,1.9237,1.9219,2.0491,2.0666,2.0378,2.2553,2.2597,2.1675,2.3135,2.274,2.1675,2.3102,2.287,2.1703,2.0075,1.9512,1.9268,1.8409,1.8297,1.8655,1.9507,2.0324,2.1092,2.1713,2.2084,0.0,2.0416,1.9731,1.8925,1.7311,1.7475,1.8054,1.8509,1.8438,1.8408,1.8669,1.8422,1.8084,1.7785,1.8648,1.9188,1.8887,1.9446,1.998,2.027,2.003,1.998,2.027,2.0304,2.0304,2.0339,2.0373,2.0357,2.0407,2.0357,2.0373,2.0373,2.0304,2.0304,2.0304,2.0185,2.0115,2.0115,1.9904,1.9833,1.9833,1.9762,1.9726,1.9726,1.9726,1.9726,1.9726,1.969,1.969,1.9726,1.969,1.969,1.969,0.0,1.7811,1.7888,1.7795,1.744,1.76,1.8918,1.8768,1.8964,2.0289,2.0688,2.0598,1.9879,1.9786,1.9755,1.9774,1.9743,1.9976,2.0619,2.0849,2.098,2.1064,2.0511,2.0192,2.0192,1.9542,1.911,1.8913,1.9232,1.9299,1.9135,1.9277,1.9335,1.9398,1.9365,1.9409,1.9462,1.939,1.9748,2.0375,2.0494,2.0735,2.1161,2.2213,2.2837,2.3177,2.35,2.3436,2.3156,2.2772,2.2406,2.19,2.0842,2.0451,2.0176,1.9369,1.9643,2.0018,1.9096,1.9939,2.1057,2.1114,2.1083,0.0,2.1229,2.0535,1.9747,1.9343,1.9227,1.9203,1.9146,1.9079,1.9244,1.9916,1.8986,1.798,1.7393,1.8453,1.9269,1.9221,1.9786,2.022,2.0304,2.0235,2.022,2.0304,2.0304,2.0407,2.0695,2.0695,2.0811,2.1087,2.0844,2.0695,2.0695,2.0426,2.0304,2.0304,2.027,2.027,2.027,2.0115,2.0045,2.0045,1.9955,1.9919,1.9919,1.9797,1.9762,1.9762,1.9726,1.9726,1.9762,1.9726,1.969,1.969,1.7827,1.7932,1.8078,1.8307,1.8153,1.8446,1.975,1.9948,2.0358,2.1536,2.1718,2.1616,2.1279,2.0888,2.0656,2.0712,2.0974,2.1327,2.1721,2.2153,2.2249,2.1913,2.1219,2.0699,2.0352,1.9934,1.9565,1.9206,1.9659,1.9709,1.9357,1.9456,1.9513,1.9541,1.9569,1.9636,1.9713,1.9662,1.9886,2.0335,2.0841,2.1514,2.2264,2.2948,2.3513,2.3939,2.3873,2.3828,2.3587,2.2213,2.1964,2.2074,2.1106,2.0815,2.0745,2.0332,2.029,2.0276,1.9611,2.0025,2.0594,2.0398,2.0855,0.0,0.0,2.0855,2.0577,2.0027,2.009,2.0206,2.0036,1.9925,2.0,2.0463,1.9569,1.8676,1.8286,1.8682,1.9076,1.9288,1.9888,2.0304,2.0304,2.0304,2.0373,2.0543,2.0561,2.0695,2.1039,2.1071,2.1119,2.1291,2.115,2.1071,2.1071,2.0728,2.0561,2.0561,2.0373,2.0304,2.0304,2.015,2.01,2.0115,2.0025,2.0005,2.0005,1.9848,1.9848,1.9884,1.9797,1.9762,1.9762,1.9762,1.9726,1.9711,1.8001,1.809,1.8273,1.8659,1.8788,1.9237,2.0373,2.1042,2.1781,2.2779,2.2849,2.2775,2.2707,2.185,2.1306,2.1363,2.1796,2.2249,2.2556,2.3187,2.3298,2.2707,2.2016,2.1297,2.0521,2.0503,2.0175,1.9499,2.0121,2.0107,1.9541,1.9623,1.9681,1.9662,1.9619,1.9698,1.9908,1.9738,1.9945,2.0488,2.1417,2.214,2.273,2.3491,2.3878,2.4026,2.4079,2.3996,2.3599,2.1949,2.1852,2.2225,2.121,2.1093,2.1307,2.0921,2.07,2.0514,2.0156,2.0246,2.0407,2.018,2.1001,2.1741,0.0,0.0,0.0,2.0721,2.0849,2.1092,2.0985,2.0705,2.055,2.0642,2.0067,1.959,1.9613,1.9362,1.924,1.9525,2.0066,2.0454,2.0593,2.0662,2.0736,2.0794,2.1004,2.1215,2.1401,2.1401,2.1432,2.1493,2.1432,2.1401,2.1401,2.1055,2.0844,2.0794,2.0527,2.0373,2.0304,2.0185,2.015,2.015,2.0061,2.0076,2.0041,1.9884,1.9884,2.0005,1.9848,1.9762,1.9726,1.9833,1.9818,1.9854,1.809,1.843,1.8732,1.8788,1.8949,1.9595,2.1133,2.1422,2.2001,2.3487,2.3663,2.3407,2.27,2.183,2.1267,2.1225,2.0653,2.0924,2.2404,2.2584,2.2661,2.2689,2.2598,2.1916,2.0539,2.0503,2.0175,1.9499,1.9699,1.977,1.9676,1.9866,1.996,1.9922,1.9166,1.9252,1.9945,1.9157,2.0134,2.2217,2.2216,2.1761,2.1198,2.2535,2.3033,2.3125,2.378,2.3896,2.3587,2.2705,2.2425,2.226,2.1414,2.1688,2.2055,2.0543,2.1159,2.185,1.9723,2.0228,2.135,2.1313,2.1401,2.1812,2.3124,0.0,2.2291,2.2882,0.0,2.1866,2.1843,0.0,0.0,2.061,2.0422,2.0398,2.0773,2.0776,2.0689,2.0573,2.0681,2.098,2.1579,2.1967,2.1794,2.0941,2.1697,2.2117,2.1844,2.1781,2.1886,2.218,2.1886,2.1751,2.1751,2.1401,2.1087,2.0794,2.0761,2.0595,2.0304,2.027,2.027,2.027,2.027,2.027,2.0235,2.0076,2.0005,1.997,1.9797,1.9726,1.9833,2.005,2.0139,2.0208,1.8682,1.9032,1.9541,1.9651,2.012,2.0717,2.1405,2.1912,2.2582,2.365,2.3792,2.3684,2.3319,2.2976,2.2738,2.2715,2.2012,2.205,2.3172,2.2847,2.265,2.2689,2.2709,2.2281,2.1382,2.0883,2.0577,2.0483,2.008,1.9877,1.9877,1.9971,2.0026,2.0058,2.0153,2.0431,2.0814,2.0958,2.1645,2.2609,2.2513,2.2223,2.2004,2.3419,2.3923,2.3929,2.4191,2.4192,2.3909,2.2988,2.2309,2.1908,2.1952,2.1572,2.1159,2.143,2.138,2.1004,2.0029,2.0264,2.0807,2.0807,2.1457,2.2267,2.2953,2.3102,2.3155,2.3405,0.0,0.0,0.0,0.0,0.0,0.0,2.192,2.1694,2.143,2.1676,2.1843,2.181,2.1697,2.1725,2.1995,2.1908,2.1743,2.1509,2.1864,2.2112,2.2123,2.2106,2.2152,2.2282,2.2152,2.2077,2.2077,2.1751,2.1509,2.1386,2.1182,2.0909,2.0595,2.0595,2.046,2.0304,2.0304,2.0304,2.027,2.0061,2.0005,1.999,1.9995,2.0015,2.005,2.0258,2.0395,2.0613,1.9738,2.0009,2.046,2.0608,2.1115,2.1568,2.1803,2.251,2.3218,2.3806,2.3837,2.3819,2.3921,2.3699,2.3571,2.3593,2.2919,2.2792,2.3558,2.3102,2.2811,2.2848,2.3049,2.2813,2.207,2.1645,2.1494,2.1566,2.0763,2.0345,2.0316,2.012,2.0048,2.0127,2.0728,2.1148,2.1444,2.2085,2.2642,2.3055,2.3005,2.3127,2.3381,2.411,2.4473,2.4631,2.453,2.4445,2.4192,2.318,2.2447,2.199,2.2244,2.1697,2.1134,2.2116,2.1753,2.0933,2.0479,2.0516,2.0662,2.0644,2.1638,2.2684,2.2883,2.3166,2.3426,2.3553,2.3338,0.0,0.0,0.0,2.3098,2.2887,0.0,2.2615,2.1875,2.228,2.2613,2.2491,2.2457,2.2346,2.2037,2.2015,2.198,2.1928,2.2199,2.2348,2.231,2.2338,2.231,2.231,2.231,2.231,2.231,2.2049,2.1886,2.1797,2.1554,2.1245,2.0942,2.0942,2.0811,2.0579,2.0579,2.0561,2.0527,2.0357,2.0254,2.0254,2.0326,2.0429,2.0514,2.0613,2.0778,2.099,2.1387,2.1424,2.144,2.1459,2.1477,2.1767,2.2546,2.3288,2.3842,2.4059,2.3919,2.3921,2.4265,2.3474,2.2978,2.3101,2.2395,2.2263,2.3058,2.3095,2.3128,2.318,2.3925,2.3657,2.2229,2.2928,2.3037,2.2457,2.1658,2.124,2.1149,2.0421,2.0098,2.0098,2.02,2.0658,2.1414,2.1501,2.2466,2.3956,2.3956,2.4426,2.5007,2.3949,2.4016,2.4676,2.4549,2.4498,2.4364,2.3477,2.313,2.2912,2.2147,2.2458,2.2957,2.2145,2.2476,2.272,2.0984,2.1066,2.1604,2.1497,2.2093,2.287,2.3596,2.3193,2.2842,2.362,2.3063,2.2672,2.3441,2.3424,2.3059,2.2339,2.2717,0.0,0.0,2.2621,2.2833,2.2169,2.2752,2.2709,2.1622,2.2757,2.3107,2.2077,2.2977,2.321,2.2456,2.2394,2.2366,2.231,2.231,2.231,2.231,2.2282,2.2123,2.1797,2.1797,2.1601,2.1276,2.1276,2.1276,2.1276,2.1276,2.1245,2.1166,2.1007,2.0942,2.0861,2.0778,2.099,2.1277,2.1277,2.1277,2.134,2.2878,2.2958,2.2872,2.2383,2.2709,2.3107,2.3397,2.33,2.3417,2.4024,2.4155,2.4247,2.4336,2.4078,2.3913,2.3946,2.3219,2.3089,2.3906,2.3459,2.3403,2.396,2.4258,2.4232,2.3863,2.3566,2.3376,2.3291,2.2488,2.2106,2.2117,2.1863,2.1819,2.1979,2.252,2.2989,2.3353,2.3908,2.4474,2.4985,2.4888,2.4995,2.5163,2.4774,2.474,2.4898,2.4842,2.4753,2.4572,2.4228,2.3764,2.3319,2.3512,2.3031,2.2449,2.2694,2.2582,2.2266,0.0,2.1943,2.23,2.177,2.2533,2.3373,2.3123,2.3231,2.3467,2.3738,2.3548,2.3394,2.3602,2.3567,2.3405,2.3115,2.3153,2.3153,0.0,2.3082,2.3126,2.2807,2.2858,2.2925,2.289,2.2466,2.2268,2.2381,2.2275,2.2285,2.2443,2.1912,2.1851,2.2349,2.2338,2.231,2.231,2.231,2.2237,2.2123,2.2123,2.1961,2.1631,2.1631,2.1493,2.1308,2.1245,2.123,2.1198,2.1023,2.0926,2.0926,2.1087,2.1183,2.1309,2.1309,2.1433,2.1631,2.3753,2.3795,2.3692,2.32,2.3508,2.3816,2.3899,2.3581,2.3566,2.4228,2.4355,2.4441,2.4591,2.4543,2.4543,2.4626,2.4136,2.4061,2.4588,2.4136,2.4061,2.4588,2.4607,2.4673,2.4798,2.4256,2.403,2.4163,2.3354,2.3008,2.307,2.2786,2.2744,2.2946,2.3793,2.4212,2.4344,2.5187,2.5518,2.5492,2.541,2.534,2.5313,2.5313,2.5212,2.5063,2.5032,2.4921,2.4842,2.4768,2.44,2.4043,2.4473,2.3911,2.3176,2.3701,2.3476,2.2993,2.263,2.2789,0.0,2.2278,2.2775,2.3383,2.3143,2.3231,2.3449,2.3741,2.3572,2.3458,2.3689,2.3678,2.3629,2.3585,2.3494,2.3383,0.0,2.336,2.3336,2.3265,2.3095,2.3067,2.3323,2.2289,2.1893,2.2554,2.1945,2.1807,2.248,2.1983,2.1905,2.2405,2.2366,2.2338,2.231,2.231,2.231,2.231,2.231,2.218,2.1991,2.1991,2.1857,2.1661,2.1601,2.1587,2.1556,2.137,2.126,2.1276,2.1417,2.1495,2.1509,2.1495,2.1648,2.184,2.4016,2.3958,2.3917,2.3917,2.3837,2.3878,2.4078,2.4116,2.4266,2.4642,2.4543,2.4575,2.495,2.4832,2.4783,2.4977,2.501,2.501,2.501,2.501,2.501,2.501,2.501,2.501,2.501,2.501,2.501,2.501,2.4239,2.3904,2.3945,2.3262,2.2963,2.3069,2.3971,2.437,2.4427,2.525,2.5554,2.5492,2.5507,2.5511,2.5511,2.5511,2.5369,2.5212,2.5068,2.505,2.5082,2.5019,2.4999,2.4991,2.501,2.4996,2.4996,2.4996,2.4996,2.478,2.3837,2.3554,2.3461,2.303,2.2868,0.0,2.3601,2.3193,2.2862,2.365,2.3193,2.2898,2.366,2.3743,2.37,2.37,2.3652,2.3585,2.3517,2.3494,2.3494,2.3494,2.3401,2.3199,2.2892,2.2188,2.1975,2.2502,2.1953,2.1859,2.248,2.2517,2.249,2.2405,2.2405,2.2366,2.231,2.231,2.231,2.231,2.231,2.231,2.231,2.231,2.231,2.231,2.2282,2.2254,2.2185,2.2044,2.1969,2.1899,2.184,2.184,2.1899,2.184,2.184,2.1928,2.4151,2.4153,2.4191,2.4135,2.3939,2.3878,2.4078,2.4229,2.4407,2.4676,2.4802,2.4875,2.4996,2.495,2.4936,2.4996,2.501,2.501,2.501,2.501,2.501,2.501,2.501,2.501,2.501,2.501,2.4991,2.4999,2.4827,2.4826,2.4937,2.4803,2.4794,2.4924,2.5153,2.5284,2.5351,2.5537,2.5554,2.5492,2.5507,2.5511,2.5484,2.5437,2.5421,2.5415,2.5274,2.5203,2.5168,2.5094,2.5076,2.5082,2.5023,2.4917,2.4856,2.4964,2.4936,2.4818,2.4657,2.4433,2.4062,2.3245,2.329,2.342,0.0,0.0,2.3491,2.3738,2.3627,2.3569,2.3768,2.3783,2.3761,2.37,2.3652,2.3585,2.3562,2.3539,2.3494,2.3494,2.3471,2.3124,2.2306,2.1441,2.116,2.1807,2.1686,2.191,2.2624,2.2091,2.2013,2.2535,2.246,2.2377,2.2377,2.2338,2.231,2.231,2.231,2.231,2.231,2.231,2.231,2.2282,2.2242,2.2214,2.2185,2.2003,2.194,2.1969,2.1899,2.1928,2.1969,2.1969,2.2032,2.214,2.4151,2.4209,2.4229,2.421,2.4135,2.4136,2.4338,2.4459,2.4591,2.4798,2.4936,2.501,2.501,2.501,2.501,2.501,2.501,2.501,2.501,2.501,2.501,2.501,2.501,2.501,2.501,2.501,2.5012,2.5043,2.5107,2.5235,2.5387,2.542,2.5523,2.5643,2.5643,2.5667,2.5699,2.5632,2.5576,2.5546,2.5518,2.551,0.0,2.5456,2.5476,2.5484,2.5412,2.5331,2.5244,2.5192,2.5168,2.5141,2.5063,2.4972,2.4898,2.4903,2.4827,2.4783,2.4846,2.4723,2.4449,2.3814,2.3842,2.3871,2.3291,2.3503,2.3789,0.0,2.381,2.3789,2.3789,2.3789,2.3789,2.3743,2.3718,2.3674,2.3652,2.3585,2.3539,2.3539,2.2892,2.222,2.1617,2.1341,2.1324,2.1614,2.1665,2.1969,2.2677,2.2315,2.2255,2.2605,2.2542,2.2487,2.2432,2.2394,2.2338,2.2338,2.231,2.2366,2.246,2.2349,2.2349,2.246,2.231,2.2225,2.2225,2.2094,2.2032,2.2089,2.2049,2.2032,2.2089,2.2118,2.2163,2.2168,2.4152,2.4192,2.4266,2.4284,2.4391,2.4543,2.4723,2.4723,2.4768,2.4964,2.501,2.501,2.501,2.501,2.501,2.501,2.501,2.501,2.501,2.501,2.501,2.501,2.501,2.4991,2.5004,2.5004,2.5057,2.5133,2.5194,2.532,2.5505,2.5523,2.5581,2.5699,2.5699,2.5703,2.5707,2.5636,2.5603,2.5584,2.5532,2.5505,2.5515,2.5519,2.5511,2.5511,2.5503,2.5432,2.533,2.5302,2.5255,2.5192,2.513,2.5076,2.4993,2.4865,2.4779,2.4723,2.4719,2.4707,2.4626,2.4424,2.4355,2.4211,2.3979,2.3896,2.3855,2.3828,2.381,2.3774,2.3795,2.3795,2.3813,2.3807,2.3804,2.3783,2.37,2.3652,2.3549,2.3441,2.2128,0.0,2.0898,2.1388,2.1616,2.1422,2.1649,2.2017,2.2539,2.279,2.2816,2.2605,2.2605,2.2569,2.2515,2.2432,2.2405,2.2405,2.2338,2.2405,2.2632,2.2422,2.2432,2.2632,2.2405,2.231,2.2282,2.2242,2.2214,2.2214,2.2214,2.2197,2.2214,2.2282,2.2225,2.2094,2.432,2.4459,2.4556,2.4685,2.4823,2.4912,2.495,2.4817,2.4768,2.4964,2.501,2.501,2.501,2.501,2.501,2.501,2.501,2.501,2.501,2.501,2.501,2.501,2.501,2.5018,2.5076,2.5076,2.5134,2.5255,2.5335,2.5413,2.5498,2.561,2.5671,2.5699,2.5699,2.5694,2.5693,2.5622,2.5605,2.5603,2.5598,2.5586,2.5585,2.5568,2.5588,2.5588,2.5517,2.5479,2.5448,2.5339,2.5293,2.5284,2.519,2.5149,2.5069,2.5056,2.491,2.479,2.4847,2.4749,2.458,2.4372,2.4265,2.4192,2.4075,2.3896,2.3774,2.3935,2.3831,2.3725,2.3795,2.3795,2.3795,2.3813,2.3789,2.3783,2.37,2.3652,2.3334,2.2611,2.2271,2.159,2.0303,2.0182,2.0107,1.9896,2.1132,2.1854,2.1798,2.2513,2.2842,0.0,2.2632,2.2579,0.0,0.0,2.2405,2.2405,2.2338,2.2338,2.2366,2.231,2.2338,2.2366,2.231,2.231,2.2282,2.2242,2.2214,2.2214,2.2254,2.2282,2.2282,2.2282,2.2049,2.1705,2.451,2.4654,2.4896,2.5393,2.521,2.5132,2.556,2.5187,2.4875,2.4996,2.501,2.501,2.501,2.501,2.501,2.501,2.501,2.501,2.501,2.501,2.501,2.501,2.501,2.5025,2.5103,2.5106,2.5212,2.5403,2.5398,2.5473,2.5605,2.5667,2.5699,2.5699,2.5699,2.5704,2.5693,2.5675,2.5641,2.5644,2.5646,2.5642,2.5644,2.5609,2.5601,2.5601,2.555,2.555,2.5542,2.544,2.5404,2.5387,2.5293,2.5209,2.5134,2.5068,2.4949,2.4861,2.4888,2.4779,2.4629,2.4491,2.4409,2.4303,2.4135,2.4057,2.3979,2.3917,2.3855,2.3852,2.3795,2.3792,0.0,2.3795,2.3768,2.3743,2.3743,2.3674,2.3441,2.3008,2.2575,2.1839,2.068,2.0156,1.9982,2.0158,2.1248,2.1982,2.216,2.2634,2.2842,0.0,0.0,0.0,2.2487,0.0,2.2248,2.1986,2.2073,2.2175,2.226,2.2293,2.2394,2.2487,2.2163,2.2049,2.202,2.1827,2.1738,2.1738,2.1768,2.1781,2.1781,2.1781,2.1645,2.1446,2.5166,2.5326,2.5584,2.6061,2.566,2.543,2.5877,2.5422,2.5023,2.501,2.501,2.501,2.501,2.501,2.501,2.501,2.501,2.501,2.501,2.501,2.501,2.501,2.501,2.5032,2.5133,2.5134,2.5254,2.5517,2.5467,2.5523,2.5699,2.5699,2.5699,2.5699,2.5707,2.5696,2.57,2.5701,2.5703,2.5709,2.5703,2.5697,2.5685,2.5632,2.5616,2.5621,2.5621,2.5613,2.5615,2.5536,2.5503,2.5476,2.5379,2.5303,2.5233,2.5103,2.5006,2.4936,2.4936,2.4847,2.4734,2.4689,2.4578,2.4462,2.4266,2.4229,2.4192,2.3939,2.3958,2.3955,2.3834,2.3789,0.0,2.3792,2.3725,2.37,2.3761,2.353,2.3334,2.3334,2.2414,2.1607,2.1144,2.0287,2.0065,2.0793,2.1369,2.1873,2.2271,2.2677,0.0,0.0,2.2712,2.2605,2.2405,0.0,2.2073,2.1582,2.1807,2.1982,2.2124,2.2089,2.2248,2.248,2.1928,2.1691,2.1661,2.1401,2.1308,2.1308,2.1308,2.1308,2.1308,2.1308,2.1245,2.115,2.6837,2.704,2.6976,2.637,2.6222,2.5931,2.5221,2.5095,2.5076,2.501,2.501,2.501,2.501,2.501,2.501,2.501,2.501,2.501,2.501,2.501,2.501,2.501,2.501,2.5088,2.5274,2.5222,2.532,2.5586,2.5574,2.5629,2.5699,2.5699,2.5699,2.5699,2.5707,2.5707,0.0,2.5703,2.5699,2.5707,2.5691,2.5697,2.5702,2.5683,2.5689,2.5699,2.5699,2.569,2.5677,2.5615,2.5554,2.5503,2.549,2.5444,2.5369,2.5284,2.5171,2.5072,2.5072,2.4975,2.4874,2.4865,2.4734,2.4575,2.4559,2.4319,2.4135,2.4229,2.4114,2.3955,2.3828,2.3804,2.3783,0.0,2.37,2.3678,2.3629,2.2962,2.2497,2.2432,2.1108,2.0448,2.1036,1.977,1.9498,2.0866,2.1043,2.1053,2.0973,0.0,0.0,2.2893,2.2764,2.2605,2.2405,2.2332,2.2073,2.1582,2.1568,2.1645,2.184,2.1524,2.1554,2.1869,2.1493,2.137,2.1339,2.1291,2.1308,2.1308,2.1308,2.1308,2.1308,2.1308,2.1039,2.0697,2.6645,2.7172,2.7475,2.7132,2.6643,2.6363,2.6521,2.5703,2.5025,2.4999,2.4999,2.5004,2.501,2.501,2.501,2.501,2.501,2.501,2.501,2.501,2.501,2.501,2.5004,2.5087,2.5293,2.5265,2.5387,2.5667,2.5625,2.563,2.5699,2.5667,2.5632,2.5632,0.0,2.5699,2.5703,2.5703,2.5699,2.5707,2.5707,2.5709,2.5694,2.5703,2.5702,2.5693,2.5693,2.5703,2.5701,2.5678,2.5617,2.5565,2.557,2.5507,2.5448,2.538,2.5302,2.5222,2.5222,2.5126,2.5,2.4975,2.4869,2.476,2.4639,2.4526,2.4408,2.4266,2.4057,2.3876,2.3873,2.3765,2.3696,2.37,2.3634,2.3567,2.3585,2.3276,2.3057,2.3017,2.2482,2.2036,2.1839,2.0822,2.0428,2.1028,2.1018,2.1145,2.1434,0.0,0.0,2.302,0.0,2.2561,2.2298,2.2073,2.1705,2.1119,2.1166,2.1214,2.1198,2.1276,2.1276,2.1198,2.1071,2.0877,2.0712,2.0712,2.0712,2.0712,2.0712,2.0712,2.0712,2.0712,2.0579,2.0426,2.7037,2.7782,2.8305,2.8011,2.7241,2.6809,2.7189,2.5983,2.5019,2.5019,2.5006,2.4999,2.501,2.501,2.501,2.501,2.501,2.501,2.501,2.501,2.501,2.5004,2.5019,2.5118,2.5337,2.5318,2.5459,2.5699,2.563,2.563,2.5671,2.5624,0.0,0.0,2.5676,2.5703,2.5702,2.5702,2.5699,2.5707,2.5707,2.5707,2.5709,2.5699,2.5703,2.5703,2.5703,2.5703,2.5703,2.5709,2.5676,2.5623,2.561,2.5576,2.551,2.5425,2.537,2.5322,2.5313,2.5233,2.5149,2.5107,2.5012,2.4888,2.47,2.4673,2.4596,2.4284,2.4057,2.3896,2.3876,2.3682,2.3562,2.3634,2.3499,2.3424,2.3562,2.328,2.3204,2.3458,2.3066,2.2767,2.266,2.1714,2.1197,2.1429,2.1419,2.1582,2.1988,0.0,0.0,0.0,0.0,0.0,2.2153,2.1911,2.1479,2.0794,2.0828,2.0828,2.0794,2.1039,2.0974,2.0662,2.0662,2.0527,2.0304,2.0304,2.0304,2.0304,2.0304,2.0304,2.0304,2.0304,2.027,2.027,2.8569,2.9376,2.9808,2.8941,2.8131,2.7306,2.6537,2.5666,2.5101,2.5101,2.5032,2.4999,2.501,2.501,2.501,2.501,2.501,2.501,2.501,2.501,2.5004,2.4993,2.5061,2.5186,2.5401,2.541,2.5511,2.5699,2.5629,2.5599,2.5591,0.0,2.5642,2.5703,2.5702,2.5703,2.5702,2.5702,2.5699,2.5707,2.5707,2.5707,2.5707,2.5707,2.5698,2.5703,2.5703,2.5703,2.5703,2.5703,2.57,2.5687,2.5629,2.559,2.5568,2.5437,2.5406,2.5371,2.5313,2.5303,2.5303,2.5292,2.5153,2.4968,2.4832,2.4689,2.453,2.4339,2.419,2.4054,2.3837,2.3576,2.3407,2.3494,0.0,2.3193,2.3453,2.2691,2.2455,2.3387,2.2107,2.175,2.3315,2.2054,2.1429,2.2214,2.2268,2.2285,2.2285,0.0,0.0,2.3095,2.297,0.0,2.2027,2.1869,2.1479,2.0794,2.0595,2.0628,2.0794,2.0794,2.0628,2.0304,2.0304,2.0304,2.0304,2.0304,2.0304,2.0304,2.0304,2.0304,2.0304,2.0304,2.022,2.0115,2.7094,2.784,2.8382,2.8114,2.7796,2.7719,2.8038,2.6899,2.599,2.599,2.5457,2.5057,2.4999,2.5004,2.501,2.501,2.501,2.501,2.501,2.501,2.5025,2.5072,2.513,2.5265,2.5459,2.5467,2.554,2.5699,2.563,2.5604,0.0,2.5593,2.5619,2.5621,2.5629,2.5637,2.5632,2.5632,2.5659,2.5707,2.5707,2.5707,2.5707,2.5707,2.5691,2.5697,2.5703,2.5703,2.5703,2.5703,2.5702,2.5697,2.5677,2.5646,2.5597,2.5556,2.5492,2.5453,2.539,2.5365,2.5348,2.5313,2.5243,2.516,2.5043,2.4832,2.4613,2.4464,2.4228,2.3996,2.3816,2.3531,2.3313,2.3241,2.3168,2.3144,2.3217,2.2964,2.2893,2.3182,2.2776,2.2653,2.3188,2.2357,2.2118,2.2916,2.3079,2.2874,0.0,0.0,0.0,0.0,2.302,0.0,2.2136,2.1794,2.1324,2.0794,2.0494,2.0289,2.012,2.012,1.996,1.9705,1.9889,1.9945,1.998,2.022,2.0185,1.9945,1.9945,1.9767,1.9457,1.9457,1.953,1.9624,2.7281,2.8045,2.8637,2.8637,2.8338,2.8172,2.8414,2.7275,2.6289,2.5996,2.5431,2.507,2.5051,2.5018,2.501,2.501,2.501,2.501,2.501,2.4991,2.5038,2.5091,2.5214,2.5339,2.5466,2.5549,0.0,2.5699,2.563,2.5604,2.5607,2.5597,2.5604,2.5598,2.5593,2.5593,2.5556,2.5556,2.5601,2.5654,2.5668,2.5676,2.5707,2.5707,2.5707,2.5709,2.5702,2.5703,2.5703,2.5703,2.5702,2.5697,2.5697,2.5673,2.5622,2.5601,2.5571,2.5515,2.5425,2.5387,2.539,2.5322,2.5283,2.5203,2.5024,2.4804,2.4596,2.4481,2.4191,2.3917,2.3795,2.3463,2.3193,2.3102,2.302,2.2977,2.3095,2.307,2.3028,2.3077,2.3095,2.3095,2.3095,2.2687,2.2647,2.3253,2.3336,2.317,0.0,0.0,2.3589,2.3259,2.3003,2.2651,2.2124,2.1718,2.1276,2.0794,2.0392,2.015,1.998,1.9945,1.9854,1.9741,1.9925,1.998,1.9995,2.022,2.008,1.9696,1.9696,1.9406,1.8959,1.8959,1.9109,1.9332,2.8586,2.944,3.0032,3.0089,2.9402,2.8567,2.7892,2.6988,2.6129,2.5382,2.5126,2.5038,2.5101,2.5044,2.501,2.501,2.501,2.501,2.501,2.4999,2.5038,2.5095,2.5284,2.541,2.5414,2.559,2.5695,2.5695,2.5624,2.5599,2.56,2.5597,2.5605,2.5591,2.5589,2.5571,2.5498,2.5498,2.5532,2.5598,2.5604,2.5632,2.5685,2.5707,2.5707,2.5691,2.5702,2.5703,2.5703,2.5703,2.5699,2.5707,2.5707,2.5707,2.5683,2.5636,2.5601,2.5561,2.5439,2.5395,2.5382,2.5322,2.5252,2.5138,2.4888,2.467,2.4495,2.4429,2.4153,2.3876,2.3714,2.3353,2.3095,2.3095,2.2868,2.279,2.3045,2.2952,2.2944,2.3045,2.3052,0.0,2.3028,2.2944,2.2995,2.3199,2.3179,2.3245,0.0,0.0,2.4028,2.3137,2.297,2.2598,2.1998,2.1628,2.1245,2.0761,2.0308,2.015,2.027,2.015,2.015,2.0235,2.027,2.027,2.027,2.027,1.9975,1.953,1.9479,1.9132,1.8664,1.8612,1.8855,1.9169,2.709,2.7682,2.8485,2.9102,2.8542,2.8141,2.8548,2.7345,2.6326,2.6135,2.5501,2.507,2.5114,2.5025,2.4985,2.501,2.5004,2.4999,2.4999,2.5057,2.512,2.5168,2.5274,2.5363,2.5479,2.5565,2.5625,2.5624,2.5564,2.5543,2.56,2.5597,2.5565,2.5525,2.5529,2.5486,2.5418,2.5418,2.5493,2.56,2.5591,2.5601,2.5629,2.5683,2.5696,2.5703,2.5703,2.5702,2.5694,2.5694,2.5691,2.5707,2.5707,2.5707,2.5705,2.5681,2.5642,2.5589,2.5498,2.5439,2.539,2.5322,2.5302,2.522,2.5069,2.4861,2.47,2.4594,2.4284,2.3937,2.361,2.3335,2.3084,2.2842,2.2712,2.2659,2.279,2.2764,2.2712,2.2579,2.2712,2.2668,2.2309,2.25,2.2634,0.0,2.3177,2.3361,2.2902,2.3411,2.3534,2.3112,2.2825,2.2409,2.184,2.1399,2.0894,2.0289,2.0254,2.0115,1.9833,1.9874,1.9782,1.9632,1.9854,1.9909,1.9945,2.0065,1.996,1.9603,1.9207,1.8769,1.8293,1.7908,1.8173,1.8693,2.7568,2.8236,2.8981,2.9421,2.8809,2.8421,2.8925,2.7854,2.6866,2.6535,2.6008,2.5501,2.5133,2.5038,2.5012,2.505,2.5044,2.5025,2.4993,2.5057,2.512,2.5141,2.5244,2.5346,2.5444,2.5554,2.5595,2.5601,2.556,2.5552,2.5605,2.5601,2.5582,2.5529,2.5504,2.5467,2.5406,2.5365,2.5434,2.5557,2.5557,2.5576,2.56,2.564,2.5664,2.5703,2.5703,2.57,2.5694,2.5709,2.5707,2.5707,2.5703,2.5705,2.5707,2.5705,2.5676,2.5616,2.554,2.5473,2.5418,2.5293,2.5241,2.5225,2.5069,2.4893,2.4719,2.4575,2.4248,2.3896,2.3482,2.3289,2.3077,2.2712,2.2659,2.2659,2.2685,2.2659,2.2579,2.2405,2.2525,2.2453,2.2056,2.2198,2.2309,2.2275,2.2666,0.0,2.2581,2.2794,2.2856,2.2756,2.2473,2.2113,2.1631,2.1103,2.063,2.0185,2.0185,2.0115,1.9975,1.996,1.9889,1.9812,1.9975,1.998,1.9945,2.0065,1.9732,1.9161,1.8884,1.8344,1.7693,1.7447,1.7679,1.8187,2.8758,2.9402,2.9912,3.0174,2.9276,2.8664,2.9033,2.8203,2.7285,2.6649,2.6407,2.599,2.5196,2.5063,2.5038,2.5101,2.5101,2.507,2.5025,2.507,2.5101,2.5089,2.5192,2.5321,2.5374,2.5537,2.5595,2.5607,2.5609,2.56,2.5595,2.56,2.56,2.5598,2.5526,2.5467,2.5406,2.534,2.5378,2.548,2.5498,2.5538,2.5593,2.5613,2.5632,2.5683,2.5699,2.5697,2.5696,2.5707,2.5705,2.5703,2.5696,2.5701,2.5705,2.5696,2.5676,2.5668,2.5535,2.5473,2.5406,2.5235,2.5198,2.518,2.5063,2.487,2.4657,2.4526,2.4211,2.3795,2.3387,2.3236,2.3087,2.2814,2.2701,2.272,2.284,0.0,2.2569,2.2405,2.246,2.236,2.1998,2.1969,2.201,2.2079,2.1982,2.201,2.2275,2.2136,2.2079,2.2136,2.1982,2.1705,2.1261,2.0745,2.0392,2.027,2.0185,2.0185,2.027,2.0185,2.0185,2.0304,2.0304,2.022,2.01,2.003,1.9479,1.8693,1.8539,1.7988,1.7282,1.7282,1.7475,1.7828,2.8872,2.8466,2.8562,3.0023,2.8395,2.7388,2.8871,2.7725,2.6625,2.645,2.6409,2.6066,2.5177,2.5101,2.5088,2.5101,2.5107,2.5107,2.5089,2.5101,2.507,2.5025,2.508,2.5194,2.5309,2.5492,2.5605,2.56,2.56,2.5593,2.5607,2.5602,2.56,2.5598,2.5526,2.5467,2.5406,2.5397,2.5388,2.5423,2.5481,2.5503,2.5531,2.5643,2.5665,2.5625,2.5676,2.5693,2.5707,2.5704,2.5707,2.5693,2.569,2.5696,2.5696,2.5629,2.5617,2.5609,2.5523,2.5371,2.5244,2.5203,2.5209,2.5187,2.5164,2.4921,2.4673,2.4601,2.4301,2.3915,2.3399,2.32,2.3217,2.3485,2.2963,2.2774,2.3447,0.0,2.2525,2.2332,2.2415,2.2304,2.1797,2.184,2.1794,2.1554,2.1493,2.157,2.1708,2.1495,2.134,2.1371,2.1448,2.1214,2.0662,2.0426,2.0254,2.015,2.022,2.022,2.015,2.022,2.027,2.0304,2.0304,2.022,2.0065,1.966,1.9369,1.902,1.8212,1.7828,1.772,1.7639,1.7868,1.8266,2.8389,2.8382,2.8718,2.9561,2.8377,2.7903,2.964,2.8357,2.7228,2.7315,2.6787,2.6084,2.5233,2.513,2.5088,2.5101,2.5095,2.5082,2.5057,2.5057,2.5025,2.4993,2.505,2.5173,2.534,2.5486,2.5551,2.561,2.5639,2.5642,2.559,2.5644,2.5654,2.5648,2.557,2.5515,2.5453,2.5453,2.5432,2.5395,2.5423,2.5476,2.5515,2.5574,2.5601,2.5603,2.5644,2.565,2.5648,2.5648,2.5652,2.5655,2.5655,2.5655,2.5629,2.5604,2.554,2.5486,2.5452,2.5321,2.519,2.5212,2.5198,2.5214,2.5214,2.4907,2.4639,2.4604,2.4265,2.3876,2.3473,2.3265,2.319,2.3267,2.2829,2.2798,2.3629,2.3402,2.3095,2.2954,2.3039,2.2671,2.165,2.1869,2.1928,2.1448,2.1495,2.1556,2.1495,2.1262,2.1103,2.1006,2.0958,2.0778,2.0494,2.0373,2.027,2.022,2.027,2.027,2.022,2.027,2.027,2.0185,2.0185,2.0115,1.994,1.9711,1.942,1.9109,1.8655,1.8305,1.8068,1.8028,1.8068,1.8187,2.7915,2.8198,2.8694,2.9156,2.8399,2.8315,3.0042,2.8904,2.7817,2.7741,2.6968,2.6094,2.5258,2.5138,2.5125,2.5101,2.5089,2.5057,2.4993,2.5012,2.4999,2.4999,2.5069,2.5192,2.5368,2.5441,2.5529,2.561,2.5642,2.5657,2.5613,2.5681,2.5707,2.5705,2.5639,2.5561,2.5521,2.5518,2.5461,2.5421,2.541,2.5453,2.5503,2.5518,2.5554,2.5577,2.5584,2.5595,2.5604,2.5604,2.558,2.558,2.558,2.5576,2.5581,2.5571,2.5499,2.5401,2.5393,2.5293,2.5198,2.5201,2.5206,2.518,2.5137,2.4865,2.4607,2.4543,2.4211,2.3855,2.3562,2.3353,2.3298,2.3371,0.0,2.3162,2.4144,2.4024,2.3767,2.3556,2.3551,2.3042,2.168,2.1957,2.2015,2.154,2.1648,2.1648,2.1509,2.123,2.0958,2.0695,2.0561,2.0571,2.0693,2.057,2.0535,2.0535,2.0535,2.0458,2.0304,2.0304,2.022,2.01,2.008,1.9975,1.9762,1.9639,1.9384,1.9026,1.8912,1.863,1.8279,1.8358,1.8266,1.8187,2.7843,2.7287,2.7412,2.9096,2.8003,2.7479,2.9214,2.8625,2.7661,2.6728,2.6544,2.6135,2.5213,2.516,2.516,2.5114,2.5038,2.5012,2.4993,2.5004,2.501,2.501,2.5068,2.5173,2.5303,2.536,2.548,2.561,2.5593,2.5634,2.57,2.5698,2.5707,2.5705,2.5639,2.5598,2.5593,2.5537,2.5492,2.5485,2.5483,2.5495,2.551,2.5576,2.5562,2.5527,2.5572,2.5601,2.5607,2.5607,2.555,2.5512,2.5505,2.5518,2.5506,2.5506,2.5456,2.5393,2.5311,2.5244,2.5198,2.5198,2.5195,2.5156,2.4955,2.4808,2.461,2.4375,2.4153,2.3876,2.3553,2.3504,2.3779,2.4691,0.0,0.0,2.5565,2.5094,2.4359,2.3665,2.3522,2.3129,2.2135,2.201,2.194,2.1781,2.1781,2.1797,2.1751,2.1308,2.0795,2.0339,2.0426,2.0736,2.1229,2.1245,2.1245,2.1245,2.1245,2.0905,2.0304,2.0304,2.022,2.0115,2.0025,1.9884,1.969,1.9169,1.8907,1.8784,1.8425,1.8228,1.8228,1.8475,1.8592,1.8592,2.7279,2.6943,2.6993,2.7721,2.7308,2.7269,2.8471,2.7861,2.7122,2.6786,2.6127,2.56,2.5322,2.5209,2.5106,2.5038,2.5025,2.4999,2.5004,2.4991,2.501,2.501,2.5032,2.5091,2.5173,2.5274,2.5383,2.548,2.5559,2.5601,2.5636,2.5683,2.5696,2.5707,2.5679,2.5639,2.5604,2.5571,2.5544,2.5495,2.5495,2.5524,2.555,2.5595,2.5603,2.5623,2.5602,2.559,2.5596,2.5505,2.5464,2.5437,2.543,2.5434,2.541,2.533,2.5244,2.516,2.5115,2.5198,2.5261,2.5201,2.5198,2.516,2.4942,2.476,2.4578,2.4339,2.4114,2.3876,2.3728,2.3445,2.3541,2.441,0.0,2.4108,2.5675,2.5183,2.4726,2.4995,2.4569,2.3731,2.2462,2.2744,2.2589,2.1634,2.2272,2.2458,2.1886,2.1887,2.1569,2.0893,2.1802,2.2099,2.1682,2.2283,2.2248,2.1545,2.1541,2.1042,2.0111,2.015,2.0045,1.9854,1.9833,1.969,1.9508,1.9273,1.9213,1.9153,1.8988,1.8927,1.8874,1.8988,1.8988,1.8936,2.6553,2.6631,2.6859,2.6898,2.6907,2.7102,2.7706,2.7234,2.672,2.6481,2.5774,2.5293,2.5303,2.522,2.5113,2.5012,2.4999,2.5004,2.501,2.501,2.501,2.501,2.5004,2.5032,2.5096,2.5184,2.5293,2.5391,2.5482,2.5566,2.5601,2.5643,2.5682,2.5694,2.5709,2.5679,2.5636,2.5601,2.5571,2.5523,2.5531,2.5554,2.561,2.5615,2.5645,2.5662,2.5621,2.5598,2.5553,2.5445,2.5374,2.5348,2.5359,2.534,2.5284,2.5126,2.5012,2.493,2.4947,2.5038,2.5134,2.5145,2.5153,2.5075,2.4874,2.4685,2.4476,2.4248,2.3998,2.3774,2.371,2.3549,2.3656,2.4366,2.4339,2.4679,2.6021,2.57,2.5462,2.58,2.5135,2.4123,2.275,2.2856,2.2551,2.1402,2.2261,2.2555,2.1873,2.2148,2.1907,2.099,2.2726,2.324,2.233,2.2964,2.2914,2.2125,2.1951,2.1252,2.0166,2.022,2.003,1.9726,1.9726,1.9581,1.9413,1.9376,1.9339,1.9302,1.9302,1.9302,1.9228,1.9228,1.9176,1.9101,2.569,2.6252,2.6887,2.6887,2.6887,2.6887,2.6887,2.6826,2.6482,2.5615,2.5499,2.5398,2.513,2.5222,2.522,2.5023,2.501,2.501,2.501,2.501,2.501,2.501,2.501,2.5031,2.5101,2.5101,2.5209,2.5401,2.5406,2.5477,2.5597,2.5597,2.5644,2.5702,2.5694,2.5693,2.5699,2.5629,2.5607,2.5595,2.5609,2.5597,2.5616,2.5668,2.5654,2.5605,2.5605,2.5554,2.5495,2.5416,2.5303,2.5212,2.5282,2.5192,2.5065,2.4855,2.4799,2.4801,2.4814,2.4804,2.4818,2.4966,2.4993,2.494,2.4753,2.4543,2.4319,2.4075,2.3795,2.3584,2.3526,2.3908,2.4357,2.4844,2.5515,2.6196,2.6807,2.6876,2.6587,2.5773,2.5057,2.4123,2.3017,2.2242,2.1615,2.1134,2.1524,2.1768,2.1694,2.1973,2.1611,2.0543,2.2897,2.3863,2.3192,2.3154,2.3119,2.3103,2.2431,2.1542,2.0494,2.0494,2.0254,1.9797,1.9726,1.9581,1.9376,1.9339,1.9213,1.9101,1.9101,1.9101,1.9101,1.9101,1.9101,1.9101,2.5819,2.5866,2.6069,2.6069,2.6018,2.5989,2.5989,2.5979,2.5867,2.5609,2.5498,2.5385,2.5253,2.5179,2.5125,2.5023,2.501,2.501,2.501,2.501,2.501,2.501,2.501,2.5023,2.5031,2.5076,2.513,2.5198,2.5339,2.5427,2.5459,2.5558,2.5631,2.5702,2.5642,2.5622,2.562,2.5605,2.5605,2.5599,2.5599,2.5627,2.5668,2.5642,2.5644,2.5658,2.5566,2.5492,2.5409,2.5192,2.5053,2.4962,2.485,2.4809,2.4818,2.4741,2.4648,2.4586,2.4591,2.4588,2.4617,2.476,2.479,2.4746,2.4543,2.4441,2.4319,2.4075,2.3795,2.3741,2.4195,2.4085,2.4313,2.5493,2.5692,2.5773,2.5946,2.5522,2.513,2.491,2.4014,2.3183,2.2589,2.2264,2.1698,2.0811,2.1086,2.1534,2.2005,2.2134,2.176,2.0827,2.2505,2.3192,2.2619,2.4423,2.472,2.3432,2.3271,2.2141,2.0292,2.041,2.015,1.9647,1.9647,1.9538,1.9339,1.9302,1.9213,1.9101,1.9101,1.9101,1.9101,1.9101,1.9101,1.9101,2.5823,2.5658,2.5654,2.5654,2.559,2.5529,2.5529,2.5531,2.5531,2.5511,2.5441,2.5367,2.5274,2.5164,2.5063,2.501,2.501,2.501,2.501,2.501,2.501,2.501,2.501,2.501,2.501,2.5044,2.5076,2.5101,2.5222,2.532,2.5395,2.5482,2.5563,2.5661,2.562,2.5593,2.5567,2.5559,2.5573,2.56,2.5598,2.5624,2.5644,2.5597,2.5598,2.5586,2.5383,2.5264,2.5139,2.4793,2.4565,2.4393,2.4226,2.421,2.4264,2.4173,2.4118,2.4061,2.4061,2.4137,2.4229,2.4317,2.4472,2.4572,2.4424,2.4355,2.4248,2.3939,2.3671,2.3575,2.3872,2.3797,2.3984,2.4863,2.5091,2.5152,2.5152,2.4763,2.4444,2.432,2.3414,2.2636,2.2163,2.1807,2.1305,2.0662,2.0764,2.1102,2.1648,2.1515,2.1191,2.063,2.1906,2.246,2.2179,2.4312,2.4696,2.3326,2.3326,2.2377,2.063,2.0579,2.0273,1.9833,1.9683,1.9501,1.9339,1.9302,1.9213,1.9101,1.9101,1.9101,1.9101,1.9101,1.9139,1.9176,2.5902,2.5701,2.5718,2.5718,2.5544,2.5432,2.5503,2.5444,2.5383,2.5374,2.5385,2.5321,2.5212,2.5141,2.5063,2.501,2.501,2.501,2.501,2.501,2.501,2.501,2.501,2.501,2.501,2.501,2.5031,2.5088,2.5101,2.519,2.5365,2.5372,2.5441,2.5571,2.5546,2.5513,2.5443,2.5446,2.549,2.5565,2.5552,2.5559,2.5561,2.5461,2.5424,2.5367,2.5024,2.4854,2.472,2.4261,2.3915,2.3622,2.3502,2.3516,2.3534,2.3351,2.3346,2.3392,2.3392,2.3566,2.3756,2.3756,2.4079,2.4408,2.4391,2.4284,2.4074,2.3756,2.3477,2.3218,2.3014,2.3258,2.3527,2.3595,2.4096,2.4458,2.436,2.4343,2.4216,2.3801,2.3044,2.2281,2.1663,2.0942,2.053,2.053,2.0481,2.0548,2.0795,2.0465,2.0227,2.0139,2.1136,2.172,2.1755,2.3125,2.3522,2.2891,2.2859,2.2292,2.1246,2.0893,2.0545,2.0139,1.9777,1.9538,1.9376,1.9339,1.9213,1.9101,1.9101,1.9101,1.9101,1.9101,1.9176,1.9265,2.6909,2.6587,2.6553,2.6601,2.5997,2.5684,2.6315,2.5799,2.5302,2.5244,2.5234,2.5222,2.513,2.5113,2.5063,2.501,2.501,2.501,2.501,2.501,2.501,2.501,2.501,2.501,2.501,2.501,2.501,2.5018,2.5076,2.5122,2.5165,2.5168,2.5206,2.5288,2.5178,2.509,2.5026,2.5028,2.509,2.5216,2.5206,2.5306,2.5402,2.4966,2.4804,2.4736,2.4302,2.4056,2.3915,2.3614,2.3392,2.3229,2.3194,2.3282,2.3351,2.3305,2.3346,2.3392,2.3392,2.3437,2.35,2.35,2.357,2.3741,2.4153,2.4056,2.3837,2.3714,2.3359,2.3203,2.3605,2.3573,2.3667,2.4215,2.4404,2.4211,2.336,2.3245,2.2905,2.1985,2.1392,2.1001,2.0834,2.0316,1.996,1.996,1.9975,1.996,2.0045,1.996,1.9889,1.9818,2.0555,2.1072,2.1332,2.2233,2.2767,2.2891,2.2621,2.1956,2.0893,2.0496,2.0154,1.9782,1.9669,1.9538,1.9376,1.9339,1.9213,1.9101,1.9101,1.9101,1.9101,1.9213,1.9213,1.9139,2.6576,2.6515,2.6636,2.6295,2.6088,2.5985,2.5977,2.5533,2.5182,2.5157,2.5145,2.5141,2.5094,2.5063,2.5044,2.501,2.501,2.501,2.501,2.501,2.501,2.501,2.501,2.495,2.4861,2.4861,2.4861,2.4861,2.4884,2.4915,2.4911,2.5005,2.5077,2.5091,2.4998,2.4924,2.4853,2.482,2.486,2.4936,2.4922,2.4905,2.4862,2.436,2.3985,2.367,2.3133,2.2758,2.2491,2.247,2.2399,2.2361,2.2565,2.2712,2.2832,2.295,2.3,2.3074,2.3074,2.3146,2.3259,2.3259,2.3318,2.3459,2.3735,2.3714,2.3584,2.3445,2.3206,2.3117,2.3239,2.3134,2.313,2.3435,2.3338,2.3006,2.2455,2.2252,2.1887,2.1135,2.0763,2.0447,2.0224,1.996,1.9797,1.9797,1.9797,1.9797,1.9762,2.0077,2.022,2.0183,2.0963,2.1485,2.1695,2.1879,2.2137,2.2329,2.2163,2.1644,2.0794,2.0395,2.0104,1.9909,1.9632,1.9465,1.9376,1.9265,1.9139,1.9101,1.9176,1.9176,1.9213,1.9302,1.9302,1.9228,2.6029,2.6374,2.6729,2.606,2.6275,2.6329,2.574,2.5337,2.5106,2.5088,2.5088,2.5088,2.5088,2.5031,2.501,2.501,2.501,2.501,2.501,2.501,2.501,2.501,2.501,2.4908,2.4707,2.4676,2.4642,2.4642,2.4642,2.4639,2.4648,2.479,2.4861,2.4836,2.4752,2.4674,2.461,2.4535,2.4529,2.4614,2.4516,2.4379,2.4153,2.3602,2.307,2.25,2.1861,2.142,2.116,2.1315,2.1442,2.1568,2.1895,2.213,2.226,2.2426,2.2535,2.2588,2.2632,2.2773,2.2977,2.302,2.314,2.3271,2.3294,2.3318,2.3312,2.3126,2.3052,2.2944,2.2632,2.2542,2.246,2.2377,2.2032,2.1781,2.1721,2.1432,2.1087,2.0761,2.0545,2.0258,1.9833,1.9762,1.9762,1.969,1.969,1.9617,1.9457,2.0065,2.0429,2.0376,2.1492,2.2072,2.195,2.1771,2.1655,2.153,2.1455,2.118,2.0679,2.0292,2.012,2.0085,1.9617,1.9376,1.9376,1.9176,1.9101,1.9139,1.9228,1.9302,1.9302,1.9339,1.9376,1.9413,2.6806,2.7268,2.781,2.7764,2.7144,2.6853,2.7374,2.617,2.5134,2.5031,2.5004,2.5004,2.5004,2.501,2.501,2.501,2.501,2.501,2.501,2.501,2.501,2.501,2.501,2.4908,2.4707,2.4526,2.4441,2.4441,2.4441,2.4424,2.4352,2.4319,2.4284,2.4211,2.4022,2.3903,2.3844,2.372,2.3726,2.385,2.3712,2.3578,2.335,2.2541,2.1983,2.158,2.0862,2.0701,2.0879,2.0879,2.1165,2.1507,2.1568,2.1764,2.1957,2.1986,2.2027,2.2141,2.2315,2.2371,2.2453,2.2632,2.2685,2.2721,2.2773,2.296,2.3126,2.3119,2.2868,2.2632,2.2525,2.246,2.2377,2.2338,2.202,2.1691,2.1401,2.1071,2.0761,2.0407,2.02,1.999,1.9726,1.9726,1.9581,1.9213,1.9213,1.8974,1.85,1.9022,1.9255,1.915,2.0867,2.1488,2.0918,2.1422,2.1416,2.0843,2.0276,2.0106,2.0277,1.9909,1.9726,1.9669,1.9487,1.9376,1.9302,1.9139,1.9176,1.9265,1.9176,1.9176,1.9302,1.9176,1.9265,1.9376,2.6241,2.6715,2.7144,2.6715,2.6655,2.6583,2.6384,2.5646,2.5106,2.5012,2.4991,2.4991,2.5004,2.4991,2.501,2.501,2.501,2.501,2.501,2.501,2.501,2.501,2.4889,2.4738,2.4526,2.4355,2.4174,2.4059,2.4136,2.4136,2.4079,2.4135,2.4097,2.4037,2.3899,2.3795,2.3692,2.3606,2.3548,2.3508,2.3223,2.2975,2.2683,2.1657,2.1003,2.0476,1.9626,1.9507,1.9778,2.0089,2.0431,2.0812,2.1308,2.1446,2.1521,2.1853,2.1853,2.1794,2.2073,2.2015,2.1899,2.2101,2.2147,2.213,2.2056,2.2198,2.2463,2.2747,2.2712,2.2569,2.246,2.2405,2.2321,2.2049,2.1751,2.1401,2.1071,2.0728,2.0357,1.9854,1.9711,1.9581,1.9398,1.9347,1.9288,1.9101,1.9101,1.886,1.8344,1.8877,1.918,1.9126,2.0292,2.0898,2.0917,2.0843,2.0759,2.0707,2.0019,1.9782,1.9909,1.9726,1.9647,1.9574,1.9413,1.9339,1.9339,1.9265,1.9265,1.9376,1.9376,1.945,1.9508,1.9472,1.9487,1.9501]},{"header":{"parameterUnit":"m.s-1","parameterCategory":1,"la1":30.6,"la2":28.766,"lo1":-90.7593,"lo2":-88.6598,"dy":0.0162,"dx":0.0183,"nx":116,"ny":114,"refTime":"2023-09-06T06:00:00:Z","depth":0,"parameterNumber":3,"parameterNumberName":"V-component_of_WINDS"},"data":[0.0,0.0,0.0,0.0,0.0,0.0,0.0,0.0,0.0,0.0,0.0,0.0,0.0,0.0,0.0,0.0,0.0,0.0,0.0,0.0,0.0,0.0,0.0,0.0,0.0,0.0,0.0,0.0,0.0,0.0,0.0,0.0,0.0,0.0,0.0,0.0,0.0,0.0,0.0,0.0,0.0,0.0,0.0,0.0,0.0,0.0,0.0,0.0,0.0,0.0,0.0,0.0,0.0,0.0,0.0,0.0,0.0,0.0,0.0,0.0,0.0,0.0,0.0,0.0,0.0,0.0,0.0,0.0,0.0,0.0,0.0,0.0,0.0,0.0,0.0,0.0,0.0,0.0,0.0,0.0,0.0,0.0,0.0,0.0,0.0,0.0,0.0,0.0,0.0,0.0,0.0,0.0,0.0,0.0,0.0,0.0,0.0,0.0,0.0,0.0,0.0,0.0,0.0,0.0,0.0,0.0,0.0,0.0,0.0,0.0,0.0,0.0,0.0,0.0,0.0,0.0,0.0,0.0,0.0,0.0,0.0,0.0,0.0,0.0,0.0,0.0,0.0,0.0,0.0,0.0,0.0,0.0,0.0,0.0,0.0,0.0,0.0,0.0,0.0,0.0,0.0,0.0,0.0,0.0,0.0,0.0,0.0,0.0,0.0,0.0,0.0,0.0,0.0,0.0,0.0,0.0,0.0,0.0,0.0,0.0,0.0,0.0,0.0,0.0,0.0,0.0,0.0,0.0,0.0,0.0,0.0,0.0,0.0,0.0,0.0,0.0,0.0,0.0,0.0,0.0,0.0,0.0,0.0,0.0,0.0,0.0,0.0,0.0,0.0,0.0,0.0,0.0,0.0,0.0,0.0,0.0,0.0,0.0,0.0,0.0,0.0,0.0,0.0,0.0,0.0,0.0,0.0,0.0,0.0,0.0,0.0,0.0,0.0,0.0,0.0,0.0,0.0,0.0,0.0,0.0,0.0,0.0,0.0,0.0,0.0,0.0,0.0,0.0,0.0,0.0,0.0,0.0,0.0,0.0,0.0,0.0,0.0,0.0,0.0,0.0,0.0,0.0,0.0,0.0,0.0,0.0,0.0,0.0,0.0,0.0,0.0,0.0,0.0,0.0,0.0,0.0,0.0,0.0,0.0,0.0,0.0,0.0,0.0,0.0,0.0,0.0,0.0,0.0,0.0,0.0,0.0,0.0,0.0,0.0,0.0,0.0,0.0,0.0,0.0,0.0,0.0,0.0,0.0,0.0,0.0,0.0,0.0,0.0,0.0,0.0,0.0,0.0,0.0,0.0,0.0,0.0,0.0,0.0,0.0,0.0,0.0,0.0,0.0,0.0,0.0,0.0,0.0,0.0,0.0,0.0,0.0,0.0,0.0,0.0,0.0,0.0,0.0,0.0,0.0,0.0,0.0,0.0,0.0,0.0,0.0,0.0,0.0,0.0,0.0,0.0,0.0,0.0,0.0,0.0,0.0,0.0,0.0,0.0,0.0,0.0,0.0,0.0,0.0,0.0,0.0,0.0,0.0,0.0,0.0,0.0,0.0,0.0,0.0,0.0,0.0,0.0,0.0,0.0,0.0,0.0,0.0,0.0,0.0,0.0,0.0,0.0,0.0,0.0,0.0,0.0,0.0,0.0,0.0,0.0,0.0,0.0,0.0,0.0,0.0,0.0,0.0,0.0,0.0,0.0,0.0,0.0,0.0,0.0,0.0,0.0,0.0,0.0,0.0,0.0,0.0,0.0,0.0,0.0,0.0,0.0,0.0,0.0,0.0,0.0,0.0,0.0,0.0,0.0,0.0,0.0,0.0,0.0,0.0,0.0,0.0,0.0,0.0,0.0,0.0,0.0,0.0,0.0,0.0,0.0,0.0,0.0,0.0,0.0,0.0,0.0,0.0,0.0,0.0,0.0,0.0,0.0,0.0,0.0,0.0,0.0,0.0,0.0,0.0,0.0,0.0,0.0,0.0,0.0,0.0,0.0,0.0,0.0,0.0,0.0,0.0,0.0,0.0,0.0,0.0,0.0,0.0,0.0,0.0,0.0,0.0,0.0,0.0,0.0,0.0,0.0,0.0,0.0,0.0,0.0,0.0,0.0,0.0,0.0,0.0,0.0,0.0,0.0,0.0,0.0,0.0,0.0,0.0,0.0,0.0,0.0,0.0,0.0,0.0,0.0,0.0,0.0,0.0,0.0,0.0,0.0,0.0,0.0,0.0,0.0,0.0,0.0,0.0,0.0,0.0,0.0,0.0,0.0,0.0,0.0,0.0,0.0,0.0,0.0,0.0,0.0,0.0,0.0,0.0,0.0,0.0,0.0,0.0,0.0,0.0,0.0,0.0,0.0,0.0,0.0,0.0,0.0,0.0,0.0,0.0,0.0,0.0,0.0,0.0,0.0,0.0,0.0,0.0,0.0,0.0,0.0,0.0,0.0,0.0,0.0,0.0,0.0,0.0,0.0,0.0,0.0,0.0,0.0,0.0,0.0,0.0,0.0,0.0,0.0,0.0,0.0,0.0,0.0,0.0,0.0,0.0,0.0,0.0,0.0,0.0,0.0,0.0,0.0,0.0,0.0,0.0,0.0,0.0,0.0,0.0,0.0,0.0,0.0,0.0,0.0,0.0,0.0,0.0,0.0,0.0,0.0,0.0,0.0,0.0,0.0,0.0,0.0,0.0,0.0,0.0,0.0,0.0,0.0,0.0,0.0,0.0,0.0,0.0,0.0,0.0,0.0,0.0,0.0,0.0,0.0,0.0,0.0,0.0,0.0,0.0,0.0,0.0,0.0,0.0,0.0,0.0,0.0,0.0,0.0,0.0,0.0,0.0,0.0,0.0,0.0,0.0,0.0,0.0,0.0,0.0,0.0,0.0,0.0,0.0,0.0,0.0,0.0,0.0,0.0,0.0,0.0,0.0,0.0,0.0,0.0,0.0,0.0,0.0,0.0,0.0,0.0,0.0,0.0,0.0,0.0,0.0,0.0,0.0,0.0,0.0,0.0,0.0,0.0,0.0,0.0,0.0,0.0,0.0,0.0,0.0,0.0,0.0,0.0,0.0,0.0,0.0,0.0,0.0,0.0,0.0,0.0,0.0,0.0,0.0,0.0,0.0,0.0,0.0,0.0,0.0,0.0,0.0,0.0,0.0,0.0,0.0,0.0,0.0,0.0,0.0,0.0,0.0,0.0,0.0,0.0,0.0,0.0,0.0,0.0,0.0,0.0,0.0,0.0,0.0,0.0,0.0,0.0,0.0,0.0,0.0,0.0,0.0,0.0,0.0,0.0,0.0,0.0,0.0,0.0,0.0,0.0,0.0,0.0,0.0,0.0,0.0,0.0,0.0,0.0,0.0,0.0,0.0,0.0,0.0,0.0,0.0,0.0,0.0,0.0,0.0,0.0,0.0,0.0,0.0,0.0,0.0,0.0,0.0,0.0,0.0,0.0,0.0,0.0,0.0,0.0,0.0,0.0,0.0,0.0,0.0,0.0,0.0,0.0,0.0,0.0,0.0,0.0,0.0,0.0,0.0,0.0,0.0,0.0,0.0,0.0,0.0,0.0,0.0,0.0,0.0,0.0,0.0,0.0,0.0,0.0,0.0,0.0,0.0,0.0,0.0,0.0,0.0,0.0,0.0,0.0,0.0,0.0,0.0,0.0,0.0,0.0,0.0,0.0,0.0,0.0,0.0,0.0,0.0,0.0,0.0,0.0,0.0,0.0,0.0,0.0,0.0,0.0,0.0,0.0,0.0,0.0,0.0,0.0,0.0,0.0,0.0,0.0,0.0,0.0,0.0,0.0,0.0,0.0,0.0,0.0,0.0,0.0,0.0,0.0,0.0,0.0,0.0,0.0,0.0,0.0,0.0,0.0,0.0,0.0,0.0,0.0,0.0,0.0,0.0,0.0,0.0,0.0,0.0,0.0,0.0,0.0,0.0,0.0,0.0,0.0,0.0,0.0,0.0,0.0,0.0,0.0,0.0,0.0,0.0,0.0,0.0,0.0,0.0,0.0,0.0,0.0,0.0,0.0,0.0,0.0,0.0,0.0,0.0,0.0,0.0,0.0,0.0,0.0,0.0,0.0,0.0,0.0,0.0,0.0,0.0,0.0,0.0,0.0,0.0,0.0,0.0,0.0,0.0,0.0,0.0,0.0,0.0,0.0,0.0,0.0,0.0,0.0,0.0,0.0,0.0,0.0,0.0,0.0,0.0,0.0,0.0,0.0,0.0,0.0,0.0,0.0,0.0,0.0,0.0,0.0,0.0,0.0,0.0,0.0,0.0,0.0,0.0,0.0,0.0,0.0,0.0,0.0,0.0,0.0,0.0,0.0,0.0,0.0,0.0,0.0,0.0,0.0,0.0,0.0,0.0,0.0,0.0,0.0,0.0,0.0,0.0,0.0,0.0,0.0,0.0,0.0,0.0,0.0,0.0,0.0,0.0,0.0,0.0,0.0,0.0,0.0,0.0,0.0,0.0,0.0,0.0,0.0,0.0,0.0,0.0,0.0,0.0,0.0,0.0,0.0,0.0,0.0,0.0,0.0,0.0,0.0,0.0,0.0,0.0,0.0,0.0,0.0,0.0,0.0,0.0,0.0,0.0,0.0,0.0,0.0,0.0,0.0,0.0,0.0,0.0,0.0,0.0,0.0,0.0,0.0,0.0,0.0,0.0,0.0,0.0,0.0,0.0,0.0,0.0,0.0,0.0,0.0,0.0,0.0,0.0,0.0,0.0,0.0,0.0,0.0,0.0,0.0,0.0,0.0,0.0,0.0,0.0,0.0,0.0,0.0,0.0,0.0,0.0,0.0,0.0,0.0,0.0,0.0,0.0,0.0,0.0,0.0,0.0,0.0,0.0,0.0,0.0,0.0,0.0,0.0,0.0,0.0,0.0,0.0,0.0,0.0,0.0,0.0,0.0,0.0,0.0,0.0,0.0,0.0,0.0,0.0,0.0,0.0,0.0,0.0,0.0,0.0,0.0,0.0,0.0,0.0,0.0,0.0,0.0,0.0,0.0,0.0,0.0,0.0,0.0,0.0,0.0,0.0,0.0,0.0,0.0,0.0,0.0,0.0,0.0,0.0,0.0,0.0,0.0,0.0,0.0,0.0,0.0,0.0,0.0,0.0,0.0,0.0,0.0,0.0,0.0,0.0,0.0,0.0,0.0,0.0,0.0,0.0,0.0,0.0,0.0,0.0,0.0,0.0,0.0,0.0,0.0,0.0,0.0,0.0,0.0,0.0,0.0,0.0,0.0,0.0,0.0,0.0,0.0,0.0,0.0,0.0,0.0,0.0,0.0,0.0,0.0,0.0,0.0,0.0,0.0,0.0,0.0,0.0,0.0,0.0,0.0,0.0,0.0,0.0,0.0,0.0,0.0,0.0,0.0,0.0,0.0,0.0,0.0,0.0,0.0,0.0,0.0,0.0,0.0,0.0,0.0,0.0,0.0,0.0,0.0,0.0,0.0,0.0,0.0,0.0,0.0,0.0,0.0,0.0,0.0,0.0,0.0,0.0,0.0,0.0,0.0,0.0,0.0,0.0,0.0,0.0,0.0,0.0,0.0,0.0,0.0,0.0,0.0,0.0,0.0,0.0,0.0,0.0,0.0,0.0,0.0,0.0,0.0,0.0,0.0,0.0,0.0,0.0,0.0,0.0,0.0,0.0,0.0,0.0,0.0,0.0,0.0,0.0,0.0,0.0,0.0,0.0,0.0,0.0,0.0,0.0,0.0,0.0,0.0,0.0,0.0,0.0,0.0,0.0,0.0,0.0,0.0,0.0,0.0,0.0,0.0,0.0,0.0,0.0,0.0,0.0,0.0,0.0,0.0,0.0,0.0,0.0,0.0,0.0,0.0,0.0,0.0,0.0,0.0,0.0,0.0,0.0,0.0,0.0,0.0,0.0,0.0,0.0,0.0,0.0,0.0,0.0,0.0,0.0,0.0,0.0,0.0,0.0,0.0,0.0,0.0,0.0,0.0,0.0,0.0,0.0,0.0,0.0,0.0,0.0,0.0,0.0,0.0,0.0,0.0,0.0,0.0,0.0,0.0,0.0,0.0,0.0,0.0,0.0,0.0,0.0,0.0,0.0,0.0,0.0,-1.6146,-1.7748,0.0,0.0,0.0,0.0,0.0,0.0,0.0,0.0,0.0,0.0,0.0,0.0,0.0,0.0,0.0,0.0,0.0,0.0,0.0,0.0,0.0,0.0,0.0,0.0,0.0,0.0,0.0,0.0,0.0,0.0,0.0,0.0,0.0,0.0,0.0,0.0,0.0,0.0,-1.7842,-1.7821,-1.819,-1.7743,-1.795,-1.8739,0.0,0.0,0.0,0.0,0.0,0.0,0.0,0.0,0.0,0.0,0.0,0.0,0.0,0.0,0.0,0.0,0.0,0.0,0.0,0.0,0.0,0.0,0.0,0.0,0.0,0.0,0.0,0.0,0.0,0.0,0.0,0.0,0.0,0.0,0.0,0.0,0.0,0.0,0.0,0.0,0.0,0.0,0.0,0.0,0.0,0.0,0.0,0.0,0.0,0.0,0.0,0.0,0.0,0.0,0.0,0.0,0.0,0.0,0.0,0.0,0.0,0.0,0.0,0.0,0.0,0.0,0.0,0.0,0.0,0.0,-1.8446,-1.8777,0.0,0.0,0.0,0.0,0.0,0.0,0.0,0.0,0.0,0.0,0.0,0.0,0.0,0.0,0.0,0.0,0.0,0.0,0.0,0.0,0.0,0.0,0.0,-1.9794,-1.9713,-1.9701,-1.9636,-1.9614,0.0,0.0,0.0,0.0,0.0,0.0,0.0,-1.9601,-1.9178,-1.8302,-1.8165,-1.8143,-1.819,-1.7629,-1.7766,-1.8526,-1.9072,0.0,0.0,0.0,0.0,0.0,0.0,0.0,0.0,0.0,0.0,0.0,0.0,0.0,0.0,0.0,0.0,0.0,0.0,0.0,0.0,0.0,0.0,0.0,0.0,0.0,0.0,0.0,0.0,0.0,0.0,0.0,0.0,0.0,0.0,0.0,0.0,0.0,0.0,0.0,0.0,0.0,0.0,0.0,0.0,0.0,0.0,0.0,0.0,0.0,0.0,0.0,0.0,0.0,0.0,0.0,0.0,0.0,0.0,0.0,0.0,0.0,0.0,0.0,-2.0644,-2.1062,-2.176,-2.2469,-2.2789,-2.2667,-2.0622,-1.9605,-1.945,-1.9905,0.0,0.0,0.0,0.0,0.0,0.0,0.0,0.0,0.0,0.0,0.0,0.0,0.0,0.0,0.0,0.0,0.0,0.0,0.0,0.0,0.0,-1.9794,-1.9701,-1.9699,-1.9686,-1.966,-1.9597,0.0,0.0,0.0,0.0,0.0,-1.9597,-1.9587,-1.9178,-1.8302,-1.759,-1.7614,-1.8305,-1.8873,-1.9488,-2.0076,-1.9372,-1.9948,-2.1363,0.0,0.0,0.0,0.0,0.0,0.0,0.0,0.0,0.0,0.0,0.0,0.0,0.0,0.0,0.0,0.0,0.0,0.0,0.0,0.0,0.0,0.0,0.0,0.0,0.0,0.0,0.0,0.0,0.0,0.0,0.0,0.0,0.0,0.0,0.0,0.0,0.0,0.0,0.0,0.0,0.0,-2.1171,-2.0052,0.0,0.0,0.0,0.0,0.0,0.0,0.0,0.0,0.0,0.0,0.0,0.0,0.0,-2.0771,-2.0462,-2.1377,-2.198,-2.2278,-2.2288,-2.2402,-2.2631,-2.2747,-2.2772,-2.269,-2.2373,0.0,-2.1034,-2.0316,0.0,0.0,0.0,0.0,0.0,0.0,0.0,0.0,0.0,0.0,0.0,0.0,0.0,0.0,0.0,0.0,0.0,0.0,0.0,0.0,0.0,-1.9806,-1.9701,-1.9707,-2.0079,-2.0099,-1.9625,-2.002,0.0,0.0,0.0,-1.9601,-1.9606,-1.9601,-1.9137,-1.8181,-1.8249,-1.8456,-1.8805,-1.9474,-2.0479,-2.1698,-2.0567,-2.0584,-2.1369,-2.0138,0.0,0.0,0.0,0.0,0.0,0.0,0.0,0.0,0.0,0.0,0.0,0.0,0.0,0.0,0.0,0.0,0.0,0.0,0.0,0.0,0.0,0.0,0.0,0.0,0.0,0.0,0.0,0.0,0.0,0.0,0.0,0.0,0.0,0.0,0.0,0.0,0.0,0.0,0.0,-2.2776,-2.2142,-2.1075,-2.0852,-2.0503,0.0,0.0,0.0,0.0,0.0,0.0,0.0,0.0,0.0,-1.9969,-2.0702,-2.114,-2.1206,-2.1624,-2.2078,-2.2621,-2.3099,-2.335,-2.3419,-2.3928,-2.4138,-2.4107,-2.4107,-2.3607,-2.2734,-2.1839,-2.1924,-2.2483,0.0,0.0,0.0,0.0,-2.0868,-2.1521,0.0,0.0,0.0,0.0,0.0,0.0,0.0,0.0,0.0,0.0,0.0,0.0,-2.0012,-2.0019,-2.0032,-2.0032,-2.0527,-2.0579,-1.9968,-2.0294,-2.0224,-1.9625,-1.9587,-1.9587,-1.9587,-1.9355,-1.905,-1.8705,-1.9016,-1.9476,-2.0094,-2.048,-2.149,-2.2946,-2.2007,-2.1658,-2.1747,-2.0722,-2.0406,-2.0481,0.0,0.0,0.0,0.0,0.0,0.0,0.0,0.0,0.0,0.0,0.0,0.0,0.0,0.0,0.0,0.0,0.0,0.0,0.0,0.0,0.0,0.0,0.0,0.0,0.0,0.0,0.0,0.0,0.0,0.0,0.0,0.0,0.0,0.0,0.0,0.0,0.0,-2.2887,-2.2432,-2.1702,-2.1105,-2.0663,0.0,0.0,0.0,0.0,0.0,0.0,-2.1231,-2.1241,-2.125,-2.1304,-2.1537,-2.174,-2.1882,-2.2102,-2.2585,-2.3269,-2.3919,-2.4224,-2.4243,-2.4905,-2.5191,-2.5191,-2.5191,-2.4828,-2.4167,-2.3282,-2.3267,-2.3643,-2.2092,-2.2318,-2.3352,-2.184,-2.1751,-2.2376,0.0,0.0,0.0,0.0,0.0,0.0,0.0,0.0,0.0,0.0,0.0,-2.0012,-2.0012,-2.0558,-2.0921,-2.0931,-2.0974,-2.0947,-2.0835,-2.0099,-1.9643,-1.9597,-1.9615,-1.9615,-1.9615,-1.866,-1.8904,-2.0378,-1.9465,-2.0174,-2.2417,-2.2472,-2.2839,-2.3455,-2.3472,-2.348,-2.335,-2.1615,-2.1016,-2.118,-2.0515,0.0,0.0,0.0,0.0,0.0,0.0,0.0,0.0,0.0,0.0,0.0,0.0,0.0,0.0,0.0,0.0,0.0,0.0,0.0,0.0,0.0,0.0,0.0,0.0,0.0,0.0,0.0,0.0,0.0,0.0,0.0,0.0,0.0,0.0,0.0,0.0,0.0,0.0,-2.0666,-2.0756,0.0,0.0,0.0,0.0,-2.0843,-2.1432,-2.185,-2.1946,-2.1903,-2.1869,-2.1853,-2.2719,-2.3291,-2.3491,-2.4315,-2.4848,-2.5077,-2.5115,-2.5134,-2.5134,-2.5172,-2.5191,-2.5191,-2.5191,-2.5172,-2.5077,-2.4186,-2.3816,-2.3712,-2.2856,-2.2962,-2.3488,-2.2633,-2.2717,-2.3135,0.0,0.0,0.0,0.0,0.0,0.0,0.0,0.0,-1.9828,-1.9816,-1.9839,-2.01,-2.0702,-2.0953,-2.1273,-2.1784,-2.1793,-2.1522,-2.0942,-2.0579,-2.0145,-1.962,-1.9602,-1.9602,-1.9602,-1.9121,-1.9081,-1.9534,-2.0082,-2.0795,-2.1642,-2.2615,-2.324,-2.3562,-2.3544,-2.3534,-2.3445,-2.2202,-2.1882,-2.2086,-2.0727,-2.0154,0.0,0.0,0.0,0.0,0.0,0.0,0.0,0.0,0.0,0.0,0.0,0.0,0.0,0.0,0.0,0.0,0.0,0.0,0.0,0.0,0.0,0.0,0.0,0.0,0.0,0.0,0.0,0.0,0.0,0.0,0.0,0.0,0.0,0.0,0.0,0.0,0.0,-2.1384,-2.136,0.0,-2.0888,-2.1331,-2.1629,-2.1614,-2.2028,-2.2482,-2.294,-2.3438,-2.3917,-2.4375,-2.5361,-2.5668,-2.5206,-2.5646,-2.564,-2.5191,-2.5191,-2.5203,-2.5195,-2.5113,-2.5076,-2.5063,-2.4934,-2.4879,-2.4865,-2.4549,-2.453,-2.4622,-2.3728,-2.3815,-2.4331,-2.3376,-2.3468,-2.4013,0.0,0.0,0.0,0.0,0.0,0.0,0.0,0.0,-1.9726,-1.9669,-1.9964,-2.0421,-2.1023,-2.1492,-2.2004,-2.2522,-2.2271,-2.1816,-2.1247,-2.067,-2.0117,-1.9555,-1.9536,-1.9508,-1.9468,-1.9614,-1.9742,-1.9812,-2.0997,-2.1685,-2.195,-2.3199,-2.3832,-2.3979,-2.427,-2.4367,-2.4341,-2.3714,-2.3113,-2.2504,-2.1118,-2.0916,-2.1264,0.0,0.0,0.0,0.0,0.0,0.0,0.0,0.0,0.0,0.0,0.0,0.0,0.0,0.0,0.0,0.0,0.0,0.0,0.0,0.0,0.0,0.0,0.0,0.0,0.0,0.0,0.0,0.0,0.0,0.0,0.0,0.0,0.0,0.0,-2.3162,-2.2887,-2.2575,-2.2336,-2.2188,-2.2135,-2.2303,-2.2412,-2.2443,-2.2813,-2.3352,-2.4116,-2.4625,-2.5263,-2.5994,-2.6433,-2.6424,-2.593,-2.5859,-2.5583,-2.5101,-2.5101,-2.5106,-2.5149,-2.5251,-2.5296,-2.5296,-2.516,-2.5098,-2.5086,-2.5086,-2.5073,-2.4968,-2.434,-2.4388,-2.4718,-2.4039,-2.4062,-2.4411,0.0,0.0,0.0,0.0,0.0,0.0,0.0,-1.9541,-1.9582,-1.9601,-2.0331,-2.0882,-2.0938,-2.2216,-2.308,-2.3098,-2.231,-2.1797,-2.1778,-2.0329,-1.9489,-1.9431,-1.9446,-1.939,-1.9292,-2.0104,-2.0821,-2.1404,-2.2161,-2.2848,-2.3494,-2.4343,-2.4748,-2.4753,-2.5685,-2.6085,-2.6105,-2.61,-2.4753,-2.2558,-2.1888,-2.2132,-2.2783,0.0,0.0,0.0,0.0,0.0,0.0,0.0,0.0,0.0,0.0,0.0,0.0,0.0,0.0,0.0,0.0,0.0,0.0,0.0,0.0,0.0,0.0,0.0,0.0,0.0,0.0,0.0,0.0,0.0,0.0,0.0,0.0,0.0,-2.4153,-2.3511,-2.3327,-2.4061,-2.3602,-2.3243,-2.3243,-2.3262,-2.3293,-2.3372,-2.3879,-2.4556,-2.5407,-2.5419,-2.574,-2.6512,-2.5873,-2.5576,-2.567,-2.5096,-2.4859,-2.4964,-2.494,-2.4972,-2.5075,-2.5649,-2.5909,-2.5925,-2.593,-2.5914,-2.5876,-2.5876,-2.5426,-2.4729,-2.4729,-2.4698,-2.4617,-2.4599,-2.4446,-2.4338,0.0,0.0,0.0,0.0,0.0,0.0,0.0,-1.9464,-1.9475,-1.9518,-1.9736,-2.0378,-2.1633,-2.2126,-2.2582,-2.3128,-2.2374,-2.162,-2.105,-2.0003,-1.966,-2.0184,-2.0295,-2.0588,-2.115,-2.1307,-2.1458,-2.1625,-2.2697,-2.3186,-2.3182,-2.4909,-2.5595,-2.539,-2.5932,-2.6173,-2.6173,-2.6175,-2.5846,-2.5248,-2.4292,-2.3902,-2.3861,0.0,0.0,0.0,0.0,0.0,0.0,0.0,0.0,0.0,0.0,0.0,0.0,0.0,0.0,0.0,0.0,0.0,0.0,0.0,0.0,0.0,0.0,0.0,0.0,0.0,0.0,0.0,0.0,0.0,0.0,0.0,-2.3217,-2.2648,-2.3254,-2.3639,-2.3749,-2.3382,-2.3676,-2.3934,-2.3934,-2.4538,-2.4957,-2.4964,-2.5764,-2.6321,-2.6412,-2.6947,-2.7306,-2.7431,-2.7938,-2.7933,-2.7341,-2.7306,-2.7035,-2.6505,-2.5901,-2.5935,-2.6513,-2.5995,-2.6076,-2.6617,-2.6525,-2.6114,-2.5541,-2.5541,-2.5411,-2.5227,-2.5475,-2.5525,-2.5366,-2.4647,-2.4617,-2.5022,0.0,0.0,0.0,0.0,0.0,0.0,0.0,-1.9438,-1.9402,-1.9405,-1.9701,-2.0289,-2.1316,-2.1742,-2.2099,-2.2547,-2.1777,-2.1064,-2.0554,-2.0081,-1.9994,-2.04,-2.0831,-2.1252,-2.1641,-2.2008,-2.2337,-2.2574,-2.3705,-2.4446,-2.4878,-2.6081,-2.6724,-2.6896,-2.7445,-2.7748,-2.7858,-2.8191,-2.8386,-2.8398,-2.7703,-2.6788,-2.5743,-2.4955,-2.4614,-2.4555,-2.4275,-2.4689,-2.517,-2.4025,0.0,0.0,0.0,0.0,0.0,0.0,0.0,0.0,0.0,0.0,0.0,0.0,0.0,0.0,0.0,0.0,0.0,0.0,0.0,0.0,0.0,0.0,0.0,0.0,-2.34,-2.3088,-2.3896,-2.3823,-2.3657,-2.3529,-2.3914,-2.4318,-2.4667,-2.519,-2.5653,-2.6003,-2.6463,-2.6829,-2.7037,-2.7497,-2.7852,-2.8127,-2.8482,-2.8424,-2.7922,-2.7754,-2.7438,-2.6971,-2.6486,-2.654,-2.7006,-2.6711,-2.6856,-2.7301,-2.6845,-2.656,-2.6358,-2.5678,-2.5403,0.0,0.0,0.0,0.0,0.0,-2.5397,-2.5691,0.0,0.0,0.0,0.0,0.0,0.0,0.0,-1.9438,-1.9357,-1.9305,-1.9932,-2.0393,-2.0484,-2.1073,-2.1477,-2.1568,-2.0768,-2.0278,-2.0316,-2.0352,-2.046,-2.0589,-2.1334,-2.1716,-2.1617,-2.2628,-2.3432,-2.3982,-2.5105,-2.6267,-2.7368,-2.7562,-2.8021,-2.8706,-2.9496,-2.9995,-3.0289,-3.1132,-3.15,-3.1495,-3.1447,-3.0155,-2.8099,-2.6583,-2.6914,-2.7998,-2.6414,-2.6339,-2.6728,-2.5097,0.0,0.0,0.0,0.0,0.0,0.0,0.0,0.0,0.0,0.0,0.0,0.0,0.0,0.0,0.0,0.0,0.0,0.0,0.0,0.0,0.0,0.0,0.0,0.0,-2.426,-2.4554,-2.5381,-2.4243,-2.3601,-2.4373,-2.4428,-2.4704,-2.5436,-2.5544,-2.5871,-2.6582,-2.6504,-2.676,-2.7585,-2.7646,0.0,0.0,0.0,-2.8062,-2.8062,-2.7387,-2.7062,-2.7062,-2.6969,-2.6988,-2.7138,-2.7601,-2.7882,-2.7981,-2.7221,-2.7218,-2.7677,-2.6153,-2.555,-2.555,-2.555,-2.5949,-2.6588,-2.6771,-2.6559,-2.6309,0.0,0.0,0.0,0.0,0.0,0.0,0.0,-1.9405,-1.9305,-1.9305,-1.9436,-1.9785,-2.0429,-2.0044,-2.0026,-2.0686,-1.9994,-1.9762,-2.0349,-2.0353,-2.0916,-2.2264,-2.2575,-2.2978,-2.3563,-2.4388,-2.4901,-2.5001,-2.6986,-2.7669,-2.7092,-2.863,-2.9287,-2.9183,-2.9771,-3.043,-3.1143,-3.2151,-3.2582,-3.2656,-3.3271,-3.2047,-2.9803,-2.9305,-2.8772,-2.8147,-2.7177,-2.7345,-2.7755,-2.6094,-2.6209,-2.6909,-2.6101,-2.4652,0.0,0.0,0.0,0.0,0.0,0.0,0.0,0.0,0.0,0.0,0.0,0.0,0.0,0.0,0.0,0.0,0.0,0.0,0.0,-2.5052,-2.4944,-2.5049,-2.5923,-2.5534,-2.5423,-2.6066,-2.5937,-2.5853,-2.6036,-2.6387,-2.6669,-2.6839,-2.7388,-2.8073,-2.8889,-2.9188,-2.9681,-3.0432,-2.999,-2.9751,-2.9751,-2.8948,-2.8566,-2.8566,-2.7926,0.0,-2.8588,-2.8029,-2.8154,-2.8778,-2.8613,-2.8264,-2.7714,-2.6759,-2.6374,-2.6374,-2.6374,-2.6337,-2.6431,-2.7725,-2.759,-2.6861,0.0,0.0,0.0,0.0,0.0,0.0,0.0,-1.9372,-1.9305,-1.9305,-1.9323,-1.9488,-1.9858,-1.9562,-1.9522,-1.9911,-1.9565,-1.9627,-2.04,-2.0769,-2.1516,-2.2757,-2.3251,-2.3673,-2.3999,-2.4782,-2.5382,-2.5736,-2.7659,-2.8536,-2.8432,-3.0186,-3.0984,-3.0962,-3.201,-3.2868,-3.3506,-3.4444,-3.4841,-3.489,-3.5273,-3.4445,-3.2789,-3.1861,-3.0702,-2.9475,-2.9063,-2.8914,-2.8727,-2.7475,-2.7081,-2.7001,-2.6211,-2.4884,-2.3696,0.0,0.0,0.0,0.0,0.0,0.0,0.0,0.0,0.0,0.0,0.0,0.0,0.0,0.0,-2.4756,-2.4593,0.0,-2.5408,-2.5488,-2.552,-2.5786,-2.6458,-2.6749,-2.6709,-2.6222,-2.6032,-2.6108,-2.6512,-2.6777,-2.7236,-2.8039,-2.8311,-2.8718,-2.9269,-2.9474,-2.9611,-2.9727,-3.0045,-3.0008,-2.9604,-2.9604,-2.9402,-2.8994,-2.8594,-2.8613,-2.8975,-2.8594,-2.8631,-2.8975,-2.8576,-2.8411,-2.8319,-2.7108,-2.6746,-2.6945,-2.6563,-2.6822,-2.7508,-2.8286,-2.8048,-2.7356,0.0,0.0,0.0,0.0,0.0,0.0,0.0,-1.9338,-1.9305,-1.9305,-1.9357,-1.9357,-1.9323,-1.921,-1.9166,-1.9166,-1.9378,-1.9879,-2.0706,-2.157,-2.2373,-2.3031,-2.3981,-2.4379,-2.4153,-2.5263,-2.6109,-2.6675,-2.8449,-2.9626,-3.0305,-3.1759,-3.2609,-3.304,-3.4365,-3.5284,-3.5895,-3.6901,-3.7249,-3.7128,-3.7392,-3.6786,-3.5597,-3.4203,-3.2564,-3.1032,-3.0803,-3.011,-2.9175,-2.8689,-2.7729,-2.6686,-2.6188,-2.511,-2.4019,-2.4105,-2.3667,0.0,0.0,0.0,0.0,0.0,0.0,0.0,0.0,-2.3562,-2.4003,-2.496,-2.5459,-2.5721,-2.5775,-2.6263,-2.6486,-2.5938,-2.6208,-2.6677,-2.7192,-2.7784,-2.7727,-2.6578,-2.6542,-2.679,-2.7234,-2.7404,-2.8017,-2.9237,-2.9084,-2.9154,-2.9645,-2.9663,-2.9533,-2.9282,-2.9958,-3.0045,-2.9475,-2.9806,-2.9732,-2.9214,-2.9025,-2.8952,-2.8994,-2.8881,-2.8905,-2.8957,-2.8256,-2.8233,-2.8594,-2.7464,-2.7105,-2.7247,-2.6826,-2.7398,-2.8422,-2.8422,-2.8083,-2.7612,0.0,0.0,0.0,0.0,0.0,0.0,0.0,0.0,-1.9305,-1.9305,-1.9323,-1.9305,-1.9305,-1.8728,-1.8333,-1.8333,-1.9583,-2.0724,-2.1602,-2.2959,-2.3817,-2.4024,-2.545,-2.5844,-2.5069,-2.7237,-2.8367,-2.8316,-3.0659,-3.1836,-3.1944,-3.2849,-3.3734,-3.4663,-3.5006,-3.5733,-3.6771,-3.8546,-3.884,-3.8227,-3.9488,-3.8652,-3.6603,-3.6173,-3.4338,-3.186,-3.1146,-2.9794,-2.8445,-2.9058,-2.8436,-2.7505,-2.8142,-2.7018,-2.5504,-2.5618,-2.4587,-2.3336,-2.3241,-2.302,-2.3137,-2.4458,-2.4896,-2.538,0.0,-2.7295,-2.7005,-2.5925,-2.6305,-2.6369,-2.4931,-2.589,-2.6843,-2.6765,-2.7207,-2.7789,-2.8486,-2.847,-2.8522,-2.9037,-2.9597,-2.9605,-2.8685,-2.9225,-2.9604,-2.9486,-2.9436,-2.9865,-3.0929,-3.0997,-3.1213,-3.1681,-3.1129,-3.0927,-3.1127,-2.9806,-2.9457,-3.0063,-2.9113,-2.8767,-2.8994,-2.8438,-2.8489,-2.8975,-2.8652,-2.8154,-2.7604,-2.8154,-2.7817,-2.704,-2.7969,-2.8111,-2.78,-2.78,-2.76,-2.7296,0.0,0.0,0.0,0.0,0.0,0.0,0.0,0.0,0.0,-1.9305,-1.9323,-1.9338,-1.9305,-1.9059,-1.889,-1.8842,-1.976,-2.0861,-2.2134,-2.3118,-2.4144,-2.5317,-2.599,-2.6409,-2.6603,-2.802,-2.8955,-2.93,-3.1256,-3.1962,-3.1546,-3.3753,-3.4907,-3.519,-3.6694,-3.7667,-3.826,-3.9189,-3.9238,-3.871,-3.9407,-3.8449,-3.6533,-3.6453,-3.4191,-3.1067,-3.0711,-2.9537,0.0,-2.8452,-2.7797,-2.6954,-2.7731,-2.6982,-2.5689,-2.5265,-2.4899,-2.4527,-2.4025,-2.4033,-2.4294,-2.4646,-2.5327,-2.6109,-2.6854,-2.7137,-2.7348,-2.7652,-2.8047,-2.8208,-2.7844,-2.8454,-2.8881,-2.8592,-2.8886,-2.9171,-2.9301,-2.9242,-2.9074,-2.8885,-3.0068,-3.0459,-2.9332,-2.9503,-2.9849,-3.0162,-3.0196,-3.0456,-3.1126,-3.1144,-3.0932,-3.0489,-3.0998,-3.0941,-3.018,-2.9981,-2.9818,-2.9674,-2.8756,-2.8612,-2.916,-2.8899,-2.9177,-2.9782,-2.9251,-2.9071,-2.908,-2.8048,-2.7754,-2.7964,-2.7556,-2.7666,-2.8056,-2.7799,-2.7369,-2.6925,0.0,0.0,0.0,0.0,0.0,0.0,0.0,0.0,0.0,0.0,-1.9338,-1.9341,-1.9259,-1.9277,-1.9261,-1.918,-1.9756,-2.0715,-2.2026,-2.3133,-2.4349,-2.5703,-2.6369,-2.7097,-2.7822,-2.8857,-2.974,-3.0495,-3.1882,-3.2371,-3.2063,-3.4613,-3.5879,-3.6022,-3.7968,-3.8931,-3.9185,-3.9589,-3.9407,-3.891,-3.9007,-3.7803,-3.5929,-3.5432,-3.3015,-2.995,-3.0282,-2.9049,-2.729,-2.7511,-2.6863,-2.6095,-2.689,-2.6555,-2.5736,-2.5189,-2.5113,-2.5181,-2.4878,-2.5042,-2.5365,-2.5703,-2.6606,-2.7465,-2.7687,-2.8047,-2.8588,-2.9457,-2.969,-2.9809,-2.9994,-3.0159,-3.0159,-2.9793,-2.9764,-2.979,-2.9742,-2.971,-2.9418,-2.8798,-3.0124,-3.0749,-2.992,-3.011,-3.0474,-3.0955,-3.0989,-3.115,-3.1408,-3.134,-3.0861,-2.9964,-3.1107,-3.116,-2.9946,-3.0499,-3.0499,-2.9929,-2.9023,-2.898,-2.9608,-2.9608,-2.9852,-3.026,-2.971,-2.9781,-3.0171,-2.8468,-2.8259,-2.8879,-2.7857,-2.7966,-2.8644,-2.8201,-2.7581,-2.6962,0.0,0.0,0.0,0.0,0.0,0.0,0.0,0.0,0.0,0.0,0.0,0.0,0.0,-1.9048,-1.8964,-1.8825,-1.9541,-2.0326,-2.109,-2.3289,-2.4587,-2.4659,-2.6817,-2.8174,-2.8456,-2.9953,-3.1227,-3.2219,-3.2987,-3.3767,-3.4618,-3.5495,-3.6479,-3.7561,-3.8285,-3.8762,-3.9069,-3.9771,-3.9623,-3.8862,-3.8701,-3.7161,-3.4741,-3.3001,-3.0812,-2.8789,-2.9968,-2.8224,-2.5486,-2.6277,-2.5874,-2.5172,-2.5986,-2.6128,-2.5991,-2.6033,-2.538,-2.4782,-2.5554,-2.564,-2.6055,-2.8388,-2.9479,-3.0194,-3.0896,-3.1651,-3.2019,-3.1199,-3.0957,-3.0627,-2.9931,-2.9742,-2.9726,-2.9809,-2.9216,-2.9007,-2.9706,-2.9693,-2.9591,-2.9574,-3.0266,-3.0714,-3.0662,-3.1586,-3.2092,-3.1802,-3.1765,-3.193,-3.2248,-3.1966,-3.169,-3.1538,-3.1961,-3.1962,-3.152,-3.1471,-3.1471,-3.1502,-3.0459,-3.0106,-3.0362,-3.0362,-3.0247,-3.0018,-3.0001,-3.0001,-3.0018,-2.9948,-2.9754,-2.9506,-2.9787,-2.9721,-2.9438,-2.9017,-2.8399,-2.767,0.0,0.0,0.0,0.0,0.0,0.0,0.0,0.0,0.0,0.0,0.0,0.0,0.0,0.0,0.0,0.0,-1.9369,-2.0047,-2.0784,-2.2404,-2.3673,-2.436,-2.6127,-2.7457,-2.821,-2.9431,-3.0748,-3.2105,-3.2508,-3.3156,-3.3996,-3.4804,-3.5483,-3.6051,-3.6754,-3.7106,-3.7237,-3.7674,-3.7821,-3.7692,-3.6699,-3.5695,-3.4527,-3.1801,-2.9573,-2.7851,0.0,-2.6155,-2.5154,-2.547,-2.495,-2.4339,-2.5198,-2.5045,-2.4631,-2.5103,-2.5416,-2.5721,-2.6415,-2.7344,-2.8375,-2.9609,-3.0468,-3.1323,-3.2458,-3.2546,-3.2476,-3.2634,-3.1392,-3.0138,-2.9843,-2.9408,-2.9094,-2.9077,-2.9318,-2.9562,-2.9758,-2.9275,-2.8847,-2.8798,-2.9437,-2.9903,-2.9903,-3.0698,-3.1392,-3.1748,-3.18,-3.1856,-3.1948,-3.234,-3.2048,-3.1027,-3.2071,-3.2123,-3.0993,-3.1481,-3.1463,-3.0993,-3.0646,-3.0507,-3.0626,-3.1586,-3.1759,-3.1202,-3.1202,-3.1202,-3.1115,-3.0092,-2.992,-3.0231,-2.985,-2.992,-3.0212,-2.9446,-2.8732,-2.8031,0.0,0.0,0.0,0.0,0.0,0.0,0.0,0.0,0.0,0.0,0.0,0.0,0.0,0.0,0.0,0.0,0.0,-1.9412,-2.0157,-2.125,-2.2306,-2.33,-2.4558,-2.5682,-2.6757,-2.7406,-2.8416,-2.9808,-3.0234,-3.0903,-3.1837,-3.2593,-3.3433,-3.4293,-3.4743,-3.5266,-3.5781,-3.5633,-3.5717,-3.5793,-3.4293,-3.3287,-3.2401,-2.9755,-2.7934,0.0,-2.5168,-2.4411,-2.4172,-2.4569,-2.4133,-2.3585,-2.4444,-2.4714,-2.4795,-2.5213,-2.6327,-2.7565,-2.8236,-2.9331,-3.0438,-3.108,-3.1554,-3.2095,-3.2932,-3.2739,-3.2458,-3.2651,-3.1198,-2.9819,-2.954,-2.8862,-2.8324,-2.8307,-2.8481,-2.8725,-2.894,-2.8476,-2.8172,-2.8401,-2.9058,-2.961,-2.9903,-3.0386,-3.0886,-3.1369,-3.1403,-3.1403,-3.1403,-3.211,-3.2179,-3.1507,-3.2679,-3.2731,-3.1489,-3.1955,-3.1817,-3.1093,-3.1351,-3.1526,-3.1614,-3.2803,-3.2959,-3.2271,-3.2234,-3.2078,-3.175,-3.0731,-3.0663,-3.1095,-3.0524,-3.0644,-3.0967,-3.0084,-2.949,-2.8936,0.0,0.0,0.0,0.0,0.0,0.0,0.0,0.0,0.0,0.0,0.0,0.0,0.0,0.0,0.0,0.0,0.0,0.0,-1.9189,-1.9929,-2.067,-2.1453,-2.2203,-2.3146,-2.43,-2.4206,-2.4696,-2.5893,-2.6524,-2.7422,-2.8522,-2.9239,-3.0578,-3.2391,-3.2271,-3.3083,-3.4494,-3.368,-3.3368,-3.3267,-3.1637,-3.0158,-2.8706,-2.7001,-2.5889,-2.5122,-2.4021,-2.3138,-2.2625,-2.3662,-2.3502,-2.3047,-2.3794,-2.5081,-2.6291,-2.6327,-2.7991,-2.9997,-3.0767,-3.1488,-3.2134,-3.2751,-3.2737,-3.2557,-3.2475,-3.2388,-3.2091,-3.1352,-3.041,-2.9505,-2.8851,-2.7989,-2.7374,-2.7452,-2.6882,-2.6648,-2.733,-2.7425,-2.7673,-2.8434,-2.9144,-2.9903,-3.0695,-3.0798,-3.0798,-3.0728,-3.0764,-3.08,-3.08,-3.1541,-3.2265,-3.2886,-3.368,-3.3697,-3.2904,-3.2869,-3.2524,-3.1921,-3.2593,-3.2959,-3.3107,-3.3809,-3.3723,-3.302,-3.2942,-3.2513,-3.1842,-3.1802,-3.1804,-3.179,-3.1748,-3.1728,-3.162,-3.0788,-3.0444,-3.0104,0.0,0.0,0.0,0.0,0.0,0.0,0.0,0.0,0.0,0.0,0.0,0.0,0.0,0.0,0.0,0.0,0.0,0.0,-1.8487,-1.9115,-1.9631,-1.9878,-2.111,-2.2212,-2.3102,-2.3315,-2.4098,-2.5604,-2.5954,-2.6606,-2.7479,-2.768,-2.8336,-2.9357,-2.8761,-2.9041,-2.997,-2.9755,-3.008,-3.062,-2.8837,-2.839,-2.8421,-2.5416,-2.453,-2.4744,-2.3205,-2.2485,-2.2439,-2.344,-2.4148,-2.4593,-2.4599,-2.5339,-2.6354,-2.6952,-2.8402,-2.9997,-3.0767,-3.1988,-3.3021,-3.3055,-3.2737,-3.2561,-3.2983,-3.2108,-3.1133,-3.0924,-2.8925,-2.7074,-2.6678,-2.607,-2.5652,-2.5727,-2.6281,-2.6652,-2.6556,-2.6957,-2.7631,-2.8747,-2.9972,-3.0968,-3.1732,-3.2309,-3.2256,-3.1274,-3.1918,-3.2334,-3.2334,-3.3611,-3.3886,-3.2938,-3.368,-3.3697,-3.2904,-3.2352,-3.2559,-3.3507,-3.3093,-3.2904,-3.2976,-3.3775,-3.3433,-3.2241,-3.2867,-3.2347,-3.1115,-3.1633,-3.1165,-3.0196,-3.0967,-3.0955,-3.0417,-3.0112,-2.9668,-2.9014,0.0,0.0,0.0,0.0,0.0,0.0,0.0,0.0,0.0,0.0,0.0,0.0,0.0,0.0,0.0,0.0,0.0,0.0,0.0,-1.8358,-1.8558,-1.8726,-1.9416,-2.0072,-2.0663,-2.0819,-2.1354,-2.2293,-2.2776,-2.3466,-2.4331,-2.4296,-2.4956,-2.6131,-2.5346,-2.5651,-2.6698,-2.6375,-2.6757,0.0,0.0,-2.5906,-2.6237,-2.4316,-2.3865,-2.4154,-2.3115,-2.2886,-2.311,-2.3236,-2.4009,-2.5028,-2.5661,-2.6477,-2.7392,-2.8458,-2.9872,-3.1193,-3.1494,-3.2702,-3.3723,-3.2849,-3.2403,-3.2127,-3.1689,-3.0612,-2.9575,-2.9196,-2.7523,-2.6018,-2.5732,-2.5197,-2.4628,-2.4213,-2.4977,-2.553,-2.5246,-2.5789,-2.6972,-2.8917,-2.9839,-3.0838,-3.2185,-3.273,-3.28,-3.2425,-3.2286,-3.2246,-3.2246,-3.3588,-3.4138,-3.359,-3.4238,-3.4042,-3.2921,-3.249,-3.2541,-3.3076,-3.3317,-3.3287,-3.3072,-3.3852,-3.3578,-3.2505,-3.2993,-3.2279,-3.082,-3.1236,-3.0872,-3.0127,-3.0462,-3.0543,-3.0398,-2.9632,-2.9124,-2.8735,0.0,0.0,0.0,0.0,0.0,0.0,0.0,0.0,0.0,0.0,0.0,0.0,0.0,0.0,0.0,0.0,0.0,0.0,0.0,0.0,-1.7766,-1.7983,-1.7766,-1.7822,-1.8229,-1.8143,-1.8164,-1.8306,-1.896,-1.9715,-2.057,-2.0498,-2.1376,-2.2946,-2.2219,-2.2714,-2.4051,-2.3458,-2.3563,-2.4112,-2.3561,-2.3369,-2.3412,0.0,-2.3553,-2.3463,-2.317,-2.3412,-2.3742,-2.3068,-2.3815,-2.5305,-2.6777,-2.7878,-2.8891,-3.019,-3.1533,-3.2542,-3.235,-3.3266,-3.3932,-3.2317,-3.1776,-3.1219,-2.9592,-2.8544,-2.7705,-2.6954,-2.6221,-2.5615,-2.5341,-2.4833,-2.4099,-2.3137,-2.3552,-2.4,-2.3968,-2.4543,-2.6043,-2.8751,-2.9329,-3.0285,-3.222,-3.2599,-3.2994,-3.3623,-3.2397,-3.1654,-3.1704,-3.2907,-3.388,-3.449,-3.4812,-3.4255,-3.2827,-3.2779,-3.2435,-3.1788,-3.3205,-3.3598,-3.3092,-3.3654,-3.3571,-3.2956,-3.2852,-3.1929,-3.0472,-3.0472,-3.042,-3.0281,-2.9956,-3.0152,-3.0476,-2.9172,-2.8715,-2.8682,0.0,0.0,0.0,0.0,0.0,0.0,0.0,0.0,0.0,0.0,-1.6981,-1.7236,0.0,0.0,0.0,0.0,0.0,0.0,0.0,0.0,0.0,-1.8,-1.79,-1.8189,-1.8893,-1.8329,-1.8334,-1.8933,-1.907,-1.923,-1.939,-1.9369,-1.9901,-2.0798,-2.0015,-2.0183,-2.1059,-2.0992,-2.1115,-2.1437,-2.1805,-2.2095,-2.2329,-2.2772,0.0,0.0,-2.2142,-2.1977,-2.2218,-2.3273,-2.5307,-2.7395,-2.7373,-2.8486,-2.9964,-3.075,-3.1208,-3.1542,-3.2141,-3.251,-3.2477,-3.1583,-3.0541,-2.9523,-2.8544,-2.7131,-2.5979,-2.5729,-2.5122,-2.4585,-2.4296,-2.4164,-2.3918,-2.3404,-2.3486,-2.3728,-2.4096,-2.4639,-2.5757,-2.7825,-2.9603,-3.1026,-3.199,-3.3161,-3.3727,-3.3399,-3.3125,-3.3078,-3.3271,-3.451,-3.5154,-3.5057,-3.4116,-3.326,-3.2394,-3.2149,-3.1854,-3.165,-3.2283,-3.2593,-3.2559,-3.2479,-3.2202,-3.1682,-3.097,-2.9963,-2.882,-2.8895,-2.8485,-2.7914,-2.8681,-2.8682,-2.8225,-2.8195,-2.8211,-2.8132,0.0,0.0,0.0,0.0,0.0,0.0,0.0,-1.6399,-1.6755,-1.6342,-1.6901,-1.7514,-1.791,-1.7944,-1.7944,0.0,0.0,0.0,0.0,0.0,0.0,0.0,-1.7726,-1.7901,-1.8455,-1.8132,-1.8154,-1.8534,0.0,-1.8517,-1.8472,-1.8467,-1.8671,-1.8971,-1.8626,-1.8694,-1.9069,-1.9147,-1.9492,-1.9969,-2.0715,-2.1371,-2.1906,0.0,0.0,0.0,-2.1901,-2.1867,-2.2216,-2.2556,-2.4326,-2.6592,-2.7718,-2.8669,-2.9572,-3.0558,-3.082,-3.0959,-3.156,-3.2024,-3.2018,-3.0888,-2.983,-2.8612,-2.7062,-2.5412,-2.4325,-2.4629,-2.4428,-2.423,-2.4397,-2.4513,-2.4165,-2.2907,-2.3119,-2.3474,-2.3522,-2.4062,-2.5195,-2.7208,-2.8618,-2.9884,-3.0942,-3.1998,-3.2506,-3.2218,-3.2218,-3.258,-3.3451,-3.4316,-3.4918,-3.5173,-3.3728,-3.2916,-3.2889,-3.2087,-3.1479,-3.1032,-3.1625,-3.1774,-3.147,-3.1348,-3.1187,-3.092,-3.0217,-2.9286,-2.8317,-2.8031,-2.7644,-2.7226,-2.7525,-2.764,-2.7615,-2.7174,-2.7257,-2.7522,0.0,0.0,0.0,0.0,0.0,0.0,0.0,-1.7041,-1.7326,-1.6241,-1.7084,-1.7772,-1.7794,-1.7816,-1.7839,0.0,0.0,0.0,0.0,0.0,0.0,0.0,0.0,0.0,-1.7794,0.0,0.0,-1.7856,-1.7816,0.0,0.0,0.0,0.0,0.0,-1.7839,-1.7862,-1.7901,-1.8012,-1.8382,0.0,0.0,-2.0864,-2.1496,0.0,0.0,0.0,0.0,-2.1449,-2.1861,-2.1455,-2.2496,-2.4326,-2.6623,-2.7799,-2.8499,-2.9489,-3.0022,-3.0347,-3.0662,-3.1292,-3.1472,-2.9968,-2.8858,-2.7578,-2.5615,-2.3911,-2.2936,-2.3619,-2.3768,-2.3869,-2.4277,-2.4444,-2.3965,-2.2229,-2.2387,-2.2783,-2.2941,-2.3317,-2.4351,-2.6419,-2.7494,-2.8521,-2.9627,-3.0638,-3.1223,-3.1223,-3.1223,-3.181,-3.3149,-3.3665,-3.4299,-3.5087,-3.3362,-3.2674,-3.31,-3.1941,-3.1064,-3.0455,-3.11,-3.1236,-3.0907,-3.0674,-3.0608,-3.0642,-2.9812,-2.8979,-2.8197,-2.7432,-2.7114,-2.7131,-2.6668,-2.684,-2.7219,-2.6322,-2.6372,-2.6825,0.0,0.0,0.0,0.0,0.0,0.0,0.0,-1.7156,-1.6961,-1.7367,-1.7597,-1.7681,-1.7559,-1.7589,-1.7635,0.0,0.0,0.0,0.0,0.0,0.0,0.0,0.0,0.0,0.0,0.0,0.0,-1.7472,-1.7216,0.0,0.0,0.0,0.0,0.0,0.0,-1.7811,-1.7811,-1.7905,0.0,0.0,0.0,0.0,0.0,0.0,0.0,0.0,0.0,-1.943,-1.9527,-2.0189,-2.0548,-2.0993,-2.2497,-2.4859,-2.7078,-2.7063,-2.8047,-2.9166,-2.9197,-2.9741,-2.9928,-2.841,-2.6889,-2.5563,-2.4641,-2.3167,-2.2185,-2.2872,-2.299,-2.2992,-2.2931,-2.2769,-2.2362,-2.1504,-2.0987,-2.124,-2.2869,-2.2834,-2.328,-2.4997,-2.6893,-2.8142,-2.8268,-3.0069,-3.1223,-3.1223,-3.1223,-3.1722,-3.2934,-3.324,-3.3799,-3.4828,-3.2959,-3.2024,-3.2134,-3.11,-3.0489,-3.0212,-3.0663,-3.1229,-3.1841,-3.0919,-3.069,-3.0863,-2.9237,-2.8366,-2.8021,-2.6671,-2.6513,-2.7052,-2.6344,-2.6081,-2.6129,-2.6024,-2.604,-2.6103,0.0,0.0,0.0,0.0,0.0,0.0,-1.6574,-1.6491,-1.6392,-1.6441,-1.6762,-1.7059,-1.7239,-1.7441,-1.7552,-1.7542,0.0,0.0,0.0,0.0,0.0,0.0,0.0,0.0,0.0,0.0,-1.6944,-1.7044,-1.6917,0.0,0.0,0.0,0.0,0.0,0.0,-1.7675,-1.767,-1.7738,0.0,0.0,0.0,0.0,0.0,0.0,0.0,0.0,0.0,0.0,-1.9081,-1.8961,-1.9177,-1.9498,-1.9453,-2.0857,-2.2862,-2.4577,-2.6286,-2.7671,-2.7914,-2.8703,-2.9055,-2.7456,-2.625,-2.5098,-2.38,-2.2632,-2.2056,-2.2742,-2.2891,-2.2876,-2.2702,-2.2638,-2.22,-2.1053,-2.0663,-2.0839,-2.1719,-2.1692,-2.2216,-2.3889,-2.518,-2.6376,-2.7415,-2.8252,-2.89,-2.9295,-3.0496,-3.1242,-3.131,-3.2212,-3.2946,-3.3462,-3.2175,-3.163,-3.201,-3.0868,-3.0462,-3.0796,-3.0974,-3.1198,-3.1486,-3.072,-3.0386,-3.0446,-2.8905,-2.7945,-2.7415,-2.6419,-2.593,-2.5787,-2.5487,-2.5377,-2.5377,-2.5377,-2.5645,-2.5945,0.0,0.0,0.0,0.0,0.0,-1.584,-1.6039,-1.5901,-1.5834,-1.5941,-1.6321,-1.6682,-1.6928,-1.7183,-1.7338,-1.7232,-1.7126,0.0,0.0,0.0,0.0,0.0,0.0,0.0,0.0,0.0,-1.6596,-1.6683,-1.6607,-1.6601,0.0,0.0,-1.6981,-1.7057,0.0,0.0,0.0,0.0,0.0,0.0,0.0,0.0,0.0,0.0,0.0,0.0,0.0,0.0,0.0,0.0,0.0,-1.8394,-1.7693,-1.8228,-1.9558,-2.1859,-2.3883,-2.5497,-2.5977,-2.6823,-2.7324,-2.6175,-2.5209,-2.4262,-2.3106,-2.2305,-2.1947,-2.246,-2.2545,-2.2452,-2.2311,-2.2183,-2.1729,-2.0709,-2.0395,-2.0454,-2.0929,-2.0909,-2.1409,-2.2879,-2.3659,-2.4622,-2.6045,-2.6848,-2.758,-2.8347,-2.9769,-3.048,-3.0196,-3.1302,-3.2141,-3.2504,-3.1678,-3.1499,-3.2096,-3.0815,-3.0638,-3.1523,-3.1523,-3.1634,-3.1808,-3.0891,-3.0496,-3.0417,-2.9011,-2.8142,-2.7636,-2.6704,-2.604,-2.5607,-2.5163,-2.5005,-2.5005,-2.5005,-2.5282,-2.5629,0.0,0.0,0.0,0.0,0.0,0.0,-1.6499,-1.5607,-1.5245,-1.6417,-1.6712,-1.6763,-1.6623,-1.6841,-1.6892,-1.6633,-1.6841,0.0,0.0,0.0,0.0,0.0,0.0,0.0,0.0,0.0,-1.6145,-1.6402,-1.6145,-1.5996,-1.6011,-1.6276,-1.6413,-1.6432,0.0,0.0,0.0,0.0,0.0,0.0,0.0,0.0,0.0,0.0,0.0,0.0,0.0,0.0,0.0,0.0,0.0,0.0,0.0,-1.7657,-1.8081,-1.8917,-2.0661,-2.2492,-2.3079,-2.3797,-2.4333,-2.4262,-2.337,-2.2508,-2.2521,-2.2149,-2.1797,-2.1797,-2.1711,-2.1559,-2.1356,-2.0942,-2.0563,-2.0444,-1.9909,-1.9863,-2.0855,-2.076,-2.0978,-2.1911,-2.2674,-2.3346,-2.3975,-2.6207,-2.8029,-2.9012,-2.9091,-2.9453,-3.0148,-3.0844,-3.1539,-3.2285,-3.1586,-3.1555,-3.2301,-3.0875,-3.0875,-3.2301,-3.2301,-3.2613,-3.323,-3.1839,-3.1207,-3.1128,-2.9675,-2.9075,-2.8965,-2.7652,-2.7083,-2.6941,-2.5559,-2.5005,-2.5005,-2.5005,-2.5005,-2.5021,0.0,0.0,0.0,0.0,0.0,0.0,0.0,-1.5242,-1.5314,-1.5973,-1.6004,-1.606,-1.6293,-1.6581,-1.6607,-1.634,-1.6581,0.0,0.0,0.0,0.0,0.0,0.0,0.0,0.0,0.0,-1.5839,-1.5764,-1.5754,-1.5726,-1.5726,-1.5942,-1.6111,-1.6219,-1.6644,-1.6913,0.0,0.0,0.0,0.0,0.0,0.0,-1.9135,0.0,0.0,0.0,0.0,0.0,0.0,0.0,0.0,0.0,0.0,0.0,0.0,-1.6846,-1.8708,-2.0779,-2.0751,-2.144,-2.2044,-2.1453,-2.1068,-2.077,-2.0791,-2.0784,-2.0904,-2.135,-2.1542,-2.145,-2.0909,-2.0697,-2.0429,-1.9874,-1.9624,-1.9553,-1.9664,-2.0015,-2.0622,-2.156,-2.3277,-2.4283,-2.404,-2.5909,-2.7226,-2.7344,-2.8654,-2.9656,-3.0164,-3.1036,-3.1502,-3.1555,-3.1808,-3.2045,-3.2317,-3.1874,-3.2076,-3.2977,-3.2977,-3.2835,-3.2566,-3.1634,-3.0954,-3.0449,-2.9532,-2.86,-2.7715,-2.7288,-2.653,-2.5638,-2.5179,-2.5005,-2.5005,-2.5005,-2.5005,-2.5005,0.0,0.0,0.0,0.0,0.0,0.0,0.0,-1.455,-1.4818,-1.5278,-1.5479,-1.5687,-1.5907,-1.6176,-1.6215,-1.5953,-1.6246,0.0,0.0,0.0,0.0,0.0,0.0,0.0,0.0,-1.5654,-1.5639,-1.5492,-1.5536,-1.5566,-1.5581,-1.5697,-1.5797,-1.5885,-1.6243,-1.6444,0.0,0.0,0.0,0.0,0.0,0.0,-1.8201,0.0,0.0,0.0,0.0,0.0,0.0,0.0,0.0,0.0,0.0,0.0,0.0,0.0,-1.6981,-1.8434,-1.8764,-1.9305,-1.9758,-1.952,-1.9609,-1.9741,-1.9657,-2.0083,-2.0619,-2.0943,-2.1039,-2.0926,-2.053,-2.0311,-2.0126,-1.9916,-1.979,-1.9742,-1.9822,-2.0175,-2.0662,-2.123,-2.284,-2.3953,-2.4173,-2.5515,-2.6546,-2.7011,-2.8354,-2.9275,-2.9532,-3.0398,-3.0767,-3.0582,-3.1558,-3.206,-3.206,-3.2215,-3.2487,-3.2914,-3.3182,-3.2945,-3.2285,-3.1539,-3.0828,-3.0133,-2.9437,-2.8505,0.0,-2.7209,-2.632,-2.5152,-2.4916,-2.4726,-2.4645,-2.4645,-2.4686,-2.4806,0.0,0.0,0.0,0.0,0.0,0.0,0.0,-1.3708,-1.3964,-1.453,-1.5181,-1.558,-1.5507,-1.571,-1.5752,-1.5536,0.0,0.0,0.0,0.0,0.0,0.0,0.0,0.0,-1.5477,-1.5507,-1.5507,-1.5507,-1.5506,-1.5475,-1.546,-1.5476,-1.5477,-1.5462,-1.5739,-1.5881,0.0,0.0,0.0,0.0,0.0,0.0,0.0,0.0,0.0,0.0,0.0,0.0,0.0,0.0,0.0,0.0,0.0,0.0,0.0,0.0,0.0,0.0,0.0,-1.738,-1.7537,-1.8285,-1.8842,-1.9155,-1.8991,-1.9888,0.0,-2.0499,-2.0311,-2.0174,-2.0139,-1.9752,-1.9701,-2.0353,-2.0231,-2.0266,-2.0915,-2.1032,-2.1061,-2.1061,-2.1656,-2.2659,-2.4253,-2.4966,-2.6016,-2.7697,-2.8146,-2.8415,-2.8602,-2.9159,-2.9481,-2.9635,-3.0809,-3.1526,-3.1626,-3.206,-3.2317,-3.2333,-3.2866,-3.2787,-3.2143,-3.1444,-3.0765,-3.0069,-2.9422,-2.8665,-2.7924,-2.7308,-2.6412,-2.5335,-2.4689,-2.4276,-2.3982,-2.3982,-2.4193,-2.4498,0.0,0.0,0.0,0.0,0.0,0.0,0.0,0.0,0.0,0.0,-1.5138,-1.5522,-1.5507,-1.5566,-1.5595,0.0,0.0,0.0,0.0,0.0,0.0,0.0,0.0,0.0,-1.5418,-1.5463,-1.5433,-1.5358,-1.5388,-1.5328,-1.5102,-1.5268,-1.5268,-1.5149,-1.5404,-1.5782,0.0,0.0,0.0,0.0,0.0,0.0,0.0,0.0,0.0,0.0,-1.7019,-1.691,0.0,0.0,0.0,0.0,0.0,0.0,0.0,0.0,-1.5374,-1.5357,-1.5669,0.0,-1.6122,-1.6817,-1.7108,-1.7436,0.0,-1.9011,-1.9526,-1.9818,-2.005,-2.0035,-1.9522,-1.9354,-1.9441,-1.9879,-1.9755,-1.9888,-2.0874,-2.1438,-2.1757,-2.1757,-2.2323,-2.2831,-2.3227,-2.4309,-2.5433,-2.6673,-2.6846,-2.7689,-2.9459,-2.8505,-2.8606,-3.0093,-2.9973,-3.0463,-3.1678,-3.2112,-3.2317,-3.2317,-3.1887,-3.1334,-3.067,-3.0496,-3.0038,-2.9374,-2.9154,-2.8229,-2.6847,-2.6707,-2.5756,-2.4322,-2.417,-2.4067,-2.3982,-2.3982,-2.4193,-2.4498,0.0,0.0,0.0,0.0,0.0,0.0,0.0,0.0,0.0,0.0,0.0,-1.5418,-1.5418,-1.5418,0.0,0.0,0.0,0.0,0.0,0.0,0.0,0.0,0.0,-1.5448,-1.5344,-1.5388,-1.5358,-1.5313,-1.5328,-1.5239,-1.5013,-1.5118,-1.5058,-1.4904,-1.5058,-1.5344,-1.5767,0.0,0.0,0.0,-1.6554,0.0,0.0,0.0,0.0,0.0,-1.6841,-1.6533,0.0,-1.5898,-1.5417,-1.4906,0.0,0.0,0.0,0.0,-1.5074,-1.507,-1.5371,-1.5514,-1.5698,-1.608,-1.6683,-1.7348,-1.7854,-1.8484,-1.9013,-1.9236,-1.9369,-1.9332,-1.9072,-1.9035,-1.9224,-1.9931,-2.0087,-2.0425,-2.1323,-2.1426,-2.1528,-2.196,-2.2452,-2.3028,-2.3714,-2.4689,-2.5646,-2.6491,-2.6621,-2.7268,-2.8666,-2.7639,-2.7533,-2.871,-2.8601,-2.9128,-3.0422,-3.0975,-3.1283,-3.1302,-3.0857,-3.0367,-2.9939,-2.9728,-2.9242,-2.8559,-2.8559,-2.7829,-2.6658,-2.6396,-2.5438,-2.4131,-2.3859,-2.3625,-2.3509,-2.3509,-2.3711,-2.3994,0.0,0.0,0.0,0.0,0.0,0.0,0.0,0.0,0.0,0.0,0.0,0.0,0.0,0.0,0.0,0.0,0.0,0.0,0.0,0.0,0.0,0.0,-1.5358,-1.5313,-1.5313,-1.5313,-1.5283,-1.5238,-1.5181,-1.5019,-1.4809,-1.4809,-1.4805,-1.4763,-1.4777,-1.4873,-1.5074,-1.5074,-1.53,-1.5681,-1.5911,0.0,0.0,0.0,0.0,0.0,0.0,0.0,0.0,-1.4964,-1.4413,-1.3898,-1.4002,0.0,0.0,0.0,0.0,0.0,-1.5368,-1.5649,-1.5806,-1.6031,-1.6983,-1.7847,-1.7656,-1.8233,-1.8793,-1.8745,-1.862,-1.8542,-1.8721,-1.8721,-1.9038,-2.0021,-2.0755,-2.1427,-2.2147,-2.1656,-2.1441,-2.2149,-2.2575,-2.3316,-2.4621,-2.53,-2.5951,-2.6616,-2.6634,-2.6805,-2.7262,-2.664,-2.6438,-2.689,-2.7151,-2.7652,-2.8538,-2.9379,-2.9838,-2.9972,-2.9746,-2.948,-2.9277,-2.891,-2.8425,-2.7849,-2.7898,0.0,-2.6753,-2.6151,-2.5242,-2.4189,-2.3614,-2.3171,-2.2872,-2.3059,-2.3259,-2.3406,0.0,0.0,0.0,0.0,0.0,0.0,0.0,0.0,0.0,0.0,0.0,0.0,0.0,0.0,0.0,0.0,0.0,0.0,0.0,0.0,0.0,-1.5313,-1.5344,-1.5344,-1.5313,-1.5313,-1.5208,-1.5043,-1.4543,-1.414,-1.3903,-1.4021,-1.4258,-1.4547,-1.4655,-1.4794,-1.4937,-1.4982,-1.521,-1.5521,-1.5579,0.0,0.0,0.0,0.0,0.0,0.0,0.0,0.0,-1.5078,-1.4882,-1.4617,-1.4672,0.0,0.0,0.0,0.0,0.0,-1.4665,-1.5366,-1.623,-1.7034,-1.7408,-1.7679,-1.8018,-1.8316,-1.8503,-1.8347,-1.84,-1.8517,-1.8556,-1.84,-1.857,-1.9417,-2.0937,-2.2344,-2.3214,-2.3448,-2.3434,-2.3298,-2.3554,-2.3942,-2.4412,-2.483,-2.5311,-2.6014,-2.5533,-2.5689,-2.6833,-2.5762,-2.5664,-2.6792,-2.6355,-2.64,-2.6852,-2.8166,-2.8815,-2.8864,-2.8192,-2.787,-2.7816,-2.7765,-2.767,-2.7565,0.0,-2.7353,-2.6415,-2.5553,-2.4634,-2.3626,-2.3254,-2.2946,-2.279,-2.3803,-2.3818,-2.345,0.0,0.0,0.0,0.0,0.0,0.0,0.0,0.0,0.0,0.0,0.0,0.0,0.0,0.0,0.0,0.0,0.0,0.0,0.0,0.0,-1.5313,-1.5313,-1.5224,-1.502,-1.4659,-1.4645,-1.4414,-1.3913,-1.3984,-1.3727,-1.3233,-1.3464,-1.384,-1.4337,-1.4337,-1.4356,-1.4406,-1.4438,-1.4627,-1.4921,0.0,0.0,0.0,0.0,0.0,0.0,0.0,0.0,0.0,0.0,-1.3956,-1.3361,-1.3855,0.0,0.0,0.0,0.0,0.0,-1.5201,-1.5658,-1.6269,-1.6948,-1.7404,-1.7777,-1.7974,-1.8123,-1.8163,-1.8202,-1.8202,-1.8202,-1.8321,-1.8545,-1.9169,-2.0608,-2.1503,-2.2322,-2.315,-2.2743,-2.26,-2.316,-2.3574,-2.4077,-2.4643,-2.5131,-2.557,-2.5879,-2.5464,-2.5562,-2.6287,-2.5439,-2.5287,-2.6092,-2.5661,-2.5495,-2.5701,-2.6529,-2.7195,-2.7794,-2.6995,-2.6759,-2.6967,-2.6901,-2.6849,-2.6849,0.0,-2.7041,-2.6549,-2.5453,-2.4675,-2.4163,-2.3174,-2.2733,-2.2686,-2.3198,-2.332,-2.3187,0.0,0.0,0.0,0.0,0.0,0.0,0.0,0.0,0.0,0.0,0.0,0.0,0.0,0.0,0.0,0.0,0.0,0.0,0.0,0.0,-1.5238,-1.5238,-1.4914,-1.454,-1.4113,-1.4056,-1.3686,-1.2953,-1.3277,-1.3178,-1.2705,-1.2968,-1.3471,-1.4157,-1.4046,-1.4,-1.4,-1.3967,-1.4111,-1.4319,0.0,0.0,0.0,0.0,0.0,0.0,0.0,0.0,0.0,0.0,0.0,0.0,0.0,0.0,0.0,-1.4029,-1.452,-1.5008,-1.5372,-1.557,-1.5785,-1.6143,-1.6977,-1.7691,-1.7665,-1.7787,-1.7922,-1.8083,-1.8003,-1.7963,-1.8163,-1.8686,-1.9737,-2.1643,-2.1898,-2.221,-2.3322,-2.2471,-2.2248,-2.3451,-2.3834,-2.4238,-2.4773,-2.5382,-2.566,-2.555,-2.5411,-2.5481,-2.5674,-2.523,-2.5131,-2.5369,-2.5131,-2.5005,-2.5005,-2.512,-2.5685,-2.673,-2.6096,-2.6002,-2.6365,-2.6244,-2.6244,-2.6283,-2.6592,-2.664,-2.646,-2.5178,-2.463,-2.4462,-2.3216,-2.2822,-2.3001,-2.2761,-2.2898,-2.3091,0.0,0.0,0.0,0.0,0.0,0.0,0.0,0.0,0.0,0.0,0.0,0.0,0.0,0.0,0.0,0.0,0.0,0.0,0.0,0.0,-1.5013,-1.5013,-1.4366,-1.4011,-1.4113,-1.3983,-1.3557,-1.2803,-1.229,-1.2196,-1.2409,-1.2463,-1.3008,-1.4,-1.3927,-1.3927,-1.4,-1.3927,-1.396,-1.4032,-1.4052,0.0,0.0,0.0,0.0,0.0,0.0,0.0,0.0,0.0,0.0,0.0,0.0,0.0,-1.3955,-1.4009,-1.4053,-1.4096,-1.4123,-1.4336,-1.452,-1.4562,-1.5811,-1.706,-1.7079,-1.7489,-1.7882,-1.7922,-1.7922,-1.7963,-1.8163,-1.8686,-1.9608,-2.1172,-2.1549,-2.2392,-2.4571,-2.441,-2.4353,-2.5232,-2.5093,-2.4883,-2.4727,-2.4908,-2.4878,-2.4465,-2.4821,-2.5061,-2.5061,-2.5005,-2.5005,-2.5061,-2.5005,-2.5005,-2.5005,-2.4462,-2.4696,-2.5592,-2.555,-2.5702,-2.5948,-2.5948,-2.6042,-2.6283,-2.6351,-2.6179,-2.5807,-2.4546,-2.3886,-2.3555,-2.3195,-2.3554,-2.4155,-2.323,-2.3264,-2.3731,0.0,0.0,0.0,0.0,0.0,0.0,0.0,0.0,0.0,0.0,0.0,0.0,0.0,0.0,0.0,0.0,0.0,0.0,0.0,-1.4996,-1.4951,-1.4873,-1.4174,-1.3793,-1.3838,-1.3081,-1.2249,-1.1422,-1.1546,-1.2033,-1.2901,-1.2827,-1.3192,-1.3927,-1.3874,-1.3808,-1.3735,-1.3715,-1.3795,-1.3874,-1.3874,-1.396,0.0,0.0,0.0,0.0,0.0,0.0,0.0,0.0,-1.3824,-1.3558,-1.3866,-1.3974,-1.3974,-1.396,-1.4098,-1.4245,-1.4149,-1.4287,-1.4374,-1.4001,-1.4664,-1.566,-1.6388,-1.6955,-1.7434,-1.7801,-1.7882,-1.8031,-1.8481,-1.9656,-2.0745,-2.1429,-2.193,-2.273,-2.3974,-2.3721,-2.3662,-2.4234,-2.4234,-2.4105,-2.4047,-2.4105,-2.3903,-2.3436,-2.4081,-2.4433,-2.4059,-2.4689,-2.4842,-2.4462,-2.4462,-2.4462,-2.4462,-2.3865,-2.3933,-2.4641,-2.4641,-2.4792,-2.5117,-2.5466,-2.5588,-2.5491,-2.5873,-2.553,-2.4682,-2.4225,-2.3695,-2.3201,-2.2738,-2.2819,-2.3212,-2.2833,-2.2711,-2.2672,0.0,0.0,0.0,0.0,0.0,0.0,0.0,0.0,0.0,0.0,0.0,0.0,0.0,0.0,0.0,0.0,0.0,0.0,-1.4655,-1.461,-1.461,-1.456,-1.3809,-1.331,-1.3238,-1.2157,-1.1359,-1.089,-1.1241,-1.2002,-1.313,-1.3041,-1.3295,-1.3841,-1.3775,-1.3695,-1.3615,-1.3581,-1.3628,-1.3708,-1.3708,-1.3762,0.0,0.0,0.0,0.0,0.0,0.0,0.0,0.0,-1.3489,-1.3193,-1.3422,-1.3527,-1.3569,-1.3489,-1.3775,-1.4062,-1.395,-1.4077,-1.4093,-1.3667,-1.3874,-1.452,-1.5598,-1.635,-1.6994,-1.776,-1.7882,-1.8099,-1.8697,-1.9975,-2.1042,-2.1548,-2.2098,-2.2763,-2.35,-2.3185,-2.3078,-2.3518,-2.3577,-2.3518,-2.3412,-2.3518,-2.3364,-2.2865,-2.3553,-2.3857,-2.3503,-2.4092,-2.4259,-2.3852,-2.3852,-2.3852,-2.3852,-2.3189,-2.3146,-2.3553,-2.3553,-2.3861,-2.4424,-2.4855,-2.488,-2.4699,-2.5121,-2.4661,-2.3579,-2.3579,-2.3315,-2.289,-2.2267,-2.2292,-2.2678,-2.2476,-2.2235,-2.1989,0.0,0.0,0.0,0.0,0.0,0.0,0.0,0.0,0.0,0.0,0.0,0.0,0.0,0.0,0.0,0.0,0.0,0.0,-1.4406,-1.3967,-1.3835,-1.4084,-1.3136,-1.2471,-1.2208,-1.135,-1.1107,-1.1495,-1.1415,-1.1932,-1.301,-1.301,-1.3277,-1.3788,-1.3661,-1.3615,-1.3581,-1.3514,-1.348,-1.348,-1.348,-1.3547,-1.3615,0.0,0.0,0.0,0.0,0.0,0.0,0.0,-1.3281,-1.3226,-1.2742,-1.259,-1.2619,-1.2615,-1.2982,-1.3408,-1.338,-1.342,-1.3477,-1.3477,-1.3558,-1.3848,-1.472,-1.5615,-1.6586,-1.7666,-1.7896,-1.8113,-1.8711,-1.9368,-2.0188,-2.1366,-2.1822,-2.2343,-2.3428,-2.3185,-2.3078,-2.3518,-2.3577,-2.3412,-2.2969,-2.3292,-2.3412,-2.2896,-2.3193,-2.3365,-2.3365,-2.3272,-2.3175,-2.3175,-2.3175,-2.3175,-2.3175,-2.2603,-2.2291,-2.2305,-2.2291,-2.2908,-2.4011,-2.4011,-2.396,-2.3909,-2.396,-2.3381,-2.2487,-2.2628,-2.2636,-2.2543,-2.1883,-2.2146,-2.2815,-2.2236,-2.1989,-2.1975,0.0,0.0,0.0,0.0,0.0,0.0,0.0,0.0,0.0,0.0,0.0,0.0,0.0,0.0,0.0,0.0,0.0,0.0,-1.3769,-1.3702,-1.3635,-1.3488,-1.2766,-1.2467,-1.2667,-1.1982,-1.15,-1.1201,-1.1089,-1.1686,-1.293,-1.3349,-1.3651,-1.3788,-1.3741,-1.3441,-1.2981,-1.3347,-1.3229,-1.2831,-1.3259,-1.3459,-1.3514,0.0,0.0,0.0,0.0,0.0,0.0,0.0,0.0,0.0,-1.2647,-1.2607,-1.2593,-1.2591,-1.2537,-1.2579,-1.2896,-1.3048,-1.3087,-1.3087,-1.3468,-1.4058,-1.4761,-1.548,-1.6334,-1.7504,-1.8518,-1.899,-1.8475,-1.9562,-2.0416,-2.0155,-2.0869,-2.1564,-2.2014,-2.225,-2.2494,-2.2604,-2.2592,-2.2543,-2.2432,-2.2543,-2.2384,-2.1897,-2.2058,-2.2191,-2.218,-2.2372,-2.2472,-2.245,-2.2539,-2.259,-2.259,-2.1979,-2.1898,-2.2291,-2.1884,-2.2205,-2.3159,-2.3334,-2.319,-2.2743,-2.2906,-2.2347,-2.1345,-2.1667,-2.2007,-2.231,-2.208,-2.2126,-2.2309,-2.2511,-2.1815,-2.0727,0.0,0.0,0.0,0.0,0.0,0.0,0.0,0.0,0.0,0.0,0.0,0.0,0.0,0.0,0.0,0.0,0.0,0.0,0.0,-1.3087,-1.2947,-1.3045,-1.2577,-1.2307,-1.2267,-1.1407,-1.1081,-1.1298,-1.1276,-1.1797,-1.2804,-1.3158,-1.3323,-1.3288,-1.3254,-1.2964,-1.2518,-1.2817,-1.2611,-1.2103,-1.2675,-1.2795,-1.2691,0.0,0.0,0.0,0.0,0.0,0.0,0.0,0.0,0.0,-1.2144,-1.2118,-1.2166,-1.2396,-1.2427,-1.2524,-1.3017,-1.3319,-1.351,-1.351,-1.3817,-1.4295,-1.4856,-1.5575,-1.6395,-1.7323,-1.8188,-1.8668,-1.85,-1.9484,-2.0182,-1.9902,-2.0465,-2.0982,-2.1043,-2.1368,-2.1572,-2.1572,-2.1572,-2.1572,-2.1572,-2.1631,-2.1546,-2.1236,-2.1234,-2.1305,-2.1313,-2.1517,-2.1641,-2.1603,-2.1803,-2.1952,-2.1952,-2.1599,-2.1599,-2.1952,-2.1586,-2.171,-2.224,-2.2497,-2.2355,-2.179,-2.1455,-2.1062,-2.0708,-2.09,-2.134,-2.1837,-2.1688,-2.1785,-2.1975,-2.1859,-2.109,-2.0146,0.0,0.0,0.0,0.0,0.0,0.0,0.0,0.0,0.0,0.0,-1.3351,0.0,0.0,0.0,0.0,0.0,0.0,0.0,0.0,0.0,-1.1997,-1.2673,-1.2449,-1.2013,-1.1331,-1.0308,-1.0365,-1.1604,-1.1668,-1.2007,-1.2603,-1.2603,-1.2567,-1.2508,-1.2437,-1.2306,-1.214,-1.2126,-1.1849,-1.1422,-1.1906,-1.1825,-1.1537,-1.2,0.0,0.0,0.0,0.0,0.0,0.0,0.0,0.0,-1.1518,-1.1448,-1.1573,-1.2106,-1.2582,-1.3009,-1.3554,-1.3991,-1.4376,-1.4408,-1.4466,-1.4605,-1.5062,-1.5768,-1.6517,-1.699,-1.7242,-1.7606,-1.8546,-1.9132,-1.9599,-2.0147,-2.0365,-2.0493,-2.0538,-2.0529,-2.0553,-2.061,-2.0553,-2.0553,-2.061,-2.0677,-2.0756,-2.0817,-2.0674,-2.0592,-2.0604,-2.0731,-2.0746,-2.0795,-2.1113,-2.1355,-2.1423,-2.1369,-2.1369,-2.1423,-2.1423,-2.1396,-2.1342,-2.1636,-2.1513,-2.1019,-1.9843,-1.9764,-2.0354,-2.0373,-2.0694,-2.1161,-2.0827,-2.114,-2.1685,-2.0596,-2.0117,-2.0016,0.0,0.0,0.0,0.0,0.0,0.0,0.0,0.0,0.0,0.0,0.0,0.0,0.0,0.0,0.0,0.0,0.0,0.0,0.0,0.0,-1.1641,-1.2018,-1.1796,-1.1616,-1.1469,-1.1224,-1.1213,-1.1505,-1.1087,-1.1445,-1.2603,-1.2603,-1.2567,-1.2508,-1.2473,-1.213,-1.1606,-1.2,-1.1802,-1.1308,-1.1859,-1.2044,-1.1952,-1.2067,-1.192,0.0,0.0,0.0,0.0,0.0,0.0,0.0,-1.1832,-1.199,-1.2117,-1.2596,-1.2813,-1.3009,-1.3554,-1.3772,-1.3981,-1.4516,-1.4971,-1.5334,-1.5614,-1.5513,-1.5626,-1.633,-1.71,-1.7568,-1.7489,-1.83,-1.8919,-1.8724,-1.9251,-1.9705,-1.9961,-2.0163,-2.0367,-2.0586,-2.0181,-2.0077,-2.0553,-1.9994,-1.9815,-2.0299,-1.9999,-1.9857,-2.0004,-2.0332,-2.051,-2.066,-2.0676,-2.0901,-2.1423,-2.0914,-2.0914,-2.1423,-2.1616,-2.1478,-2.1005,-2.1363,-2.1008,-2.0144,-1.9422,-1.9173,-1.937,-1.9867,-2.0265,-2.0541,-2.0656,-2.0608,-2.0538,-2.0727,-2.0175,-1.9391,0.0,0.0,0.0,0.0,0.0,0.0,0.0,0.0,0.0,0.0,0.0,0.0,0.0,0.0,0.0,0.0,0.0,0.0,0.0,0.0,-1.1172,-1.1667,-1.1549,-1.141,-1.1373,-1.141,-1.141,-1.1373,-1.1155,-1.1408,-1.2077,-1.2041,-1.1968,-1.187,-1.1833,-1.1578,-1.1176,-1.1454,-1.1242,-1.0767,-1.1304,-1.1395,-1.1209,-1.145,-1.1389,-1.1201,-1.1276,0.0,0.0,0.0,0.0,0.0,0.0,0.0,-1.2312,-1.3042,-1.3,-1.284,-1.3557,-1.3488,-1.3334,-1.4068,-1.4466,-1.4789,-1.5198,-1.5198,-1.5187,-1.5466,-1.6254,-1.6839,-1.6871,-1.7581,-1.8154,-1.8208,-1.8465,-1.8809,-1.9318,-1.9195,-1.9078,-1.9347,-1.9134,-1.9078,-1.9371,-1.9309,-1.9518,-2.0044,-1.9801,-1.9787,-2.0128,-2.0411,-2.0479,-2.0253,-2.0408,-2.0508,-2.0595,-2.0283,-2.0283,-2.0595,-2.0813,-2.083,-2.0598,-2.0708,-2.0406,-1.976,-1.8993,-1.8817,-1.9081,-1.9371,-1.9712,-2.0103,-2.0323,-2.0258,-2.0103,-2.0088,-1.9667,-1.9145,0.0,0.0,0.0,0.0,0.0,0.0,0.0,0.0,0.0,0.0,0.0,0.0,0.0,0.0,0.0,0.0,0.0,0.0,0.0,0.0,0.0,-1.1557,-1.1437,-1.1309,-1.1185,-1.1309,-1.1309,-1.1185,-1.1373,-1.1448,-1.1448,-1.1421,-1.1309,-1.1185,-1.112,-1.1016,-1.0891,-1.0891,-1.0664,-1.0345,-1.0726,-1.0654,-1.0355,-1.0747,-1.0891,-1.0919,-1.1016,-1.1006,-1.093,-1.1016,0.0,0.0,0.0,0.0,-1.2405,-1.3379,-1.3183,-1.2752,-1.339,-1.3119,-1.2838,-1.3497,-1.3758,-1.3931,-1.4367,-1.4675,-1.4812,-1.4617,-1.5185,-1.5854,-1.6132,-1.6625,-1.7168,-1.7594,-1.7533,-1.7641,-1.8377,-1.7974,-1.7662,-1.7852,-1.7909,-1.7986,-1.8054,-1.8639,-1.9128,-1.9521,-1.9702,-1.9916,-2.0057,-2.0408,-2.0342,-1.9759,-2.004,-2.0053,-1.97,-1.9636,-1.9591,-1.9642,-1.9784,-1.9975,-2.0189,-1.9907,-1.9749,-1.9584,-1.8715,-1.8573,-1.8976,-1.8907,-1.9167,-1.9638,-1.985,-1.9928,-1.9856,-1.9304,-1.9101,-1.9101,0.0,0.0,0.0,0.0,0.0,0.0,0.0,0.0,0.0,0.0,-1.0475,-1.0526,0.0,0.0,0.0,0.0,0.0,0.0,-1.0101,0.0,0.0,-1.141,-1.1298,-1.1223,-1.1185,-1.1223,-1.1223,-1.1185,-1.1223,-1.1223,-1.1223,-1.1346,-1.1319,-1.113,-1.1092,-1.1016,-1.0891,-1.0891,-1.085,-1.0799,-1.086,-1.085,-1.0799,-1.086,-1.0891,-1.0891,-1.093,-1.093,-1.0891,-1.093,-1.1006,0.0,0.0,0.0,-1.2796,-1.339,-1.3354,-1.3038,-1.2741,-1.2811,-1.2972,-1.308,-1.3531,-1.3918,-1.3613,-1.3772,-1.3956,-1.392,-1.4592,-1.5085,-1.4667,-1.5067,-1.5426,-1.5492,-1.5658,-1.5953,-1.6265,-1.6748,-1.7017,-1.6903,-1.7186,-1.7536,-1.7898,-1.7808,-1.7863,-1.8251,-1.9041,-1.9202,-1.8384,-1.9278,-1.9637,-1.9153,-1.9034,-1.9225,-1.97,-1.933,-1.923,-1.9346,-1.9259,-1.9433,-1.9829,-1.9219,-1.9157,-1.9405,-1.8737,-1.8526,-1.859,-1.8758,-1.8874,-1.8951,-1.9156,-1.9232,-1.9217,-1.913,-1.9101,-1.9101,0.0,0.0,0.0,0.0,0.0,0.0,0.0,0.0,0.0,0.0,0.0,-0.9381,0.0,0.0,0.0,-0.8589,-0.8523,-0.8796,-0.9486,-1.0153,-1.0588,-1.0829,-1.1058,-1.112,-1.1033,-1.112,-1.112,-1.1033,-1.1147,-1.1147,-1.1033,-1.1158,-1.1158,-1.1092,-1.1006,-1.0968,-1.0891,-1.0891,-1.0891,-1.0891,-1.0891,-1.1074,-1.1261,-1.1012,-1.1074,-1.1261,-1.1012,-1.0891,-1.0891,-1.0891,-1.1006,-1.1197,-1.1888,0.0,0.0,0.0,-1.2994,-1.2284,-1.1743,-1.1875,-1.2197,-1.2407,-1.2649,-1.2971,-1.3239,-1.339,-1.3521,-1.3643,-1.3978,-1.4222,-1.4165,-1.4421,-1.4851,-1.5463,-1.5492,-1.5775,-1.6604,-1.6773,-1.6779,-1.686,-1.7211,-1.7494,-1.7665,-1.7861,-1.814,-1.8528,-1.898,-1.9053,-1.8655,-1.9093,-1.9038,-1.828,-1.821,-1.8183,-1.8173,-1.8022,-1.8036,-1.8302,-1.8246,-1.87,-1.9565,-1.9268,-1.9047,-1.8871,-1.8644,-1.8542,-1.8683,-1.8745,-1.886,-1.8988,-1.9064,-1.9101,-1.9101,-1.9176,-1.9139,-1.9101,0.0,0.0,0.0,0.0,0.0,0.0,0.0,0.0,0.0,0.0,0.0,0.0,0.0,0.0,0.0,0.0,-0.8485,-0.8584,-0.9063,-0.9626,-1.008,-1.0368,-1.0688,-1.0843,-1.0766,-1.0853,-1.0805,-1.0554,-1.0833,-1.0871,-1.0766,-1.0968,-1.1054,-1.1044,-1.093,-1.0891,-1.0891,-1.0891,-1.0891,-1.0881,-1.0805,-1.11,-1.154,-1.0934,-1.1085,-1.148,-1.0934,-1.0774,-1.088,-1.0769,-1.0881,-1.1127,-1.1596,-1.2066,0.0,0.0,0.0,-1.1224,-1.0754,-1.0849,-1.1196,-1.1637,-1.1702,-1.1885,-1.2473,-1.2652,-1.2785,-1.3118,-1.3303,-1.3492,-1.3668,-1.395,-1.4424,-1.5366,-1.5269,-1.5488,-1.6598,-1.6654,-1.6617,-1.6729,-1.7241,-1.7488,-1.7492,-1.8012,-1.8487,-1.8702,-1.879,-1.8758,-1.8689,-1.86,-1.8226,-1.7522,-1.7509,-1.7346,-1.6993,-1.6993,-1.7173,-1.7598,-1.7475,-1.8071,-1.921,-1.9057,-1.8875,-1.8703,-1.886,-1.8892,-1.886,-1.886,-1.895,-1.9101,-1.9101,-1.9101,-1.9101,-1.9213,-1.9213,-1.9139,0.0,0.0,0.0,0.0,0.0,0.0,0.0,0.0,0.0,0.0,0.0,0.0,-0.9095,-0.9023,-0.9002,-0.9063,-0.8648,-0.8584,-0.9063,-0.99,-1.0368,-1.0389,-1.0303,0.0,-1.0312,-1.0322,-1.0108,-0.9658,-1.0108,-1.0322,-1.0322,-1.0728,-1.0919,-1.0919,-1.0891,-1.0891,-1.0891,-1.0891,-1.0891,-1.0891,-1.0487,-1.0854,-1.148,-1.0599,-1.0771,-1.1397,-1.0531,-1.0475,-1.0758,-1.042,-1.0603,-1.1002,-1.1477,-1.1713,-1.1828,0.0,0.0,0.0,-0.9991,-0.9975,-1.0159,-1.0792,-1.0973,-1.0982,-1.1018,-1.1151,-1.1442,-1.1901,-1.2533,-1.2989,-1.2888,-1.3284,-1.381,-1.4291,-1.4384,-1.4523,-1.4983,-1.5811,-1.6356,-1.6162,-1.7024,-1.7547,-1.74,-1.7972,-1.8206,-1.7963,-1.8198,-1.8094,-1.7512,-1.7206,-1.6995,-1.6927,-1.6927,-1.6973,-1.6993,-1.6947,-1.7199,-1.7787,-1.7393,-1.7739,-1.8738,-1.8126,-1.8371,-1.9305,-1.9792,-1.9643,-1.9064,-1.9064,-1.9101,-1.9101,-1.9101,-1.9101,-1.9101,-1.9101,-1.9176,-1.9265,0.0,0.0,0.0,0.0,0.0,0.0,0.0,0.0,0.0,0.0,0.0,0.0,0.0,-0.9186,-0.9229,-0.898,-0.9043,-0.9182,-0.9349,-0.9638,-0.996,-1.0261,-0.9975,-0.9955,-1.0273,-0.9991,-0.9785,-0.9619,-0.9785,-0.9864,-0.9864,-1.0322,-1.0525,-1.0525,-1.0766,-1.0891,-1.0891,-1.0891,-1.0891,-1.0874,-1.0706,-1.0998,-1.1466,-1.0767,-1.0893,-1.1343,-1.0739,-1.0471,-1.0442,-1.0579,-1.0379,-1.0176,-1.094,-1.1195,-1.1306,-1.1339,-1.0779,-1.0137,-1.0267,-1.0022,-0.9821,-1.0401,-1.0394,-1.0351,-1.0566,-1.0931,-1.1345,-1.1876,-1.273,-1.3475,-1.374,-1.3943,-1.4114,-1.4261,-1.4305,-1.4673,-1.564,-1.6046,-1.6405,-1.6896,-1.7439,-1.7756,-1.7733,-1.7908,-1.7894,-1.7584,-1.7688,-1.7408,-1.671,-1.6582,-1.6423,-1.6188,-1.6188,-1.6262,-1.6367,-1.6522,-1.6693,-1.6892,-1.6778,-1.7273,-1.8299,-1.81,-1.8338,-1.9003,-1.9183,-1.9211,-1.9101,-1.9101,-1.9101,-1.9101,-1.9101,-1.9101,-1.9101,-1.9176,-1.9176,-1.9176,0.0,0.0,0.0,0.0,0.0,0.0,0.0,0.0,0.0,-0.9203,0.0,0.0,0.0,0.0,-0.9323,-0.8746,-0.919,-0.9426,-0.9308,-0.9552,-0.9776,-1.0001,-0.9748,-0.9685,-0.9785,-0.9558,-0.931,-0.911,-0.931,-0.939,-0.939,-0.9873,-1.0079,-1.0069,-1.0351,-1.0554,-1.069,-1.069,-1.0603,-1.0478,-1.0375,-1.0663,-1.1031,-1.0587,-1.0672,-1.0955,-1.0507,-1.0249,-1.0186,-1.0401,-1.0169,-0.991,-1.0617,-1.0905,-1.0916,-1.0841,-1.0522,-1.0179,-1.0232,-0.9935,-0.9804,-1.0303,-1.0355,-1.0333,-1.06,-1.0984,-1.1399,-1.1818,-1.2637,-1.3428,-1.3925,-1.4325,-1.4552,-1.4537,-1.4673,-1.514,-1.6111,-1.6195,-1.6481,-1.7312,-1.7611,-1.7706,-1.7584,-1.7666,-1.757,-1.724,-1.7102,-1.6837,-1.6312,-1.6194,-1.6032,-1.5792,-1.5836,-1.5913,-1.5988,-1.6219,-1.6318,-1.6318,-1.6392,-1.6885,-1.779,-1.764,-1.7925,-1.8497,-1.8338,-1.8398,-1.8669,-1.8669,-1.8669,-1.8669,-1.8669,-1.8669,-1.8669,-1.8745,-1.8784,-1.8745,0.0,0.0,0.0,0.0,0.0,0.0,0.0,0.0,-0.9429,-0.9496,0.0,0.0,0.0,0.0,0.0,-0.8421,-0.9001,-0.9284,-0.8975,-0.9672,-0.9959,-0.9612,-0.9566,-0.9328,-0.8812,-0.8926,-0.8741,-0.8216,-0.8741,-0.8975,-0.8975,-0.939,-0.9579,-0.9579,-0.9579,-0.9825,-1.0244,-1.0283,-1.003,-0.9576,-0.9518,-0.9811,-1.0249,-0.9982,-1.0048,-1.0152,-0.9819,-0.985,-0.9956,-0.9864,-0.9969,-1.0242,-1.0618,-1.0784,-1.0666,-1.0153,-1.0102,-1.0107,0.0,0.0,0.0,-1.0544,-1.0866,-1.0971,-1.0927,-1.1221,-1.1531,-1.1661,-1.2189,-1.2828,-1.3426,-1.4352,-1.5025,-1.5013,-1.5444,-1.5837,-1.6053,-1.6174,-1.6544,-1.7284,-1.7393,-1.7282,-1.6918,-1.7199,-1.724,-1.6918,-1.6497,-1.6312,-1.6269,-1.6001,-1.5792,-1.5792,-1.5913,-1.5988,-1.5988,-1.6144,-1.6188,-1.62,-1.6318,-1.6679,-1.7177,-1.6717,-1.7028,-1.7909,-1.7392,-1.7393,-1.7747,-1.7787,-1.7787,-1.7787,-1.7787,-1.7787,-1.7787,-1.7787,-1.7868,-1.7988,0.0,0.0,0.0,0.0,0.0,-0.9576,-0.944,-0.9386,-0.9464,0.0,0.0,0.0,-0.9656,-0.9355,-0.9193,-0.9221,-0.9753,-1.0011,-0.9932,-0.9709,-0.9701,-0.9973,-0.8999,-0.8566,-0.8812,-0.8561,-0.8414,-0.834,-0.8496,-0.8578,-0.8578,-0.8967,-0.9119,-0.9022,-0.9421,-0.9421,-0.9159,-0.9588,-0.9707,-0.9576,-0.9518,-0.9753,-1.0054,-0.9938,-1.0025,-1.0284,-1.0187,-0.994,-0.9683,-1.0122,-0.9757,-0.9187,-0.9772,-1.0082,-1.0299,-1.0409,-1.008,-0.9713,-0.9716,0.0,0.0,0.0,0.0,0.0,-1.0993,-1.1501,-1.1876,-1.1665,-1.2675,-1.3724,-1.4014,-1.4911,-1.5444,-1.5073,-1.5133,-1.5205,-1.5151,-1.5539,-1.596,-1.6423,-1.6785,-1.7002,-1.6918,-1.696,-1.6863,-1.6497,-1.6355,-1.6194,-1.5957,-1.5836,-1.5792,-1.5792,-1.5913,-1.5957,-1.5881,-1.6001,-1.6044,-1.6044,-1.6076,-1.6262,-1.6497,-1.6424,-1.6566,-1.6835,-1.6756,-1.6765,-1.6934,-1.7544,-1.7787,-1.7787,-1.7787,-1.7787,-1.7787,-1.7787,-1.7828,-1.7828,0.0,0.0,0.0,0.0,0.0,-0.9293,-0.9082,-0.9164,-0.943,0.0,0.0,0.0,-0.9526,-0.902,-0.8814,-0.8999,-0.951,-0.9853,-0.9885,-0.983,-0.9812,-0.9873,-0.9069,-0.8602,-0.8648,-0.8453,-0.8265,-0.8209,-0.8398,-0.844,-0.8332,-0.8488,-0.848,-0.8423,-0.8618,-0.8415,-0.8013,-0.8366,-0.8699,-0.9041,-0.9358,-0.9476,-0.9571,-1.0003,-0.9998,-0.9867,-1.0105,-0.9845,-0.9468,-1.0049,-0.9883,-0.951,-0.9694,-0.9925,-1.0155,-1.0262,-0.9901,-0.9488,-0.9436,-0.9518,-0.9758,-1.0303,0.0,0.0,-1.1361,-1.1902,-1.228,-1.1882,-1.2731,-1.3654,-1.4054,-1.4713,-1.5037,-1.4601,-1.4636,-1.4732,-1.481,-1.5113,-1.55,-1.5828,-1.635,-1.6607,-1.6436,-1.6565,-1.6509,-1.612,-1.6076,-1.5988,-1.5792,-1.5792,-1.5792,-1.5792,-1.5869,-1.5869,-1.5792,-1.5869,-1.5913,-1.5913,-1.5957,-1.6044,-1.6144,-1.6306,-1.6392,-1.6392,-1.6479,-1.6522,-1.6552,-1.7047,-1.7256,-1.7256,-1.7256,-1.7256,-1.7256,-1.7256,-1.7256,-1.7256,0.0,0.0,-1.0309,-0.9516,-0.9263,-0.9106,-0.8773,-0.8976,-0.9325,0.0,-1.0056,-0.9992,-0.927,-0.8738,-0.8387,-0.8271,-0.8834,-0.928,-0.9348,-0.9896,-1.0038,-0.9619,-0.9374,-0.9012,-0.8415,-0.8406,-0.824,-0.7912,-0.8349,-0.8384,-0.8085,-0.7878,-0.7746,-0.7746,-0.7454,-0.7154,-0.6937,-0.6937,-0.7384,-0.8108,-0.891,-0.9093,-0.902,-1.0041,-0.9943,-0.9368,-0.988,-0.9711,-0.9368,-0.9806,-1.0242,-1.0527,-1.0118,-1.0103,-1.0191,-0.9892,-0.9729,-0.9505,-0.9096,-0.9423,-0.9948,-1.0415,-1.1252,0.0,-1.1787,-1.221,-1.2526,-1.2121,-1.2465,-1.2997,-1.3634,-1.3957,-1.4061,-1.3877,-1.3945,-1.4192,-1.4596,-1.4833,-1.5127,-1.55,-1.5959,-1.6107,-1.5836,-1.6076,-1.6107,-1.5836,-1.5792,-1.5792,-1.5748,-1.5703,-1.5691,-1.5659,-1.5691,-1.5703,-1.5703,-1.5792,-1.5792,-1.5792,-1.5913,-1.6001,-1.6001,-1.6262,-1.6349,-1.6349,-1.6436,-1.6479,-1.6479,-1.6479,-1.6479,-1.6479,-1.6522,-1.6522,-1.6479,-1.6522,-1.6522,-1.6522,0.0,-1.0283,-1.0069,-0.9915,-0.9176,-0.8823,-0.933,-0.9103,-0.9147,-0.995,-0.9979,-0.9714,-0.927,-0.8861,-0.8641,-0.8598,-0.905,-0.9475,-0.9669,-0.9777,-0.9727,-0.9544,-0.8812,-0.8415,-0.8415,-0.8145,-0.8014,-0.7979,-0.777,-0.7602,-0.7538,-0.7112,-0.6894,-0.6774,-0.681,-0.6683,-0.6465,-0.6677,-0.6896,-0.7115,-0.7816,-0.843,-0.8982,-0.9601,-0.993,-1.0078,-1.0218,-1.0069,-0.9829,-0.9784,-1.0035,-1.0387,-1.0109,-1.0196,-1.0392,-1.0083,-1.0063,-0.9926,-0.9006,-0.9139,-0.9652,-0.9902,-1.0283,0.0,-1.1287,-1.1618,-1.1807,-1.1796,-1.2131,-1.253,-1.2793,-1.2929,-1.3103,-1.3434,-1.2927,-1.2766,-1.365,-1.4482,-1.5055,-1.5085,-1.5598,-1.5869,-1.5792,-1.5881,-1.5869,-1.5792,-1.5792,-1.5659,-1.5244,-1.5244,-1.5051,-1.4628,-1.5006,-1.5244,-1.5244,-1.5603,-1.5792,-1.5792,-1.5836,-1.5836,-1.5836,-1.6001,-1.6088,-1.6088,-1.6231,-1.6275,-1.6275,-1.6392,-1.6436,-1.6436,-1.6479,-1.6479,-1.6436,-1.6479,-1.6522,-1.6522,-1.0137,-0.9991,-0.9765,-0.9328,-0.8805,-0.8552,-0.8845,-0.8881,-0.9064,-0.9588,-0.9613,-0.9455,-0.9252,-0.8974,-0.8821,-0.8739,-0.912,-0.9384,-0.9557,-0.969,-0.9616,-0.9358,-0.8844,-0.8363,-0.7966,-0.7802,-0.751,-0.7133,-0.7204,-0.7125,-0.695,-0.6605,-0.6435,-0.6349,-0.6264,-0.605,-0.5793,-0.5964,-0.6032,-0.6169,-0.738,-0.8044,-0.8435,-0.9155,-0.9321,-0.9249,-0.9524,-0.9688,-0.971,-0.9601,-0.9779,-1.006,-1.001,-0.9984,-0.995,-0.9862,-0.9678,-0.9294,-0.8629,-0.8707,-0.9062,-0.9403,-0.9947,0.0,0.0,-1.1323,-1.1583,-1.1679,-1.2071,-1.2443,-1.2642,-1.2816,-1.2988,-1.3099,-1.2648,-1.2479,-1.3043,-1.3761,-1.4441,-1.4935,-1.5468,-1.5792,-1.5792,-1.5792,-1.5703,-1.548,-1.5424,-1.5244,-1.4731,-1.4686,-1.4582,-1.4294,-1.4536,-1.4686,-1.4686,-1.5198,-1.5424,-1.5424,-1.5703,-1.5792,-1.5792,-1.5957,-1.5988,-1.6001,-1.6144,-1.62,-1.62,-1.6362,-1.6362,-1.6318,-1.6392,-1.6436,-1.6436,-1.6436,-1.6479,-1.6466,-0.9825,-0.9619,-0.931,-0.8602,-0.8365,-0.8265,-0.8283,-0.8608,-0.8966,-0.9261,-0.9348,-0.9375,-0.9232,-0.9107,-0.8989,-0.8904,-0.9084,-0.9216,-0.9343,-0.9604,-0.9591,-0.9232,-0.9063,-0.8497,-0.752,-0.7513,-0.7095,-0.6289,-0.6586,-0.663,-0.6349,-0.6093,-0.597,-0.5964,-0.5626,-0.5417,-0.5241,-0.5196,-0.5251,-0.549,-0.6959,-0.7569,-0.7716,-0.8666,-0.8691,-0.8273,-0.8823,-0.9211,-0.9475,-0.9374,-0.9501,-0.9721,-0.9834,-0.9668,-0.9431,-0.9479,-0.9162,-0.8655,-0.8246,-0.8283,-0.8557,-0.8985,-0.9681,-1.0312,0.0,0.0,0.0,-1.1486,-1.1856,-1.2178,-1.2361,-1.2564,-1.2593,-1.2403,-1.2297,-1.2361,-1.2616,-1.2998,-1.3724,-1.4915,-1.5397,-1.5695,-1.5802,-1.5712,-1.5484,-1.5108,-1.5051,-1.4786,-1.4165,-1.4165,-1.4118,-1.4025,-1.4118,-1.4165,-1.4165,-1.4674,-1.5006,-1.5108,-1.5468,-1.5703,-1.5792,-1.5913,-1.5957,-1.5957,-1.61,-1.6113,-1.6156,-1.6318,-1.6318,-1.62,-1.6362,-1.6436,-1.6479,-1.6349,-1.6337,-1.6293,-0.9619,-0.9039,-0.8537,-0.8414,-0.8044,-0.7967,-0.8538,-0.871,-0.8945,-0.949,-0.9681,-0.9636,-0.9403,-0.9154,-0.9082,-0.9229,-0.8927,-0.899,-0.9452,-0.9528,-0.9445,-0.9224,-0.9188,-0.8633,-0.7527,-0.7513,-0.7095,-0.6289,-0.5976,-0.5809,-0.5782,-0.5323,-0.5116,-0.5106,-0.4912,-0.4889,-0.5019,-0.4865,-0.5067,-0.5591,-0.6057,-0.6446,-0.6939,-0.798,-0.844,-0.8531,-0.9009,-0.9413,-0.971,-0.9289,-0.9403,-0.9737,-0.9478,-0.9486,-0.9475,-0.8986,-0.9036,-0.9107,-0.8169,-0.8276,-0.868,-0.8719,-0.8864,-0.9147,-0.9756,0.0,-1.0335,-1.0731,0.0,-1.0902,-1.095,0.0,0.0,-1.0786,-1.0973,-1.1423,-1.2298,-1.2484,-1.3181,-1.4947,-1.5164,-1.5383,-1.5822,-1.5381,-1.5048,-1.4937,-1.4982,-1.4569,-1.3583,-1.361,-1.3478,-1.3065,-1.3478,-1.3658,-1.3658,-1.4165,-1.4628,-1.5108,-1.5153,-1.5379,-1.5792,-1.5836,-1.5836,-1.5836,-1.5836,-1.5836,-1.5881,-1.6113,-1.62,-1.6244,-1.6392,-1.6479,-1.6349,-1.602,-1.5876,-1.5788,-0.9011,-0.8774,-0.8547,-0.8341,-0.8282,-0.837,-0.8648,-0.8853,-0.9124,-0.9555,-0.9673,-0.9629,-0.954,-0.94,-0.9361,-0.9467,-0.9174,-0.9134,-0.9539,-0.9405,-0.9267,-0.9224,-0.9175,-0.8609,-0.731,-0.714,-0.6636,-0.5729,-0.5427,-0.528,-0.528,-0.5072,-0.4854,-0.4631,-0.4653,-0.4576,-0.4472,-0.4455,-0.4601,-0.4857,-0.5198,-0.5489,-0.5793,-0.7104,-0.7715,-0.7949,-0.8212,-0.8626,-0.8999,-0.9055,-0.907,-0.9019,-0.9318,-0.9212,-0.9036,-0.9097,-0.8965,-0.87,-0.8194,-0.8239,-0.8407,-0.8407,-0.8778,-0.9223,-0.9507,-0.9806,-1.0128,-1.0482,0.0,0.0,0.0,0.0,0.0,0.0,-1.1229,-1.1535,-1.1696,-1.2139,-1.306,-1.4642,-1.5051,-1.5283,-1.5545,-1.4916,-1.4391,-1.4035,-1.4063,-1.3817,-1.3162,-1.3152,-1.3113,-1.2929,-1.3113,-1.32,-1.32,-1.3658,-1.4035,-1.4222,-1.449,-1.4915,-1.5379,-1.5379,-1.5558,-1.5792,-1.5792,-1.5792,-1.5836,-1.61,-1.62,-1.6188,-1.612,-1.6064,-1.602,-1.5756,-1.5579,-1.5322,-0.8582,-0.8596,-0.8685,-0.8378,-0.8531,-0.8714,-0.8809,-0.9094,-0.9322,-0.9377,-0.951,-0.9503,-0.9242,-0.9275,-0.9226,-0.9116,-0.8855,-0.8806,-0.9043,-0.8868,-0.8756,-0.8713,-0.879,-0.8247,-0.6906,-0.6825,-0.6316,-0.5377,-0.5129,-0.5026,-0.5065,-0.4877,-0.4675,-0.4416,-0.4311,-0.4207,-0.412,-0.4093,-0.4196,-0.4429,-0.468,-0.4863,-0.5077,-0.646,-0.7191,-0.7413,-0.7676,-0.7943,-0.8271,-0.8552,-0.8448,-0.8276,-0.8706,-0.8601,-0.8325,-0.8656,-0.8459,-0.8088,-0.7964,-0.803,-0.8139,-0.8288,-0.8852,-0.9338,-0.942,-0.9655,-0.9944,-1.0241,-1.0391,0.0,0.0,0.0,-1.1141,-1.1039,0.0,-1.1585,-1.1146,-1.1722,-1.2664,-1.3986,-1.4584,-1.486,-1.4934,-1.4297,-1.3734,-1.3372,-1.3339,-1.3164,-1.2881,-1.2832,-1.2881,-1.2881,-1.2881,-1.2881,-1.2881,-1.3248,-1.3478,-1.3621,-1.3931,-1.4398,-1.4869,-1.4869,-1.5051,-1.5367,-1.5367,-1.5424,-1.5468,-1.5691,-1.5824,-1.5824,-1.5668,-1.5534,-1.5389,-1.5322,-1.5096,-1.4834,-0.8587,-0.8601,-0.8717,-0.867,-0.8677,-0.8794,-0.9109,-0.9409,-0.9392,-0.8876,-0.9302,-0.9242,-0.8237,-0.837,-0.8363,-0.7898,-0.7548,-0.7449,-0.7659,-0.7672,-0.7571,-0.7476,-0.7774,-0.7459,-0.6374,-0.6629,-0.6389,-0.5599,-0.525,-0.5148,-0.5273,-0.4621,-0.4364,-0.4364,-0.3653,-0.3643,-0.4066,-0.3695,-0.3961,-0.4602,-0.4602,-0.4748,-0.5031,-0.6305,-0.6943,-0.7192,-0.7681,-0.7842,-0.7682,-0.7572,-0.7627,-0.7666,-0.7303,-0.7297,-0.7404,-0.7249,-0.7303,-0.7437,-0.7328,-0.7564,-0.797,-0.8522,-0.8926,-0.9298,-0.9533,-0.9488,-0.952,-0.9784,-0.9849,-0.9917,-1.0254,-1.0675,-1.0814,-1.0417,-1.0896,0.0,0.0,-1.1094,-1.176,-1.2929,-1.3402,-1.378,-1.4041,-1.3472,-1.314,-1.32,-1.3132,-1.2998,-1.2705,-1.2735,-1.2783,-1.2881,-1.2881,-1.2881,-1.2881,-1.2929,-1.3162,-1.3621,-1.3621,-1.3894,-1.4351,-1.4351,-1.4351,-1.4351,-1.4351,-1.4398,-1.4547,-1.4709,-1.4801,-1.4949,-1.5096,-1.4834,-1.4419,-1.4419,-1.4419,-1.4326,-0.9535,-0.9392,-0.9241,-0.9043,-0.9175,-0.9336,-0.9453,-0.9061,-0.8755,-0.8803,-0.8613,-0.8349,-0.8025,-0.8057,-0.8059,-0.7896,-0.7544,-0.7502,-0.7768,-0.7566,-0.7548,-0.7727,-0.7823,-0.7582,-0.6842,-0.6813,-0.6483,-0.5807,-0.5555,-0.5307,-0.5004,-0.4797,-0.434,-0.3678,-0.3516,-0.3282,-0.3074,-0.3201,-0.3385,-0.3678,-0.4165,-0.4576,-0.4948,-0.5379,-0.5882,-0.6381,-0.6598,-0.6923,-0.7337,-0.7465,-0.7379,-0.7296,-0.7526,-0.7428,-0.7132,-0.7264,-0.7229,-0.7127,0.0,-0.7663,-0.8227,-0.814,-0.8876,-0.9562,-0.9401,-0.9445,-0.9541,-0.9651,-0.9754,-0.987,-1.0079,-1.0308,-1.0482,-1.0412,-1.0797,-1.0981,0.0,-1.0948,-1.1217,-1.181,-1.2218,-1.2707,-1.3282,-1.2646,-1.228,-1.2598,-1.2347,-1.2289,-1.2569,-1.2397,-1.2426,-1.2774,-1.2832,-1.2881,-1.2881,-1.2881,-1.2968,-1.3162,-1.3162,-1.3392,-1.3847,-1.3847,-1.4025,-1.4305,-1.4398,-1.4455,-1.4501,-1.472,-1.4858,-1.4858,-1.4697,-1.4558,-1.4373,-1.4373,-1.4186,-1.3847,-0.9718,-0.9614,-0.9452,-0.9315,-0.9438,-0.9562,-0.9354,-0.8817,-0.8403,-0.8224,-0.8031,-0.7765,-0.7343,-0.7503,-0.7503,-0.7295,-0.7092,-0.707,-0.7283,-0.7092,-0.707,-0.7283,-0.7289,-0.7133,-0.6761,-0.667,-0.6383,-0.6024,-0.5715,-0.5312,-0.4851,-0.4584,-0.3959,-0.3174,-0.3027,-0.2812,-0.2505,-0.2703,-0.2907,-0.313,-0.3741,-0.4184,-0.4463,-0.4463,-0.4901,-0.5614,-0.5837,-0.6213,-0.6598,-0.6869,-0.6881,-0.6781,-0.7191,-0.7026,-0.6755,-0.6908,-0.6843,-0.6756,-0.6811,-0.735,0.0,-0.7944,-0.8686,-0.9329,-0.9351,-0.9445,-0.9533,-0.9592,-0.9644,-0.9717,-0.9873,-1.0051,-1.0213,-1.0316,-1.0522,-1.0718,0.0,-1.0769,-1.082,-1.0972,-1.1326,-1.1817,-1.2466,-1.1914,-1.1702,-1.2246,-1.1853,-1.1902,-1.2461,-1.2311,-1.233,-1.2676,-1.2783,-1.2832,-1.2881,-1.2881,-1.2881,-1.2881,-1.2881,-1.3065,-1.3344,-1.3344,-1.3525,-1.38,-1.3894,-1.3952,-1.3999,-1.4212,-1.434,-1.4351,-1.4176,-1.4093,-1.4035,-1.4093,-1.3858,-1.3515,-0.9159,-0.9256,-0.9361,-0.9361,-0.951,-0.9406,-0.8883,-0.8778,-0.8355,-0.7241,-0.7503,-0.7396,-0.6337,-0.6712,-0.6815,-0.6228,-0.6178,-0.6178,-0.6178,-0.6178,-0.6178,-0.6178,-0.6178,-0.6178,-0.6178,-0.6178,-0.6178,-0.6178,-0.5708,-0.5245,-0.4763,-0.3945,-0.3329,-0.2833,-0.2308,-0.2239,-0.246,-0.2265,-0.2573,-0.313,-0.3471,-0.3585,-0.3585,-0.3585,-0.4132,-0.4901,-0.55,-0.5668,-0.5618,-0.5891,-0.6059,-0.6173,-0.6178,-0.6232,-0.6232,-0.6232,-0.6232,-0.6293,-0.6499,-0.6643,-0.6894,-0.7986,-0.8437,0.0,-0.9416,-0.9488,-0.947,-0.9555,-0.9488,-0.9485,-0.974,-0.9895,-0.9999,-0.9999,-1.0162,-1.0316,-1.047,-1.0522,-1.0522,-1.0522,-1.0726,-1.1065,-1.1601,-1.1305,-1.1379,-1.2218,-1.1796,-1.1807,-1.2461,-1.2353,-1.2403,-1.2676,-1.2676,-1.2783,-1.2881,-1.2881,-1.2881,-1.2881,-1.2881,-1.2881,-1.2881,-1.2881,-1.2881,-1.2881,-1.2929,-1.2978,-1.3133,-1.318,-1.3266,-1.342,-1.3515,-1.3515,-1.342,-1.3515,-1.3515,-1.3372,-0.891,-0.8791,-0.8685,-0.8784,-0.9249,-0.9406,-0.8883,-0.8402,-0.7871,-0.7192,-0.682,-0.6549,-0.6232,-0.6337,-0.6391,-0.6232,-0.6178,-0.6178,-0.6178,-0.6178,-0.6178,-0.6178,-0.6178,-0.6178,-0.6178,-0.6178,-0.6173,-0.6059,-0.5504,-0.4938,-0.4341,-0.3707,-0.3044,-0.24,-0.2256,-0.2101,-0.1995,-0.2122,-0.2573,-0.313,-0.3471,-0.3585,-0.3638,-0.3688,-0.3799,-0.3968,-0.4457,-0.4842,-0.512,-0.5563,-0.5732,-0.5791,-0.6123,-0.6386,-0.6544,-0.6282,-0.6391,-0.6534,-0.6377,-0.6833,-0.7471,-0.7778,-0.8592,-0.9344,0.0,0.0,-0.979,-0.9651,-0.9666,-0.9703,-0.9784,-0.9851,-0.9903,-0.9999,-1.0162,-1.0316,-1.0368,-1.0419,-1.0522,-1.0522,-1.0573,-1.0721,-1.0939,-1.0749,-1.0956,-1.1656,-1.1592,-1.1711,-1.2157,-1.1994,-1.2014,-1.2363,-1.2578,-1.2725,-1.2725,-1.2832,-1.2881,-1.2881,-1.2881,-1.2881,-1.2881,-1.2881,-1.2881,-1.2929,-1.3036,-1.3085,-1.3133,-1.3286,-1.3314,-1.3266,-1.342,-1.3372,-1.3266,-1.3266,-1.3238,-1.3172,-0.891,-0.8692,-0.8521,-0.8573,-0.8725,-0.8666,-0.8143,-0.7771,-0.7343,-0.6761,-0.6391,-0.6178,-0.6178,-0.6178,-0.6178,-0.6178,-0.6178,-0.6178,-0.6178,-0.6178,-0.6178,-0.6178,-0.6178,-0.6178,-0.6178,-0.6178,-0.6005,-0.5609,-0.5222,-0.4563,-0.3624,-0.3234,-0.2683,-0.2018,-0.2018,-0.1964,-0.1797,-0.1905,-0.2125,-0.246,-0.2907,-0.3302,0.0,-0.3691,-0.3694,-0.3638,-0.3855,-0.4239,-0.4622,-0.4897,-0.512,-0.5344,-0.5786,-0.6168,-0.6381,-0.644,-0.6652,-0.6815,-0.6657,-0.7031,-0.7475,-0.7737,-0.8384,-0.9044,-0.9351,-0.9555,-0.9732,0.0,-0.9681,-0.9732,-0.9732,-0.9732,-0.9732,-0.9895,-1.0007,-1.011,-1.0162,-1.0316,-1.0419,-1.0419,-1.0192,-1.0068,-1.0253,-1.0466,-1.0807,-1.1311,-1.1338,-1.1558,-1.2058,-1.1865,-1.1895,-1.2274,-1.2431,-1.2529,-1.2627,-1.2735,-1.2832,-1.2832,-1.2881,-1.2783,-1.2578,-1.2774,-1.2774,-1.2578,-1.2881,-1.3027,-1.3027,-1.321,-1.3238,-1.3142,-1.3248,-1.3238,-1.3142,-1.3094,-1.3055,-1.3123,-0.885,-0.8626,-0.8415,-0.8362,-0.7984,-0.7503,-0.7031,-0.7031,-0.6869,-0.6282,-0.6178,-0.6178,-0.6178,-0.6178,-0.6178,-0.6178,-0.6178,-0.6178,-0.6178,-0.6178,-0.6178,-0.6178,-0.6178,-0.6173,-0.6119,-0.6119,-0.5727,-0.4999,-0.4783,-0.4067,-0.285,-0.2683,-0.2294,-0.1797,-0.1797,-0.1741,-0.1685,-0.1568,-0.1454,-0.1453,-0.2178,-0.285,-0.3416,-0.353,-0.3585,-0.3585,-0.3641,-0.3858,-0.4125,-0.4177,-0.4453,-0.4897,-0.5399,-0.5732,-0.6,-0.6431,-0.6756,-0.7031,-0.6972,-0.7085,-0.7295,-0.7818,-0.8031,-0.8396,-0.9145,-0.9413,-0.9517,-0.9688,-0.9681,-0.9666,-0.9614,-0.9614,-0.9621,-0.974,-0.9799,-0.9851,-0.9999,-1.0162,-1.03,-1.0254,-0.9794,0.0,-0.9579,-1.0144,-1.066,-1.0915,-1.1031,-1.134,-1.1984,-1.1801,-1.1877,-1.2274,-1.2274,-1.2382,-1.248,-1.2627,-1.2676,-1.2676,-1.2832,-1.2676,-1.2224,-1.2686,-1.2627,-1.2224,-1.2676,-1.2881,-1.2929,-1.3036,-1.3085,-1.3085,-1.3085,-1.3075,-1.3085,-1.2929,-1.3027,-1.321,-0.8196,-0.7771,-0.7391,-0.702,-0.6593,-0.6327,-0.6337,-0.6766,-0.6869,-0.6282,-0.6178,-0.6178,-0.6178,-0.6178,-0.6178,-0.6178,-0.6178,-0.6178,-0.6178,-0.6178,-0.6178,-0.6178,-0.6178,-0.6064,-0.5732,-0.5732,-0.5285,-0.434,-0.3843,-0.3289,-0.2736,-0.2184,-0.1908,-0.1797,-0.1797,-0.1572,-0.1234,-0.1063,-0.1006,-0.1062,-0.1846,-0.2238,-0.2464,-0.3309,-0.3596,-0.3596,-0.3814,-0.3808,-0.3747,-0.407,-0.4233,-0.4401,-0.5011,-0.5403,-0.5673,-0.5555,-0.6095,-0.6642,-0.6426,-0.6864,-0.7515,-0.7978,-0.8296,-0.8626,-0.9001,-0.9413,-0.9666,-0.9368,-0.9629,-0.9888,-0.9614,-0.9614,-0.9614,-0.9621,-0.9732,-0.9851,-0.9999,-1.0162,-1.0207,-1.0008,-0.9858,-0.9612,-0.9093,-0.9358,-0.9699,-1.0083,-1.0536,-1.1015,-1.159,-1.1657,-1.1828,0.0,-1.2224,-1.2323,0.0,0.0,-1.2676,-1.2676,-1.2832,-1.2832,-1.2783,-1.2881,-1.2832,-1.2783,-1.2881,-1.2881,-1.2929,-1.3036,-1.3085,-1.3085,-1.2978,-1.2929,-1.2929,-1.2929,-1.3248,-1.3695,-0.761,-0.7128,-0.6846,-0.6804,-0.6344,-0.6092,-0.6314,-0.6514,-0.6549,-0.6232,-0.6178,-0.6178,-0.6178,-0.6178,-0.6178,-0.6178,-0.6178,-0.6178,-0.6178,-0.6178,-0.6178,-0.6178,-0.6178,-0.595,-0.5336,-0.5508,-0.4901,-0.3514,-0.34,-0.2959,-0.224,-0.1964,-0.1797,-0.1797,-0.1797,-0.1403,-0.0729,-0.0672,-0.0392,-0.0056,-0.0952,-0.1456,-0.1737,-0.241,-0.2691,-0.2691,-0.2798,-0.3137,-0.3646,-0.3802,-0.391,-0.4021,-0.4574,-0.5014,-0.5285,-0.55,-0.5932,-0.6372,-0.6263,-0.6756,-0.7354,-0.7605,-0.799,-0.8368,-0.8784,-0.8995,-0.9145,-0.9361,-0.9517,-0.9577,-0.9614,-0.9673,0.0,-0.9614,-0.9784,-0.9895,-0.9895,-1.011,-1.0254,-1.0124,-0.9992,-0.9724,-0.9207,-0.9133,-0.9371,-0.9995,-1.0478,-1.102,-1.1783,-1.172,-1.1828,0.0,0.0,0.0,-1.2529,0.0,-1.291,-1.3276,-1.3132,-1.2997,-1.2852,-1.2871,-1.2735,-1.2529,-1.3055,-1.3248,-1.3296,-1.3573,-1.3716,-1.3716,-1.3668,-1.361,-1.361,-1.361,-1.3789,-1.4061,-0.7395,-0.6905,-0.6616,-0.68,-0.6398,-0.6105,-0.6332,-0.6221,-0.6123,-0.6178,-0.6178,-0.6178,-0.6178,-0.6178,-0.6178,-0.6178,-0.6178,-0.6178,-0.6178,-0.6178,-0.6178,-0.6178,-0.6178,-0.5837,-0.4999,-0.5285,-0.4567,-0.2738,-0.3014,-0.2683,-0.1797,-0.1797,-0.1797,-0.1797,-0.1685,-0.1178,-0.0393,-0.0336,0.0168,0.0842,0.0056,-0.0561,-0.0953,-0.1287,-0.1567,-0.1792,-0.1792,-0.2579,-0.3543,-0.3249,-0.3357,-0.3694,-0.419,-0.4519,-0.4791,-0.5336,-0.5773,-0.5987,-0.5987,-0.6426,-0.6918,-0.7079,-0.7456,-0.7889,-0.8355,-0.8461,-0.8626,-0.9249,-0.9256,-0.9316,-0.9569,-0.9732,0.0,-0.9673,-0.9888,-0.9999,-0.9903,-1.0049,-1.0207,-1.0207,-0.9921,-0.962,-0.9414,-0.9032,-0.9144,-1.003,-1.0365,-1.0846,-1.1655,-1.1679,0.0,0.0,-1.2076,-1.2274,-1.2676,0.0,-1.3132,-1.3815,-1.3494,-1.3208,-1.2967,-1.3142,-1.291,-1.2461,-1.3372,-1.3752,-1.38,-1.4165,-1.4305,-1.4305,-1.4305,-1.4305,-1.4305,-1.4305,-1.4398,-1.4536,-0.8013,-0.7372,-0.6851,-0.6453,-0.6235,-0.6106,-0.6055,-0.5909,-0.5905,-0.6178,-0.6178,-0.6178,-0.6178,-0.6178,-0.6178,-0.6178,-0.6178,-0.6178,-0.6178,-0.6178,-0.6178,-0.6178,-0.6178,-0.5677,-0.457,-0.4846,-0.4067,-0.2238,-0.2575,-0.2411,-0.1797,-0.1797,-0.1797,-0.1797,-0.1347,-0.0898,0.0,-0.0,0.0449,0.0898,0.0785,0.0561,0.0224,-0.0056,-0.0841,-0.1797,-0.1797,-0.2587,-0.338,-0.2128,-0.2573,-0.3641,-0.3866,-0.403,-0.4132,-0.4515,-0.5007,-0.5386,-0.5386,-0.5823,-0.6317,-0.6431,-0.6918,-0.7396,-0.745,-0.8137,-0.8725,-0.8521,-0.8896,-0.9316,-0.9688,-0.9799,-0.9851,0.0,-0.9999,-1.0051,-1.0213,-0.9984,-0.9782,-0.9929,-0.9398,-0.9104,-0.9366,-0.8802,-0.8834,-0.9786,-0.9868,-0.9985,-1.0286,0.0,0.0,-1.1728,-1.1977,-1.2274,-1.2676,-1.2764,-1.3132,-1.3815,-1.3873,-1.3789,-1.3515,-1.3978,-1.3931,-1.3467,-1.4025,-1.4212,-1.4258,-1.4294,-1.4305,-1.4305,-1.4305,-1.4305,-1.4305,-1.4305,-1.4663,-1.5175,-0.6643,-0.6461,-0.628,-0.6202,-0.6151,-0.6147,-0.6245,-0.6052,-0.595,-0.6059,-0.6059,-0.6119,-0.6178,-0.6178,-0.6178,-0.6178,-0.6178,-0.6178,-0.6178,-0.6178,-0.6178,-0.6178,-0.6119,-0.5504,-0.4233,-0.4398,-0.3624,-0.1964,-0.2242,-0.2186,-0.1797,-0.1964,-0.1905,-0.1624,0.0,-0.0449,-0.0056,0.0112,0.0449,0.0898,0.0898,0.0842,0.0673,0.0168,-0.028,-0.0729,-0.0729,-0.101,-0.1459,-0.1514,-0.1847,-0.2462,-0.314,-0.3471,-0.3747,-0.4304,-0.4632,-0.4846,-0.4846,-0.5226,-0.5714,-0.5823,-0.6258,-0.675,-0.7182,-0.7557,-0.7931,-0.8415,-0.8995,-0.9465,-0.9524,-0.9844,-1.0058,-0.9999,-1.0154,-1.0308,-1.0316,-1.0242,-1.0205,-1.0248,-1.001,-0.9811,-0.9724,-0.9271,-0.9148,-0.9528,-0.969,-0.9973,-1.0454,0.0,0.0,-1.1477,0.0,-1.2314,-1.2745,-1.3132,-1.3695,-1.4582,-1.4479,-1.4444,-1.4501,-1.4351,-1.4351,-1.4501,-1.4686,-1.496,-1.5187,-1.5187,-1.5187,-1.5187,-1.5187,-1.5187,-1.5187,-1.5187,-1.5367,-1.5603,-0.618,-0.6159,-0.6146,-0.621,-0.6164,-0.6128,-0.6215,-0.6058,-0.5891,-0.5891,-0.5946,-0.6059,-0.6178,-0.6178,-0.6178,-0.6178,-0.6178,-0.6178,-0.6178,-0.6178,-0.6178,-0.6119,-0.5891,-0.5167,-0.3956,-0.3953,-0.3239,-0.1797,-0.2186,-0.2186,-0.1908,-0.2017,0.0,0.0,-0.0616,-0.0168,0.0224,0.0224,0.0449,0.0898,0.0898,0.0898,0.0842,0.0449,0.0168,0.0,0.0,0.0,-0.0112,-0.0842,-0.1177,-0.1455,-0.2184,-0.2745,-0.3302,-0.4027,-0.4245,-0.4294,-0.4463,-0.4791,-0.5117,-0.5222,-0.566,-0.6263,-0.6966,-0.7133,-0.7461,-0.8362,-0.8995,-0.9413,-0.9465,-0.9991,-1.0368,-1.0154,-1.0462,-1.0675,-1.0368,-1.0426,-1.0452,-1.0506,-1.033,-1.0137,-1.0089,-0.9668,-0.9438,-0.9541,-0.9705,-1.0007,-1.0429,0.0,0.0,0.0,0.0,0.0,-1.2919,-1.3362,-1.4082,-1.5108,-1.4994,-1.4994,-1.5108,-1.4731,-1.4823,-1.5289,-1.5289,-1.5468,-1.5792,-1.5792,-1.5792,-1.5792,-1.5792,-1.5792,-1.5792,-1.5792,-1.5836,-1.5836,-0.7322,-0.6985,-0.6677,-0.6615,-0.6301,-0.6054,-0.5822,-0.569,-0.5622,-0.5622,-0.5837,-0.6059,-0.6178,-0.6178,-0.6178,-0.6178,-0.6178,-0.6178,-0.6178,-0.6178,-0.6119,-0.6,-0.5441,-0.4725,-0.3796,-0.3458,-0.2794,-0.1797,-0.2411,-0.2521,-0.2183,0.0,-0.1064,-0.0056,-0.028,-0.0168,0.0224,0.0224,0.0449,0.0898,0.0898,0.0898,0.0898,0.0898,0.0505,0.0,0.0,0.0,-0.0,-0.0,-0.0393,-0.0897,-0.0895,-0.1677,-0.2631,-0.3405,-0.3627,-0.3735,-0.4349,-0.4519,-0.4519,-0.4688,-0.5289,-0.5937,-0.648,-0.7079,-0.7676,-0.8262,-0.8745,-0.9113,-0.951,-1.019,-1.0667,-1.0522,0.0,-1.1124,-1.0565,-1.0401,-1.0352,-1.0474,-0.9843,-0.9684,-1.0442,-0.9819,-0.9541,-0.989,-0.9914,-0.9922,-0.9922,0.0,0.0,-1.1326,-1.1578,0.0,-1.317,-1.3467,-1.4082,-1.5108,-1.5379,-1.5334,-1.5108,-1.5108,-1.5334,-1.5792,-1.5792,-1.5792,-1.5792,-1.5792,-1.5792,-1.5792,-1.5792,-1.5792,-1.5792,-1.5792,-1.5869,-1.6001,-0.6193,-0.6172,-0.6162,-0.6104,-0.6099,-0.6082,-0.6088,-0.5902,-0.5762,-0.5762,-0.5819,-0.59,-0.6059,-0.6119,-0.6178,-0.6178,-0.6178,-0.6178,-0.6178,-0.6178,-0.595,-0.5386,-0.5113,-0.4398,-0.3239,-0.3014,-0.2516,-0.1797,-0.2186,-0.2465,0.0,-0.1621,-0.0559,0.0447,0.0895,0.1175,0.1287,0.1287,0.112,0.0898,0.0898,0.0898,0.0898,0.0898,0.0785,0.0561,0.0168,0.0,0.0,0.0,-0.0224,-0.0561,-0.056,-0.0952,-0.1566,-0.2348,-0.2792,-0.3125,-0.3738,-0.3904,-0.4015,-0.4463,-0.4736,-0.5062,-0.5609,-0.648,-0.7408,-0.7949,-0.8639,-0.9211,-0.9562,-1.0293,-1.0871,-1.1023,-1.1175,-1.1226,-1.1074,-1.1015,-1.0981,-1.1057,-1.0864,-1.0805,-1.0998,-1.0425,-1.0197,-1.0565,-1.0396,-1.0184,0.0,0.0,0.0,0.0,-1.1477,0.0,-1.2909,-1.3552,-1.4316,-1.5108,-1.5513,-1.578,-1.5932,-1.5932,-1.6163,-1.6534,-1.625,-1.6151,-1.6107,-1.5869,-1.5913,-1.6151,-1.6151,-1.6367,-1.6765,-1.6765,-1.668,-1.6539,-0.5799,-0.5961,-0.6087,-0.6087,-0.6088,-0.6117,-0.6104,-0.5922,-0.5768,-0.5644,-0.5754,-0.5845,-0.5841,-0.6064,-0.6178,-0.6178,-0.6178,-0.6178,-0.6178,-0.6173,-0.5896,-0.5391,-0.4787,-0.407,-0.3183,-0.2629,0.0,-0.1797,-0.2186,-0.2465,-0.2635,-0.1566,-0.0279,0.1174,0.1621,0.1902,0.2124,0.2124,0.179,0.1232,0.1345,0.1177,0.0898,0.0898,0.0898,0.0842,0.0224,0.0,0.0,0.0,-0.028,-0.0561,-0.0561,-0.0728,-0.1063,-0.179,-0.2181,-0.2569,-0.3347,-0.3624,-0.3738,-0.4408,-0.4629,-0.4842,-0.5605,-0.6588,-0.7461,-0.7895,-0.8685,-0.9361,-0.9614,-1.0446,-1.1124,-1.1267,-1.1477,-1.1519,-1.1326,-1.1377,-1.1418,-1.1318,-1.1326,-1.1326,-1.1326,-1.1004,-1.0863,-1.0905,-1.082,-1.062,0.0,0.0,-1.1063,-1.1032,-1.1469,-1.2107,-1.2967,-1.3637,-1.4351,-1.5108,-1.5647,-1.5957,-1.6107,-1.6151,-1.6293,-1.6491,-1.6207,-1.6107,-1.612,-1.5869,-1.6044,-1.6454,-1.6454,-1.6795,-1.7297,-1.7297,-1.7131,-1.6879,-0.6141,-0.6258,-0.6384,-0.6396,-0.625,-0.6137,-0.5929,-0.586,-0.5673,-0.5337,-0.5686,-0.5896,-0.5622,-0.5955,-0.6178,-0.6178,-0.6178,-0.6178,-0.6178,-0.6059,-0.5896,-0.5736,-0.4515,-0.3741,-0.3572,-0.2408,-0.1853,-0.1853,-0.2467,-0.2521,-0.2071,-0.1566,-0.0056,0.2183,0.1958,0.2181,0.2736,0.2736,0.2402,0.1846,0.2015,0.1624,0.0953,0.0898,0.0898,0.0785,0.0224,-0.0,-0.0056,-0.0056,-0.0449,-0.0898,-0.0898,-0.0898,-0.1009,-0.1568,-0.179,-0.2068,-0.3236,-0.3569,-0.3793,-0.4522,-0.4794,-0.5171,-0.6263,-0.7074,-0.7723,-0.8055,-0.8791,-0.9465,-0.9762,-1.0643,-1.1326,-1.1326,-1.1778,-1.1927,-1.1427,-1.1569,-1.1628,-1.1427,-1.1368,0.0,-1.1418,-1.1628,-1.1528,-1.1065,-1.1243,-1.115,0.0,0.0,-1.1461,-1.1285,-1.1578,-1.2206,-1.3218,-1.3779,-1.4398,-1.5153,-1.5724,-1.5957,-1.5836,-1.5957,-1.5957,-1.5881,-1.5836,-1.5836,-1.5836,-1.5836,-1.6175,-1.668,-1.671,-1.7076,-1.7558,-1.7585,-1.7353,-1.7034,-0.5758,-0.5884,-0.6055,-0.6252,-0.6067,-0.5982,-0.6133,-0.5875,-0.5596,-0.5555,-0.5712,-0.5845,-0.574,-0.595,-0.6114,-0.6178,-0.6119,-0.6059,-0.6059,-0.59,-0.5626,-0.512,-0.4457,-0.379,-0.3072,-0.2462,-0.2242,-0.2467,-0.2856,-0.2685,-0.2071,-0.1566,0.0223,0.3021,0.2627,0.2847,0.3403,0.3403,0.2961,0.2296,0.2183,0.179,0.1343,0.1009,0.0617,0.0168,0.0056,-0.028,-0.0673,-0.0673,-0.0785,-0.0898,-0.0898,-0.0898,-0.0954,-0.1065,-0.1456,-0.1958,-0.2736,-0.3236,-0.3738,-0.4408,-0.4632,-0.4959,-0.5673,-0.6372,-0.6966,-0.7402,-0.8362,-0.9309,-0.9961,-1.0635,-1.1259,-1.1828,-1.2076,-1.2175,-1.1927,-1.1977,-1.2076,-1.2323,-1.2076,-1.2116,-1.2686,-1.2344,-1.2098,0.0,-1.2324,-1.2226,-1.1669,-1.2383,-1.2317,-1.1335,-1.1819,-1.255,-1.3515,-1.4097,-1.4835,-1.578,-1.5824,-1.6001,-1.6349,-1.6238,-1.638,-1.662,-1.6293,-1.6194,-1.6151,-1.6032,-1.6163,-1.6595,-1.6993,-1.7503,-1.8055,-1.8383,-1.8094,-1.7585,-0.586,-0.6002,-0.616,-0.6254,-0.6124,-0.5976,-0.5754,-0.573,-0.5588,-0.5158,-0.5588,-0.5887,-0.5745,-0.5896,-0.6005,-0.6014,-0.5955,-0.595,-0.6,-0.59,-0.5626,-0.5344,-0.4622,-0.3901,-0.335,-0.2573,-0.2352,-0.2691,-0.2517,-0.2179,-0.1734,-0.1118,0.0447,0.2627,0.2681,0.3014,0.3627,0.3904,0.3574,0.2912,0.2912,0.235,0.151,0.1793,0.1008,-0.0168,-0.0168,-0.0393,-0.0673,-0.0842,-0.0898,-0.0898,-0.101,-0.0954,-0.0898,-0.0954,-0.1177,-0.1567,-0.2516,-0.2959,-0.3403,-0.446,-0.4849,-0.5132,-0.5673,-0.6322,-0.6972,-0.7396,-0.8408,-0.9413,-1.021,-1.0736,-1.1318,-1.2076,-1.2175,-1.2175,-1.2126,-1.2175,-1.2323,-1.2676,-1.2421,-1.251,-1.3122,-1.288,-1.2686,-1.2667,-1.2889,0.0,-1.2197,-1.27,-1.2669,-1.1909,-1.2393,-1.3025,-1.3847,-1.4571,-1.5266,-1.5913,-1.5913,-1.6001,-1.6175,-1.6163,-1.625,-1.6405,-1.6175,-1.6107,-1.6151,-1.6032,-1.6411,-1.7102,-1.738,-1.7948,-1.8644,-1.8874,-1.863,-1.8108,-0.6178,-0.625,-0.629,-0.6276,-0.6089,-0.5767,-0.5185,-0.5482,-0.5489,-0.4759,-0.5493,-0.5941,-0.5644,-0.5786,-0.5896,-0.5795,-0.5795,-0.5845,-0.595,-0.5845,-0.5795,-0.585,-0.4897,-0.4181,-0.3849,-0.274,-0.2352,-0.2635,-0.1959,-0.151,-0.1229,-0.0503,0.0503,0.1846,0.2458,0.3014,0.3627,0.4184,0.4076,0.3524,0.3811,0.3079,0.1902,0.2579,0.1624,-0.0168,-0.0449,-0.0561,-0.0617,-0.0898,-0.0954,-0.101,-0.1178,-0.1066,-0.0954,-0.1178,-0.1177,-0.1345,-0.2571,-0.2959,-0.3345,-0.4563,-0.5069,-0.5352,-0.5786,-0.649,-0.7187,-0.7557,-0.8514,-0.9614,-1.0474,-1.0897,-1.1385,-1.2258,-1.2262,-1.2144,-1.2208,0.0,-1.2382,-1.2676,-1.2578,-1.2715,-1.3218,-1.3266,-1.316,-1.3006,-1.3208,-1.316,-1.2667,-1.2909,-1.3006,-1.2909,-1.3208,-1.3695,-1.4408,-1.5142,-1.5647,-1.5836,-1.5913,-1.5913,-1.5836,-1.5913,-1.5913,-1.5792,-1.5792,-1.5869,-1.5988,-1.6076,-1.671,-1.7585,-1.7747,-1.8305,-1.9026,-1.9026,-1.8822,-1.8461,-0.6203,-0.6051,-0.5876,-0.5632,-0.5199,-0.4953,-0.5091,-0.4951,-0.4995,-0.5381,-0.5674,-0.5779,-0.5639,-0.5622,-0.5677,-0.5795,-0.5681,-0.5681,-0.585,-0.5795,-0.5845,-0.595,-0.5445,-0.4783,-0.4009,-0.2792,-0.224,-0.2296,-0.2071,-0.1621,-0.095,-0.0447,0.0503,0.1846,0.2458,0.3014,0.3627,0.4079,0.4135,0.3913,0.3922,0.3641,0.3135,0.2018,0.1401,0.1007,-0.0616,-0.1234,-0.1347,-0.1403,-0.1347,-0.1234,-0.129,-0.1178,-0.1178,-0.168,-0.1847,-0.1959,-0.2683,-0.3735,-0.4622,-0.4842,-0.5014,-0.5124,-0.5234,-0.6213,-0.7133,-0.7171,-0.819,-0.942,-1.0541,-1.088,-1.1387,-1.2619,-1.2598,-1.2494,-1.273,0.0,-1.2421,-1.2764,-1.2618,-1.2813,-1.3621,-1.3515,-1.3552,-1.3931,-1.4025,-1.3941,-1.3763,-1.4093,-1.4326,-1.428,-1.4129,-1.4444,-1.5289,-1.5603,-1.5824,-1.5957,-1.5869,-1.5869,-1.5957,-1.5869,-1.5836,-1.5792,-1.5792,-1.5869,-1.6032,-1.6497,-1.6837,-1.7201,-1.8054,-1.8461,-1.8592,-1.8669,-1.8422,-1.8028,-0.5647,-0.5581,-0.5387,-0.488,-0.4494,-0.4232,-0.41,-0.4491,-0.4618,-0.4204,-0.5086,-0.5604,-0.5191,-0.5399,-0.5677,-0.5795,-0.5736,-0.5791,-0.59,-0.59,-0.595,-0.6,-0.5668,-0.4893,-0.3674,-0.2847,-0.2404,-0.2184,-0.1512,-0.1064,-0.0894,-0.0,0.0728,0.1344,0.1956,0.2569,0.3125,0.3577,0.3858,0.3965,0.3913,0.3694,0.3416,0.2575,0.179,0.1062,0.0112,-0.084,-0.1681,-0.1681,-0.1625,-0.1569,-0.1569,-0.1569,-0.168,-0.2015,-0.2516,-0.3016,-0.3294,-0.4181,-0.5011,-0.4901,-0.5069,-0.5187,-0.5187,-0.6268,-0.7182,-0.723,-0.8296,-0.9465,-1.0328,-1.0787,-1.131,-1.2112,-1.2395,-1.2572,-1.2763,-1.2772,-1.2802,-1.3053,-1.2903,-1.3155,-1.3926,-1.3467,-1.3372,-1.4129,-1.4093,-1.3999,-1.4093,-1.4477,-1.4708,-1.4846,-1.488,-1.5096,-1.5513,-1.5703,-1.5836,-1.5869,-1.5836,-1.5836,-1.5869,-1.5836,-1.5836,-1.5913,-1.5913,-1.6001,-1.6219,-1.6466,-1.6808,-1.7131,-1.7625,-1.7988,-1.8226,-1.8266,-1.8226,-1.8108,-0.5111,-0.4972,-0.4737,-0.4033,-0.3802,-0.3539,-0.3224,-0.3998,-0.4281,-0.3406,-0.4634,-0.5368,-0.4967,-0.5171,-0.5513,-0.5795,-0.585,-0.59,-0.6,-0.6005,-0.6059,-0.6059,-0.5673,-0.4897,-0.3622,-0.3067,-0.2627,-0.2184,-0.1064,-0.0616,-0.0783,0.0392,0.0898,0.0954,0.1512,0.2068,0.2514,0.3077,0.3522,0.3799,0.3741,0.3577,0.3357,0.2907,0.1899,0.067,0.0335,-0.0726,-0.2015,-0.2015,-0.2069,-0.2069,-0.2069,-0.2125,-0.2294,-0.2406,-0.3074,-0.3796,-0.3852,-0.446,-0.5069,-0.4956,-0.5128,-0.5352,-0.5458,-0.6431,-0.7289,-0.7503,-0.8514,-0.9517,-1.0123,-1.0643,-1.1175,-1.1908,0.0,-1.2641,-1.3041,-1.318,-1.3242,-1.3259,-1.3189,-1.3371,-1.3879,-1.3324,-1.3228,-1.3988,-1.3858,-1.3858,-1.4035,-1.4455,-1.488,-1.5244,-1.5424,-1.5572,-1.5735,-1.5927,-1.5972,-1.5972,-1.5972,-1.5912,-1.5792,-1.5792,-1.5869,-1.5988,-1.6044,-1.6175,-1.6436,-1.6552,-1.685,-1.7282,-1.7406,-1.7679,-1.8042,-1.7962,-1.8028,-1.8108,-0.4847,-0.4383,-0.367,-0.3251,-0.3005,-0.2949,-0.3071,-0.3578,-0.4134,-0.4533,-0.468,-0.4962,-0.5474,-0.5062,-0.5062,-0.574,-0.5896,-0.6005,-0.6,-0.6119,-0.6178,-0.6178,-0.55,-0.4893,-0.4405,-0.3677,-0.2903,-0.2184,-0.1285,-0.0727,-0.0393,0.0505,0.0898,0.0954,0.1512,0.1846,0.1902,0.274,0.313,0.3186,0.3355,0.3413,0.3302,0.2125,0.1116,0.0111,-0.0837,-0.179,-0.2635,-0.2635,-0.2798,-0.2963,-0.285,-0.2907,-0.3019,-0.3019,-0.3408,-0.3852,-0.4122,-0.4622,-0.5069,-0.5069,-0.5183,-0.5462,-0.5991,-0.6647,-0.7348,-0.8156,-0.8791,-0.9465,-1.0241,-1.0403,-1.1025,-1.2717,0.0,0.0,-1.4026,-1.391,-1.3503,-1.3185,-1.324,-1.3219,-1.3104,-1.316,-1.3314,-1.361,-1.361,-1.3621,-1.3658,-1.4305,-1.504,-1.5748,-1.5603,-1.584,-1.6512,-1.6524,-1.6524,-1.6524,-1.6524,-1.626,-1.5792,-1.5792,-1.5869,-1.6001,-1.6144,-1.6318,-1.6522,-1.7034,-1.7325,-1.7516,-1.7949,-1.8149,-1.8149,-1.7841,-1.772,-1.772,-0.3773,-0.3487,-0.3075,-0.2486,-0.2269,-0.2266,-0.2428,-0.2867,-0.315,-0.2993,-0.3963,-0.4629,-0.4522,-0.5014,-0.5508,-0.5896,-0.595,-0.6059,-0.6119,-0.6173,-0.6178,-0.6178,-0.5837,-0.5391,-0.4893,-0.4229,-0.3511,-0.2903,-0.1843,-0.1118,-0.0671,0.0112,0.0617,0.0898,0.1121,0.1512,0.2015,0.2406,0.2854,0.3413,0.3413,0.319,0.2798,0.2352,0.1454,0.0335,-0.0447,-0.1677,-0.2916,-0.3188,-0.3352,-0.3405,-0.3461,-0.3574,-0.3741,-0.4125,-0.4622,-0.5062,-0.5281,-0.5069,-0.4853,-0.4956,-0.5069,-0.5348,-0.6046,-0.675,-0.7456,-0.8262,-0.8896,-0.9465,-0.9829,-1.0438,-1.1165,-1.2104,0.0,-1.3432,-1.4232,-1.4031,-1.3847,-1.3927,-1.3689,-1.3701,-1.4104,-1.3531,-1.3372,-1.3915,-1.3782,-1.3628,-1.3478,-1.435,-1.4893,-1.4971,-1.5479,-1.5836,-1.6044,-1.6115,-1.6164,-1.6162,-1.6233,-1.6146,-1.6069,-1.5957,-1.6088,-1.6293,-1.6349,-1.6522,-1.6735,-1.6976,-1.7073,-1.717,-1.7323,-1.7419,-1.7447,-1.7323,-1.7323,-1.7352,-0.2967,-0.2799,-0.2468,-0.1999,-0.1882,-0.1895,-0.1937,-0.2443,-0.2691,-0.2317,-0.3393,-0.4233,-0.4291,-0.4959,-0.5567,-0.6005,-0.6059,-0.6119,-0.6178,-0.6178,-0.6178,-0.6178,-0.6119,-0.5837,-0.5277,-0.4838,-0.4233,-0.3456,-0.251,-0.1732,-0.1118,-0.028,0.028,0.0673,0.0842,0.1121,0.1568,0.179,0.2181,0.2683,0.2796,0.2573,0.2184,0.2128,0.14,0.0336,-0.0447,-0.1846,-0.3421,-0.3633,-0.3849,-0.4015,-0.4073,-0.4184,-0.4515,-0.5226,-0.566,-0.5928,-0.6105,-0.5723,-0.5285,-0.523,-0.5289,-0.5559,-0.6317,-0.702,-0.7717,-0.8468,-0.9152,-0.9666,-0.9821,-1.0732,-1.1602,-1.2148,-1.3009,-1.3892,-1.4573,-1.4467,-1.4332,-1.4449,-1.4076,-1.3998,-1.4563,-1.3801,-1.355,-1.4233,-1.391,-1.3619,-1.3536,-1.4521,-1.4986,-1.4834,-1.5692,-1.6047,-1.5781,-1.5931,-1.597,-1.6001,-1.5875,-1.587,-1.5969,-1.5869,-1.6076,-1.6479,-1.6479,-1.665,-1.6876,-1.6918,-1.696,-1.7002,-1.7002,-1.7002,-1.7086,-1.7086,-1.7115,-1.7199,-0.2587,-0.2239,-0.188,-0.188,-0.188,-0.188,-0.188,-0.2406,-0.29,-0.3088,-0.3074,-0.3683,-0.5113,-0.4846,-0.4959,-0.6123,-0.6178,-0.6178,-0.6178,-0.6178,-0.6178,-0.6178,-0.6178,-0.6009,-0.5622,-0.5622,-0.5014,-0.3796,-0.3345,-0.2565,-0.1566,-0.067,-0.0056,0.0224,0.0673,0.0729,0.0449,0.0895,0.095,0.0726,0.1342,0.1566,0.1567,0.1345,0.0728,-0.0112,-0.1006,-0.2573,-0.4209,-0.4082,-0.4405,-0.4901,-0.4743,-0.4897,-0.5328,-0.6312,-0.6298,-0.6126,-0.6475,-0.6588,-0.6534,-0.6109,-0.6,-0.6218,-0.6923,-0.7503,-0.8137,-0.9001,-0.9614,-1.0072,-1.0352,-1.1212,-1.221,-1.3141,-1.371,-1.4297,-1.5089,-1.5205,-1.5042,-1.4656,-1.4176,-1.3998,-1.4174,-1.3831,-1.3836,-1.4457,-1.3978,-1.3668,-1.3821,-1.4751,-1.5344,-1.548,-1.6332,-1.6554,-1.6014,-1.6137,-1.6188,-1.6177,-1.5706,-1.5508,-1.5513,-1.5513,-1.5824,-1.6392,-1.6479,-1.665,-1.6918,-1.696,-1.7073,-1.7199,-1.7199,-1.7199,-1.7199,-1.7199,-1.7199,-1.7199,-0.2032,-0.1922,-0.1823,-0.1823,-0.1991,-0.2102,-0.2102,-0.2444,-0.2776,-0.2805,-0.3244,-0.3907,-0.468,-0.5066,-0.5513,-0.6123,-0.6178,-0.6178,-0.6178,-0.6178,-0.6178,-0.6178,-0.6178,-0.6123,-0.6009,-0.5732,-0.5399,-0.5069,-0.407,-0.3178,-0.2339,-0.1563,-0.0839,-0.0224,-0.0336,-0.0391,-0.0503,-0.0,-0.0112,-0.0559,0.0559,0.0951,0.0896,0.0336,-0.0112,-0.056,-0.1732,-0.313,-0.448,-0.4897,-0.5382,-0.5878,-0.6253,-0.6416,-0.6534,-0.6745,-0.7009,-0.7224,-0.7343,-0.7283,-0.7117,-0.675,-0.6642,-0.6804,-0.7503,-0.7765,-0.8137,-0.9001,-0.9614,-1.02,-1.0772,-1.1747,-1.2724,-1.3626,-1.4241,-1.4656,-1.4904,-1.4661,-1.4363,-1.4237,-1.4146,-1.4276,-1.474,-1.4736,-1.4843,-1.5051,-1.456,-1.4388,-1.4773,-1.507,-1.5166,-1.5062,-1.5905,-1.6014,-1.5329,-1.586,-1.5977,-1.5731,-1.5549,-1.5575,-1.5712,-1.5591,-1.5957,-1.6633,-1.6633,-1.6761,-1.696,-1.7002,-1.7073,-1.7199,-1.7199,-1.7199,-1.7199,-1.7199,-1.7199,-1.7199,-0.1976,-0.2076,-0.2132,-0.2132,-0.2408,-0.2627,-0.2627,-0.2796,-0.2965,-0.3132,-0.3519,-0.4018,-0.457,-0.5234,-0.5786,-0.6178,-0.6178,-0.6178,-0.6178,-0.6178,-0.6178,-0.6178,-0.6178,-0.6178,-0.6178,-0.5955,-0.5732,-0.5622,-0.4846,-0.4067,-0.3118,-0.251,-0.1788,-0.1064,-0.1119,-0.1285,-0.1396,-0.1172,-0.1284,-0.151,-0.0614,-0.0224,-0.0168,-0.067,-0.1174,-0.1733,-0.2892,-0.4284,-0.5631,-0.6239,-0.687,-0.7458,-0.8047,-0.8218,-0.8178,-0.8324,-0.8541,-0.8758,-0.8758,-0.8547,-0.8283,-0.8019,-0.7599,-0.7337,-0.7818,-0.809,-0.8468,-0.9249,-0.9865,-1.0435,-1.1195,-1.2191,-1.309,-1.3641,-1.4196,-1.4521,-1.4521,-1.4297,-1.4184,-1.4397,-1.4348,-1.456,-1.5304,-1.5269,-1.5267,-1.5289,-1.5017,-1.4913,-1.5088,-1.5276,-1.5326,-1.5266,-1.577,-1.58,-1.5315,-1.5563,-1.5432,-1.5004,-1.5004,-1.5094,-1.5266,-1.5367,-1.5768,-1.6349,-1.659,-1.6803,-1.696,-1.7002,-1.7073,-1.7199,-1.7199,-1.7199,-1.7199,-1.7199,-1.7157,-1.7115,-0.2209,-0.2475,-0.2703,-0.2703,-0.3023,-0.3292,-0.3357,-0.335,-0.3511,-0.3849,-0.3907,-0.4181,-0.4901,-0.5344,-0.5786,-0.6178,-0.6178,-0.6178,-0.6178,-0.6178,-0.6178,-0.6178,-0.6178,-0.6178,-0.6178,-0.6178,-0.6009,-0.5677,-0.5622,-0.5011,-0.3904,-0.3453,-0.2899,-0.2181,-0.2011,-0.2176,-0.2506,-0.2674,-0.2623,-0.2462,-0.2179,-0.1843,-0.1507,-0.1836,-0.2504,-0.334,-0.4525,-0.591,-0.7322,-0.7941,-0.8645,-0.9364,-0.9915,-0.9982,-0.999,-1.0458,-1.0517,-1.0415,-1.0415,-1.0064,-0.9658,-0.9658,-0.8823,-0.7931,-0.7984,-0.8421,-0.9061,-0.9658,-1.0269,-1.0889,-1.1663,-1.2628,-1.3311,-1.3349,-1.3772,-1.4121,-1.4135,-1.4125,-1.4265,-1.48,-1.461,-1.4817,-1.5739,-1.5567,-1.54,-1.54,-1.5433,-1.5344,-1.504,-1.5421,-1.5732,-1.5876,-1.5927,-1.5926,-1.5879,-1.5452,-1.4913,-1.4304,-1.4354,-1.4408,-1.4466,-1.4971,-1.5412,-1.5876,-1.6448,-1.6761,-1.6918,-1.696,-1.7073,-1.7199,-1.7199,-1.7199,-1.7199,-1.7199,-1.7115,-1.7044,-0.2118,-0.2443,-0.2791,-0.2503,-0.2847,-0.3324,-0.3757,-0.3913,-0.4177,-0.4622,-0.4677,-0.4846,-0.5399,-0.5567,-0.5786,-0.6178,-0.6178,-0.6178,-0.6178,-0.6178,-0.6178,-0.6178,-0.6178,-0.6178,-0.6178,-0.6178,-0.6178,-0.6064,-0.5732,-0.534,-0.4835,-0.4608,-0.4275,-0.3892,-0.4326,-0.4707,-0.5035,-0.4922,-0.4707,-0.4446,-0.4161,-0.35,-0.2894,-0.4515,-0.5046,-0.5089,-0.6797,-0.7874,-0.8645,-0.9541,-1.0171,-1.0586,-1.0754,-1.061,-1.0458,-1.0559,-1.0517,-1.0415,-1.0415,-1.0312,-1.0218,-1.0218,-1.0005,-0.9592,-0.8791,-0.9054,-0.951,-0.9762,-1.0584,-1.1505,-1.2223,-1.2866,-1.3459,-1.384,-1.4019,-1.4119,-1.4175,-1.4175,-1.4243,-1.4414,-1.484,-1.5188,-1.5417,-1.5872,-1.6163,-1.6163,-1.6175,-1.6163,-1.6088,-1.6163,-1.625,-1.6337,-1.6794,-1.6837,-1.6443,-1.6678,-1.5941,-1.4304,-1.469,-1.488,-1.4971,-1.5445,-1.5888,-1.638,-1.6577,-1.6761,-1.6918,-1.696,-1.7073,-1.7199,-1.7199,-1.7199,-1.7199,-1.7073,-1.7073,-1.7157,-0.2559,-0.2962,-0.327,-0.2996,-0.355,-0.4116,-0.4405,-0.4675,-0.4952,-0.5175,-0.523,-0.5344,-0.5563,-0.5786,-0.5955,-0.6178,-0.6178,-0.6178,-0.6178,-0.6178,-0.6178,-0.6178,-0.6178,-0.6337,-0.6603,-0.6603,-0.6603,-0.6603,-0.6436,-0.6154,-0.5923,-0.5601,-0.5273,-0.5105,-0.5542,-0.5869,-0.6081,-0.6131,-0.5968,-0.5642,-0.5525,-0.5237,-0.5058,-0.6584,-0.739,-0.7862,-0.9582,-1.0673,-1.1398,-1.1822,-1.2162,-1.2395,-1.2061,-1.1823,-1.1633,-1.1443,-1.1342,-1.1191,-1.1191,-1.104,-1.0846,-1.0846,-1.0626,-1.0261,-0.971,-0.9762,-1.0072,-1.0438,-1.1006,-1.1589,-1.2291,-1.2692,-1.302,-1.3394,-1.3678,-1.3892,-1.3895,-1.4108,-1.435,-1.4662,-1.5085,-1.5478,-1.58,-1.6163,-1.6392,-1.6392,-1.6392,-1.6392,-1.6436,-1.6698,-1.6892,-1.6936,-1.7281,-1.7321,-1.7026,-1.6788,-1.6084,-1.5061,-1.5304,-1.5297,-1.5108,-1.5579,-1.592,-1.6194,-1.662,-1.6846,-1.6918,-1.7044,-1.7157,-1.7199,-1.7115,-1.7115,-1.7073,-1.7002,-1.7002,-1.7086,-0.3081,-0.3472,-0.3757,-0.3605,-0.4279,-0.488,-0.4945,-0.527,-0.5508,-0.5677,-0.5677,-0.5677,-0.5677,-0.6009,-0.6178,-0.6178,-0.6178,-0.6178,-0.6178,-0.6178,-0.6178,-0.6178,-0.6178,-0.65,-0.7085,-0.7192,-0.7241,-0.7241,-0.7241,-0.7182,-0.7009,-0.6642,-0.6372,-0.6308,-0.6632,-0.6843,-0.6999,-0.7326,-0.7208,-0.6768,-0.6972,-0.7164,-0.7442,-0.8649,-0.9733,-1.0853,-1.2368,-1.345,-1.4139,-1.3975,-1.3924,-1.3873,-1.3351,-1.3035,-1.2852,-1.2559,-1.2363,-1.2264,-1.2224,-1.1918,-1.1519,-1.1477,-1.1099,-1.0728,-1.0677,-1.0626,-1.0685,-1.1217,-1.1368,-1.1628,-1.2224,-1.2431,-1.2578,-1.2725,-1.3238,-1.361,-1.3705,-1.4118,-1.4628,-1.5153,-1.5412,-1.5756,-1.6349,-1.6436,-1.6436,-1.6522,-1.6522,-1.6607,-1.6765,-1.7137,-1.7371,-1.7403,-1.756,-1.7557,-1.746,-1.6705,-1.6244,-1.615,-1.6022,-1.5672,-1.5232,-1.5712,-1.5932,-1.5976,-1.6607,-1.6918,-1.6918,-1.7115,-1.7199,-1.7157,-1.7086,-1.7002,-1.7002,-1.696,-1.6918,-1.6876,-0.2995,-0.3409,-0.3785,-0.3532,-0.3754,-0.4253,-0.5135,-0.5087,-0.5285,-0.6009,-0.6119,-0.6119,-0.6119,-0.6178,-0.6178,-0.6178,-0.6178,-0.6178,-0.6178,-0.6178,-0.6178,-0.6178,-0.6178,-0.65,-0.7085,-0.7557,-0.7765,-0.7765,-0.7765,-0.7818,-0.7913,-0.8137,-0.8302,-0.8396,-0.8922,-0.9235,-0.9332,-0.9644,-0.9526,-0.9155,-0.94,-0.9526,-0.9672,-1.13,-1.2311,-1.2966,-1.4473,-1.4903,-1.4755,-1.4755,-1.4411,-1.3967,-1.3873,-1.36,-1.3324,-1.3276,-1.317,-1.2977,-1.2754,-1.2657,-1.251,-1.2224,-1.2126,-1.2017,-1.1918,-1.151,-1.1217,-1.1276,-1.1778,-1.2224,-1.2421,-1.2578,-1.2725,-1.2832,-1.3296,-1.3752,-1.4165,-1.4686,-1.5153,-1.5659,-1.5925,-1.6188,-1.6479,-1.6479,-1.665,-1.7073,-1.7073,-1.731,-1.7787,-1.7431,-1.7261,-1.7319,-1.7822,-1.7872,-1.7397,-1.7738,-1.7654,-1.7182,-1.664,-1.6137,-1.57,-1.6194,-1.6479,-1.6577,-1.6791,-1.6918,-1.7002,-1.7157,-1.7115,-1.7044,-1.7115,-1.7115,-1.7002,-1.7115,-1.7044,-1.6918,-0.328,-0.3576,-0.3754,-0.3576,-0.3865,-0.4329,-0.5009,-0.5218,-0.5508,-0.6005,-0.6173,-0.6173,-0.6119,-0.6173,-0.6178,-0.6178,-0.6178,-0.6178,-0.6178,-0.6178,-0.6178,-0.6178,-0.6495,-0.6977,-0.7557,-0.809,-0.856,-0.8876,-0.8606,-0.8606,-0.8823,-0.8725,-0.883,-0.9047,-0.9354,-0.9614,-0.9814,-1.002,-1.0056,-1.01,-1.0645,-1.1082,-1.1495,-1.3142,-1.4233,-1.5014,-1.6323,-1.6587,-1.6232,-1.5908,-1.5466,-1.4983,-1.4305,-1.4061,-1.3909,-1.3457,-1.3457,-1.3552,-1.3132,-1.3228,-1.342,-1.3084,-1.3045,-1.3035,-1.3122,-1.288,-1.2452,-1.1968,-1.2076,-1.2382,-1.2578,-1.2676,-1.2822,-1.3248,-1.3658,-1.4165,-1.4686,-1.5198,-1.5691,-1.6293,-1.6466,-1.665,-1.6863,-1.6892,-1.6989,-1.7199,-1.7199,-1.7434,-1.7948,-1.8071,-1.8122,-1.815,-1.8676,-1.8734,-1.8183,-1.8118,-1.7887,-1.7375,-1.6798,-1.638,-1.6194,-1.6479,-1.6633,-1.6718,-1.6876,-1.696,-1.696,-1.7044,-1.7044,-1.6918,-1.6918,-1.6833,-1.6735,-1.6778,-1.6791,-1.6803]}]]